[[{"header":{"parameterUnit":"m.s-1","parameterCategory":1,"la1":30.6,"la2":28.766,"lo1":-90.7593,"lo2":-88.6598,"dy":0.0162,"dx":0.0183,"nx":116,"ny":114,"refTime":"2023-07-16T12:00:00:Z","depth":0,"parameterNumber":2,"parameterNumberName":"U-component_of_WINDS"},"data":[0.0,0.0,0.0,0.0,0.0,0.0,0.0,0.0,0.0,0.0,0.0,0.0,0.0,0.0,0.0,0.0,0.0,0.0,0.0,0.0,0.0,0.0,0.0,0.0,0.0,0.0,0.0,0.0,0.0,0.0,0.0,0.0,0.0,0.0,0.0,0.0,0.0,0.0,0.0,0.0,0.0,0.0,0.0,0.0,0.0,0.0,0.0,0.0,0.0,0.0,0.0,0.0,0.0,0.0,0.0,0.0,0.0,0.0,0.0,0.0,0.0,0.0,0.0,0.0,0.0,0.0,0.0,0.0,0.0,0.0,0.0,0.0,0.0,0.0,0.0,0.0,0.0,0.0,0.0,0.0,0.0,0.0,0.0,0.0,0.0,0.0,0.0,0.0,0.0,0.0,0.0,0.0,0.0,0.0,0.0,0.0,0.0,0.0,0.0,0.0,0.0,0.0,0.0,0.0,0.0,0.0,0.0,0.0,0.0,0.0,0.0,0.0,0.0,0.0,0.0,0.0,0.0,0.0,0.0,0.0,0.0,0.0,0.0,0.0,0.0,0.0,0.0,0.0,0.0,0.0,0.0,0.0,0.0,0.0,0.0,0.0,0.0,0.0,0.0,0.0,0.0,0.0,0.0,0.0,0.0,0.0,0.0,0.0,0.0,0.0,0.0,0.0,0.0,0.0,0.0,0.0,0.0,0.0,0.0,0.0,0.0,0.0,0.0,0.0,0.0,0.0,0.0,0.0,0.0,0.0,0.0,0.0,0.0,0.0,0.0,0.0,0.0,0.0,0.0,0.0,0.0,0.0,0.0,0.0,0.0,0.0,0.0,0.0,0.0,0.0,0.0,0.0,0.0,0.0,0.0,0.0,0.0,0.0,0.0,0.0,0.0,0.0,0.0,0.0,0.0,0.0,0.0,0.0,0.0,0.0,0.0,0.0,0.0,0.0,0.0,0.0,0.0,0.0,0.0,0.0,0.0,0.0,0.0,0.0,0.0,0.0,0.0,0.0,0.0,0.0,0.0,0.0,0.0,0.0,0.0,0.0,0.0,0.0,0.0,0.0,0.0,0.0,0.0,0.0,0.0,0.0,0.0,0.0,0.0,0.0,0.0,0.0,0.0,0.0,0.0,0.0,0.0,0.0,0.0,0.0,0.0,0.0,0.0,0.0,0.0,0.0,0.0,0.0,0.0,0.0,0.0,0.0,0.0,0.0,0.0,0.0,0.0,0.0,0.0,0.0,0.0,0.0,0.0,0.0,0.0,0.0,0.0,0.0,0.0,0.0,0.0,0.0,0.0,0.0,0.0,0.0,0.0,0.0,0.0,0.0,0.0,0.0,0.0,0.0,0.0,0.0,0.0,0.0,0.0,0.0,0.0,0.0,0.0,0.0,0.0,0.0,0.0,0.0,0.0,0.0,0.0,0.0,0.0,0.0,0.0,0.0,0.0,0.0,0.0,0.0,0.0,0.0,0.0,0.0,0.0,0.0,0.0,0.0,0.0,0.0,0.0,0.0,0.0,0.0,0.0,0.0,0.0,0.0,0.0,0.0,0.0,0.0,0.0,0.0,0.0,0.0,0.0,0.0,0.0,0.0,0.0,0.0,0.0,0.0,0.0,0.0,0.0,0.0,0.0,0.0,0.0,0.0,0.0,0.0,0.0,0.0,0.0,0.0,0.0,0.0,0.0,0.0,0.0,0.0,0.0,0.0,0.0,0.0,0.0,0.0,0.0,0.0,0.0,0.0,0.0,0.0,0.0,0.0,0.0,0.0,0.0,0.0,0.0,0.0,0.0,0.0,0.0,0.0,0.0,0.0,0.0,0.0,0.0,0.0,0.0,0.0,0.0,0.0,0.0,0.0,0.0,0.0,0.0,0.0,0.0,0.0,0.0,0.0,0.0,0.0,0.0,0.0,0.0,0.0,0.0,0.0,0.0,0.0,0.0,0.0,0.0,0.0,0.0,0.0,0.0,0.0,0.0,0.0,0.0,0.0,0.0,0.0,0.0,0.0,0.0,0.0,0.0,0.0,0.0,0.0,0.0,0.0,0.0,0.0,0.0,0.0,0.0,0.0,0.0,0.0,0.0,0.0,0.0,0.0,0.0,0.0,0.0,0.0,0.0,0.0,0.0,0.0,0.0,0.0,0.0,0.0,0.0,0.0,0.0,0.0,0.0,0.0,0.0,0.0,0.0,0.0,0.0,0.0,0.0,0.0,0.0,0.0,0.0,0.0,0.0,0.0,0.0,0.0,0.0,0.0,0.0,0.0,0.0,0.0,0.0,0.0,0.0,0.0,0.0,0.0,0.0,0.0,0.0,0.0,0.0,0.0,0.0,0.0,0.0,0.0,0.0,0.0,0.0,0.0,0.0,0.0,0.0,0.0,0.0,0.0,0.0,0.0,0.0,0.0,0.0,0.0,0.0,0.0,0.0,0.0,0.0,0.0,0.0,0.0,0.0,0.0,0.0,0.0,0.0,0.0,0.0,0.0,0.0,0.0,0.0,0.0,0.0,0.0,0.0,0.0,0.0,0.0,0.0,0.0,0.0,0.0,0.0,0.0,0.0,0.0,0.0,0.0,0.0,0.0,0.0,0.0,0.0,0.0,0.0,0.0,0.0,0.0,0.0,0.0,0.0,0.0,0.0,0.0,0.0,0.0,0.0,0.0,0.0,0.0,0.0,0.0,0.0,0.0,0.0,0.0,0.0,0.0,0.0,0.0,0.0,0.0,0.0,0.0,0.0,0.0,0.0,0.0,0.0,0.0,0.0,0.0,0.0,0.0,0.0,0.0,0.0,0.0,0.0,0.0,0.0,0.0,0.0,0.0,0.0,0.0,0.0,0.0,0.0,0.0,0.0,0.0,0.0,0.0,0.0,0.0,0.0,0.0,0.0,0.0,0.0,0.0,0.0,0.0,0.0,0.0,0.0,0.0,0.0,0.0,0.0,0.0,0.0,0.0,0.0,0.0,0.0,0.0,0.0,0.0,0.0,0.0,0.0,0.0,0.0,0.0,0.0,0.0,0.0,0.0,0.0,0.0,0.0,0.0,0.0,0.0,0.0,0.0,0.0,0.0,0.0,0.0,0.0,0.0,0.0,0.0,0.0,0.0,0.0,0.0,0.0,0.0,0.0,0.0,0.0,0.0,0.0,0.0,0.0,0.0,0.0,0.0,0.0,0.0,0.0,0.0,0.0,0.0,0.0,0.0,0.0,0.0,0.0,0.0,0.0,0.0,0.0,0.0,0.0,0.0,0.0,0.0,0.0,0.0,0.0,0.0,0.0,0.0,0.0,0.0,0.0,0.0,0.0,0.0,0.0,0.0,0.0,0.0,0.0,0.0,0.0,0.0,0.0,0.0,0.0,0.0,0.0,0.0,0.0,0.0,0.0,0.0,0.0,0.0,0.0,0.0,0.0,0.0,0.0,0.0,0.0,0.0,0.0,0.0,0.0,0.0,0.0,0.0,0.0,0.0,0.0,0.0,0.0,0.0,0.0,0.0,0.0,0.0,0.0,0.0,0.0,0.0,0.0,0.0,0.0,0.0,0.0,0.0,0.0,0.0,0.0,0.0,0.0,0.0,0.0,0.0,0.0,0.0,0.0,0.0,0.0,0.0,0.0,0.0,0.0,0.0,0.0,0.0,0.0,0.0,0.0,0.0,0.0,0.0,0.0,0.0,0.0,0.0,0.0,0.0,0.0,0.0,0.0,0.0,0.0,0.0,0.0,0.0,0.0,0.0,0.0,0.0,0.0,0.0,0.0,0.0,0.0,0.0,0.0,0.0,0.0,0.0,0.0,0.0,0.0,0.0,0.0,0.0,0.0,0.0,0.0,0.0,0.0,0.0,0.0,0.0,0.0,0.0,0.0,0.0,0.0,0.0,0.0,0.0,0.0,0.0,0.0,0.0,0.0,0.0,0.0,0.0,0.0,0.0,0.0,0.0,0.0,0.0,0.0,0.0,0.0,0.0,0.0,0.0,0.0,0.0,0.0,0.0,0.0,0.0,0.0,0.0,0.0,0.0,0.0,0.0,0.0,0.0,0.0,0.0,0.0,0.0,0.0,0.0,0.0,0.0,0.0,0.0,0.0,0.0,0.0,0.0,0.0,0.0,0.0,0.0,0.0,0.0,0.0,0.0,0.0,0.0,0.0,0.0,0.0,0.0,0.0,0.0,0.0,0.0,0.0,0.0,0.0,0.0,0.0,0.0,0.0,0.0,0.0,0.0,0.0,0.0,0.0,0.0,0.0,0.0,0.0,0.0,0.0,0.0,0.0,0.0,0.0,0.0,0.0,0.0,0.0,0.0,0.0,0.0,0.0,0.0,0.0,0.0,0.0,0.0,0.0,0.0,0.0,0.0,0.0,0.0,0.0,0.0,0.0,0.0,0.0,0.0,0.0,0.0,0.0,0.0,0.0,0.0,0.0,0.0,0.0,0.0,0.0,0.0,0.0,0.0,0.0,0.0,0.0,0.0,0.0,0.0,0.0,0.0,0.0,0.0,0.0,0.0,0.0,0.0,0.0,0.0,0.0,0.0,0.0,0.0,0.0,0.0,0.0,0.0,0.0,0.0,0.0,0.0,0.0,0.0,0.0,0.0,0.0,0.0,0.0,0.0,0.0,0.0,0.0,0.0,0.0,0.0,0.0,0.0,0.0,0.0,0.0,0.0,0.0,0.0,0.0,0.0,0.0,0.0,0.0,0.0,0.0,0.0,0.0,0.0,0.0,0.0,0.0,0.0,0.0,0.0,0.0,0.0,0.0,0.0,0.0,0.0,0.0,0.0,0.0,0.0,0.0,0.0,0.0,0.0,0.0,0.0,0.0,0.0,0.0,0.0,0.0,0.0,0.0,0.0,0.0,0.0,0.0,0.0,0.0,0.0,0.0,0.0,0.0,0.0,0.0,0.0,0.0,0.0,0.0,0.0,0.0,0.0,0.0,0.0,0.0,0.0,0.0,0.0,0.0,0.0,0.0,0.0,0.0,0.0,0.0,0.0,0.0,0.0,0.0,0.0,0.0,0.0,0.0,0.0,0.0,0.0,0.0,0.0,0.0,0.0,0.0,0.0,0.0,0.0,0.0,0.0,0.0,0.0,0.0,0.0,0.0,0.0,0.0,0.0,0.0,0.0,0.0,0.0,0.0,0.0,0.0,0.0,0.0,0.0,0.0,0.0,0.0,0.0,0.0,0.0,0.0,0.0,0.0,0.0,0.0,0.0,0.0,0.0,0.0,0.0,0.0,0.0,0.0,0.0,0.0,0.0,0.0,0.0,0.0,0.0,0.0,0.0,0.0,0.0,0.0,0.0,0.0,0.0,0.0,0.0,0.0,0.0,0.0,0.0,0.0,0.0,0.0,0.0,0.0,0.0,0.0,0.0,0.0,0.0,0.0,0.0,0.0,0.0,0.0,0.0,0.0,0.0,0.0,0.0,0.0,0.0,0.0,0.0,0.0,0.0,0.0,0.0,0.0,0.0,0.0,0.0,0.0,0.0,0.0,0.0,0.0,0.0,0.0,0.0,0.0,0.0,0.0,0.0,0.0,0.0,0.0,0.0,0.0,0.0,0.0,0.0,0.0,0.0,0.0,0.0,0.0,0.0,0.0,0.0,0.0,0.0,0.0,0.0,0.0,0.0,0.0,0.0,0.0,0.0,0.0,0.0,0.0,0.0,0.0,0.0,0.0,0.0,0.0,0.0,0.0,0.0,0.0,0.0,0.0,0.0,0.0,0.0,0.0,0.0,0.0,0.0,0.0,0.0,0.0,0.0,0.0,0.0,0.0,0.0,0.0,0.0,0.0,0.0,0.0,0.0,0.0,0.0,0.0,0.0,0.0,0.0,0.0,0.0,0.0,0.0,0.0,0.0,0.0,0.0,0.0,0.0,0.0,0.0,0.0,0.0,0.0,0.0,0.0,0.0,0.0,0.0,0.0,0.0,0.0,0.0,0.0,0.0,0.0,0.0,0.0,0.0,0.0,0.0,0.0,0.0,0.0,0.0,0.0,0.0,0.0,0.0,0.0,0.0,0.0,0.0,0.0,0.0,0.0,0.0,0.0,0.0,0.0,0.0,0.0,0.0,0.0,0.0,0.0,0.0,0.0,0.0,0.0,0.0,1.2548,0.0,0.0,0.0,0.0,0.0,0.0,0.0,0.0,0.0,0.0,0.0,0.0,0.0,0.0,0.0,0.0,0.0,0.0,0.0,0.0,0.0,0.0,0.0,0.0,0.0,0.0,0.0,0.0,0.0,0.0,0.0,0.0,0.0,0.0,0.0,0.0,0.0,0.0,0.0,0.0,0.0,0.0,0.0,0.0,0.0,0.0,0.0,0.0,0.0,0.0,0.0,0.0,0.0,0.0,0.0,0.0,0.0,0.0,0.0,0.0,0.0,0.0,0.0,0.0,0.0,0.0,0.0,0.0,0.0,0.0,0.0,0.0,0.0,0.0,0.0,0.0,0.0,0.0,0.0,0.0,0.0,0.0,0.0,0.0,0.0,0.0,0.0,0.0,0.0,0.0,0.0,0.0,0.0,0.0,0.0,0.0,0.0,0.0,0.0,0.0,0.0,0.0,0.0,0.0,0.0,0.0,0.0,0.0,0.0,0.0,0.0,0.0,0.0,0.0,0.0,0.0,1.2291,0.0,0.0,0.0,0.0,0.0,0.0,0.0,0.0,0.0,0.0,0.0,0.0,0.0,0.0,0.0,0.0,0.0,0.0,0.0,0.0,0.0,0.0,0.0,0.0,0.0,0.0,0.0,0.0,0.0,0.0,0.0,0.0,0.0,0.0,0.0,0.0,0.0,0.0,0.0,0.0,0.0,0.0,0.0,0.0,0.0,0.0,0.0,0.0,0.0,0.0,0.0,0.0,0.0,0.0,0.0,0.0,0.0,0.0,0.0,0.0,0.0,0.0,0.0,0.0,0.0,0.0,0.0,0.0,0.0,0.0,0.0,0.0,0.0,0.0,0.0,0.0,0.0,0.0,0.0,0.0,0.0,0.0,0.0,0.0,0.0,0.0,0.0,0.0,0.0,0.0,0.0,0.0,0.0,0.0,0.0,0.0,0.0,0.0,0.0,0.0,0.0,0.0,0.0,0.0,0.0,0.0,0.0,0.0,1.0295,0.9466,0.8169,0.942,1.0526,1.1417,1.1388,1.1452,1.1715,1.3575,0.0,0.0,0.0,0.0,0.0,0.0,0.0,0.0,0.0,0.0,0.0,0.0,0.0,0.0,0.0,0.0,0.0,0.0,0.0,0.0,0.0,0.0,0.0,0.0,0.0,0.0,0.0,0.0,0.0,0.0,0.0,0.0,0.0,0.0,0.0,0.0,0.0,0.0,0.4898,0.5867,0.7585,0.9855,0.0,0.0,0.0,0.0,0.0,0.0,0.0,0.0,0.0,0.0,0.0,0.0,0.0,0.0,0.0,0.0,0.0,0.0,0.0,0.0,0.0,0.0,0.0,0.0,0.0,0.0,0.0,0.0,0.0,0.0,0.0,0.0,0.0,0.0,0.0,0.0,0.0,0.0,0.0,0.0,0.0,0.0,0.0,0.0,1.8724,1.8705,0.0,0.0,0.0,0.0,0.0,0.0,0.0,0.0,0.0,0.0,0.0,0.0,0.0,1.7062,1.7356,1.4012,1.2474,1.2747,1.1826,1.0828,0.9744,0.8592,0.9021,1.0735,1.2267,0.0,1.0762,1.203,0.0,0.0,0.0,0.0,0.0,0.0,0.0,0.0,0.0,0.0,0.0,0.0,0.0,0.0,0.0,0.0,0.0,0.0,0.0,0.0,0.0,0.0,0.0,0.0,0.0,0.0,0.0,0.0,0.0,0.0,0.0,0.0,0.0,0.0,0.0,0.0,0.4206,0.4302,0.4434,0.5436,0.7081,0.9267,0.9899,1.1832,1.4702,1.5708,0.0,0.0,0.0,0.0,0.0,0.0,0.0,0.0,0.0,0.0,0.0,0.0,0.0,0.0,0.0,0.0,0.0,0.0,0.0,0.0,0.0,0.0,0.0,0.0,0.0,0.0,0.0,0.0,0.0,0.0,0.0,0.0,0.0,0.0,0.0,0.0,0.0,0.0,0.0,1.9721,2.0042,1.9711,1.9841,2.0043,0.0,0.0,0.0,0.0,0.0,0.0,0.0,0.0,0.0,1.8231,1.7555,1.819,2.0314,1.7613,1.5835,1.5039,1.4588,1.4112,1.3619,1.1554,1.1153,1.2055,1.2849,1.3306,1.3455,1.3195,1.3933,1.533,0.0,0.0,0.0,0.0,1.5987,1.5311,0.0,0.0,0.0,0.0,0.0,0.0,0.0,0.0,0.0,0.0,0.0,0.0,0.0,0.0,0.0,-0.4249,0.0,0.0,0.0,0.0,0.0,0.0,0.0,0.0,0.0,0.0,0.0,0.0,0.3531,0.3965,0.4293,0.4953,0.6168,0.7856,0.927,1.1912,1.5245,1.6062,1.6999,0.0,0.0,0.0,0.0,0.0,0.0,0.0,0.0,0.0,0.0,0.0,0.0,0.0,0.0,0.0,0.0,0.0,0.0,0.0,0.0,0.0,0.0,0.0,0.0,0.0,0.0,0.0,0.0,0.0,0.0,0.0,0.0,0.0,0.0,0.0,0.0,0.0,0.0,1.9794,2.0372,1.9932,1.9344,1.9099,0.0,0.0,0.0,0.0,0.0,0.0,2.0973,1.9877,1.9432,1.9765,1.8859,1.9638,2.2276,2.0565,1.8893,1.7312,1.6752,1.6522,1.6423,1.4652,1.3914,1.4037,1.4037,1.5086,1.6653,1.4744,1.4393,1.5217,1.6722,1.7517,1.7828,1.8007,1.7422,1.666,0.0,0.0,0.0,0.0,0.0,0.0,0.0,0.0,0.0,0.0,0.0,0.0,0.0,0.0,-0.4244,-0.3693,-0.4044,-0.3056,0.0,0.0,0.0,0.0,0.0,0.0,0.0,0.0,0.0,0.0175,0.1354,0.282,0.4479,0.4518,0.4777,0.5192,0.7009,1.0379,1.4754,1.632,1.7334,1.8,0.0,0.0,0.0,0.0,0.0,0.0,0.0,0.0,0.0,0.0,0.0,0.0,0.0,0.0,0.0,0.0,0.0,0.0,0.0,0.0,0.0,0.0,0.0,0.0,0.0,0.0,0.0,0.0,0.0,0.0,0.0,0.0,0.0,0.0,0.0,0.0,0.0,0.0,0.0,1.711,1.7715,0.0,0.0,0.0,0.0,2.1221,2.1746,2.17,2.0844,2.0789,2.0463,1.9732,1.9819,2.066,2.2293,2.0565,1.9639,1.953,1.7463,1.6522,1.6522,1.638,1.6318,1.6346,1.6346,1.7531,1.9226,1.5784,1.4903,1.5846,1.6877,1.8093,1.9181,1.8927,1.8961,1.8995,0.0,0.0,0.0,0.0,0.0,0.0,0.0,0.0,0.0,0.0,0.0,0.0,0.0,-0.4282,-0.4404,-0.4209,-0.4003,-0.3635,-0.2959,0.0,0.0,0.0,0.0,0.0,0.0,0.0,0.0544,-0.0,0.0459,0.0353,-0.0123,0.0933,0.1667,0.2165,0.3331,0.5238,0.7858,1.2276,1.5037,1.6439,1.6804,1.7762,0.0,0.0,0.0,0.0,0.0,0.0,0.0,0.0,0.0,0.0,0.0,0.0,0.0,0.0,0.0,0.0,0.0,0.0,0.0,0.0,0.0,0.0,0.0,0.0,0.0,0.0,0.0,0.0,0.0,0.0,0.0,0.0,0.0,0.0,0.0,0.0,0.0,1.9932,1.9922,0.0,2.0731,2.1532,2.2254,2.2855,2.3569,2.3793,2.3413,2.3676,2.3332,2.2171,2.1713,2.1725,2.231,2.0565,1.9006,1.7626,1.6879,1.6522,1.6522,1.6522,1.6522,1.6522,1.6522,1.6909,1.7652,1.7772,1.7562,1.7241,1.8211,1.905,1.9705,1.9299,1.9222,1.929,0.0,0.0,0.0,0.0,0.0,0.0,0.0,0.0,0.0,0.0,0.0,-0.3907,-0.3979,-0.3402,-0.3007,-0.2987,-0.3572,-0.4086,-0.4484,0.0,0.0,0.0,0.0,0.0,0.0,-0.0929,-0.09,-0.094,-0.0898,-0.1842,-0.3544,-0.3309,-0.2976,-0.2523,-0.1505,-0.0257,0.1383,0.6005,1.0041,1.3476,1.5084,1.6572,1.7896,0.0,0.0,0.0,0.0,0.0,0.0,0.0,0.0,0.0,0.0,0.0,0.0,0.0,0.0,0.0,0.0,0.0,0.0,0.0,0.0,0.0,0.0,0.0,0.0,0.0,0.0,0.0,0.0,0.0,0.0,0.0,0.0,0.0,0.0,0.0,2.0771,2.2264,2.1803,2.1798,2.2847,2.3449,2.4052,2.47,2.5266,2.5541,2.5404,2.5188,2.4538,2.3432,2.266,2.231,2.231,2.0565,1.8612,1.6522,1.6522,1.6522,1.6522,1.6522,1.6522,1.6522,1.6522,1.6522,1.6595,1.8027,1.8561,1.8532,1.9007,1.9529,1.9993,2.0016,2.0152,2.0348,0.0,0.0,0.0,0.0,0.0,0.0,0.0,0.0,0.0,0.0,-0.3306,-0.4244,-0.3691,-0.1521,-0.0155,-0.0165,-0.2821,-0.4519,-0.4494,-0.4542,0.0,0.0,0.0,0.0,-0.2852,-0.2828,-0.2841,-0.2883,-0.2883,-0.3771,-0.5488,-0.7758,-0.8843,-0.8785,-0.7216,-0.5724,-0.4236,-0.2322,0.2305,0.8815,1.3952,1.5956,1.5934,0.0,0.0,0.0,0.0,0.0,0.0,0.0,0.0,0.0,0.0,0.0,0.0,0.0,0.0,0.0,0.0,0.0,0.0,0.0,0.0,0.0,0.0,0.0,0.0,0.0,0.0,0.0,0.0,0.0,0.0,0.0,0.0,0.0,1.9748,2.1131,2.2424,2.3577,2.3058,2.3216,2.4712,2.5652,2.6305,2.6638,2.6801,2.6809,2.6654,2.5165,2.4005,2.3236,2.2624,2.2282,2.2209,2.0532,1.8612,1.6522,1.6522,1.6522,1.6522,1.6522,1.6522,1.6522,1.6522,1.6522,1.6522,1.6522,1.7747,1.9647,1.9199,1.9449,2.0144,2.1072,2.1811,2.231,0.0,0.0,0.0,0.0,0.0,0.0,0.0,0.0,0.0,0.0,-0.2056,-0.3443,-0.4161,-0.3643,-0.325,-0.3272,-0.4006,-0.4509,-0.4491,0.0,0.0,0.0,0.0,0.0,-0.5478,-0.6173,-0.6515,-0.653,-0.6522,-0.7145,-0.826,-0.8899,-0.9474,-0.9902,-0.9541,-0.9452,-0.9562,-0.8999,-0.6655,-0.2771,0.5024,0.9286,1.127,0.0,0.0,0.0,0.0,0.0,0.0,0.0,0.0,0.0,0.0,0.0,0.0,0.0,0.0,0.0,0.0,0.0,0.0,0.0,0.0,0.0,0.0,0.0,0.0,0.0,0.0,0.0,0.0,0.0,0.0,0.0,0.0,2.0445,2.1615,2.1608,2.2126,2.3855,2.4753,2.5411,2.5853,2.7037,2.7809,2.7892,2.8435,2.8406,2.7591,2.7636,2.653,2.399,2.2867,2.1691,2.0447,1.9945,1.8612,1.6522,1.6522,1.6522,1.6522,1.6522,1.6522,1.6522,1.6522,1.6522,1.6522,1.6522,1.7747,1.9681,1.9569,2.0001,2.0831,2.172,2.2152,2.231,0.0,0.0,0.0,0.0,0.0,0.0,0.0,0.0,0.0,0.0,-0.1796,-0.3166,-0.4348,-0.4503,-0.4525,-0.4499,-0.451,-0.4268,-0.3804,0.0,0.0,0.0,0.0,-0.7005,-0.6895,-0.7533,-0.7891,-0.8006,-0.8515,-0.9226,-1.0147,-1.077,-1.1485,-1.215,-1.2382,-1.262,-1.2938,-1.292,-1.2073,-1.0168,-0.3984,0.1444,0.618,0.9404,1.176,1.3672,1.5379,1.6341,1.6541,1.521,0.0,0.0,0.0,0.0,0.0,0.0,0.0,0.0,0.0,0.0,0.0,0.0,0.0,0.0,0.0,0.0,0.0,0.0,0.0,0.0,0.0,0.0,0.0,0.0,2.0233,2.1228,2.2985,2.2486,2.2635,2.4471,2.5623,2.6489,2.704,2.7636,2.813,2.8445,2.9177,2.9325,2.8687,2.8251,2.6605,2.3489,2.3026,2.2362,2.1321,2.0228,1.9371,1.8672,1.8151,1.7127,1.5744,1.625,1.6522,1.6522,1.6522,1.6522,1.6522,1.6522,1.7229,0.0,0.0,0.0,0.0,0.0,2.1991,2.1661,0.0,0.0,0.0,0.0,0.0,0.0,0.0,0.0,0.0,0.0,0.0,-0.3139,-0.4292,-0.4435,-0.4454,-0.4424,-0.4317,-0.406,0.0,0.0,0.0,-0.7807,-0.8088,-0.8126,-0.7806,-0.8032,-0.8316,-0.8597,-0.9705,-1.0634,-1.15,-1.2923,-1.417,-1.5146,-1.5528,-1.5643,-1.5531,-1.5531,-1.5388,-1.4971,-1.2466,-0.6813,0.0474,0.4227,0.7275,0.9873,1.2427,1.3816,1.4395,1.3938,0.0,0.0,0.0,0.0,0.0,0.0,0.0,0.0,0.0,0.0,0.0,0.0,0.0,0.0,0.0,0.0,0.0,0.0,0.0,0.0,0.0,0.0,0.0,0.0,2.0585,2.1108,2.3908,2.3651,2.3822,2.548,2.6176,2.6953,2.804,2.7662,2.7647,2.8282,2.8971,2.9363,2.9458,0.0,0.0,0.0,0.0,2.3709,2.3948,2.1431,2.0722,2.1879,2.0793,1.8425,1.5154,1.6325,1.676,1.6522,1.6522,1.666,1.6873,1.6622,1.6522,1.671,1.8855,1.969,1.9925,2.1661,2.154,2.0663,0.0,0.0,0.0,0.0,0.0,0.0,0.0,0.0,0.0,-0.4295,-0.3334,-0.2991,-0.3683,-0.4195,-0.4284,-0.3808,-0.3307,-0.4353,0.0,0.0,0.0,0.0,0.0,-0.8826,-0.9714,-1.0567,-1.1312,-1.2058,-1.257,-1.3075,-1.3515,-1.4563,-1.6079,-1.7916,-1.8337,-1.9334,-2.0762,-2.0762,-2.0698,-2.0457,-1.8203,-1.3288,-0.6833,-0.2072,0.09,0.2965,0.6589,0.8511,0.9626,1.23,1.2169,1.1183,1.2797,0.0,0.0,0.0,0.0,0.0,0.0,0.0,0.0,0.0,0.0,0.0,0.0,0.0,0.0,0.0,0.0,0.0,0.0,0.0,0.0,2.0534,2.0887,2.1907,2.3933,2.5022,2.6119,2.7416,2.8146,2.832,2.7755,2.7362,2.7022,2.6782,2.6974,2.7332,2.7903,2.6387,2.5243,2.4657,2.3948,2.4415,2.6071,2.3927,2.2966,2.3236,0.0,0.0,1.7562,1.8671,1.8191,1.6522,1.6522,1.7526,1.9032,1.725,1.6522,1.671,1.8855,1.969,1.9925,2.1661,2.126,2.005,0.0,0.0,0.0,0.0,0.0,0.0,0.0,0.0,0.0,0.0,-0.4022,-0.35,-0.3194,-0.3439,-0.3468,-0.3199,-0.4745,0.0,0.0,-0.9067,0.0,0.0,0.0,-1.0427,-1.1609,-1.2336,-1.2891,-1.3273,-1.4324,-1.5059,-1.5469,-1.7051,-1.8457,-1.9796,-2.0414,-2.1311,-2.2207,-2.2524,-2.2765,-2.2672,-2.0973,-1.8458,-1.5015,-0.8914,-0.529,-0.3021,0.0498,0.278,0.4544,0.7587,0.8229,0.8435,1.2141,1.2691,1.2283,0.0,0.0,0.0,0.0,0.0,0.0,0.0,0.0,0.0,0.0,0.0,0.0,0.0,0.0,2.235,0.0,0.0,2.0772,2.0952,2.0927,2.1593,2.3365,2.5453,2.7154,2.8104,2.8766,2.8679,2.7453,2.668,2.5979,2.5301,2.5104,2.5373,2.6075,2.5379,2.4768,2.4389,2.4389,2.4945,2.6126,2.4438,2.3834,2.4268,2.2973,2.15,1.9938,1.9838,1.9208,1.8059,1.6604,1.6104,1.6237,1.5148,1.5433,1.6595,1.7666,1.8727,1.9818,2.0681,2.0447,1.9782,0.0,0.0,0.0,0.0,0.0,0.0,0.0,0.0,0.0,0.0,0.0,-0.4886,-0.3795,-0.3814,-0.4099,0.0,0.0,0.0,0.0,0.0,0.0,0.0,0.0,-1.1877,-1.3074,-1.3633,-1.3916,-1.4104,-1.5584,-1.6603,-1.7107,-1.9249,-2.0578,-2.1246,-2.2304,-2.2891,-2.3213,-2.3676,-2.3909,-2.3854,-2.2634,-2.206,-2.1307,-1.5215,-1.1286,-0.8651,-0.5812,-0.3152,-0.059,0.1986,0.3545,0.5293,1.0079,1.0722,0.9974,1.1562,1.2896,0.0,0.0,0.0,0.0,0.0,0.0,0.0,0.0,0.0,2.4176,2.3432,2.3256,2.3046,2.2408,2.1117,2.039,2.1033,2.0392,2.0532,2.2365,2.5,2.7129,2.8248,2.8963,2.8829,2.7515,2.6068,2.4894,2.4151,2.358,2.355,2.4251,2.4168,2.3933,2.358,2.4601,2.5373,2.5719,2.4657,2.4403,2.4956,2.2521,2.15,2.1649,2.037,1.9798,1.9619,1.635,1.415,1.2881,1.2881,1.4559,1.7162,1.7162,1.8194,1.969,1.969,1.969,1.969,0.0,0.0,0.0,0.0,0.0,0.0,0.0,0.0,0.0,0.0,0.0,0.0,0.0,0.0,0.0,0.0,0.0,0.0,0.0,0.0,0.0,0.0,0.0,-1.1996,-1.3518,-1.436,-1.5118,-1.5802,-1.6815,-1.7455,-1.7881,-1.9864,-2.1409,-2.2741,-2.4048,-2.5455,-2.671,-2.6772,-2.6296,-2.548,-2.4437,-2.3198,-2.1807,-1.9687,-1.7108,-1.4364,-1.2507,-0.9279,-0.5521,-0.294,-0.0399,0.2361,0.5908,0.7008,0.7188,0.8296,0.0,1.0933,0.9492,1.2148,1.6061,1.9287,2.16,2.3987,0.0,0.0,2.7079,2.8095,2.6209,2.428,2.3833,2.1511,1.9618,1.9396,1.8633,1.873,2.092,2.3257,2.5681,2.8311,2.9358,2.9448,2.8435,2.6092,2.4373,2.3795,2.263,2.2183,2.2731,2.2292,2.2517,2.3462,2.4476,2.5424,2.6231,2.6096,2.5676,2.5002,2.3144,2.2067,2.1649,2.037,1.9798,1.9531,1.5099,1.3057,1.2881,1.2881,1.5483,1.9434,1.9434,1.9543,1.969,1.969,1.969,1.969,0.0,0.0,0.0,0.0,0.0,0.0,0.0,0.0,0.0,0.0,0.0,0.0,0.0,0.0,0.0,0.0,0.0,0.0,0.0,0.0,0.0,0.0,0.0,-1.278,-1.4303,-1.5377,-1.6258,-1.6836,-1.7451,-1.8096,-1.876,-2.0163,-2.1707,-2.3295,-2.3872,-2.4825,-2.5934,-2.5635,-2.5137,-2.443,-2.3764,-2.2906,-2.1834,-2.0436,-1.8648,-1.6747,-1.5433,-1.3008,0.0,0.0,-0.5998,-0.3054,0.01,0.1576,0.268,0.5206,0.6471,0.0,0.4302,0.0,0.0,0.0,1.7824,2.1628,2.4492,2.5239,2.5368,2.5648,2.4386,2.3308,2.3657,2.03,1.7188,0.0,1.5626,1.5538,1.6455,1.8903,2.116,2.2567,2.2297,2.3541,2.747,2.4278,2.2245,2.2906,2.2775,2.261,2.2469,2.261,2.2908,2.343,2.3875,2.4679,2.5804,2.5573,2.5609,2.5899,2.4436,2.2994,2.1649,2.037,1.8862,1.7125,1.5188,1.4355,1.4277,1.3291,1.5615,1.9798,1.9798,2.0671,2.1784,2.0243,1.969,1.969,0.0,0.0,0.0,0.0,0.0,0.0,0.0,0.0,0.0,0.0,0.0,0.0,0.0,0.0,0.0,0.0,0.0,0.0,0.0,0.0,0.0,-1.1136,-1.2085,0.0,-1.4372,-1.5937,-1.6885,-1.7207,-1.7744,-1.8389,-1.9111,-2.0153,-2.1396,-2.2948,-2.3178,-2.3918,-2.4798,-2.4408,-2.3902,-2.3304,-2.2841,-2.2192,-2.1251,-1.9925,-1.8662,-1.7549,-1.6801,-1.5109,0.0,0.0,-1.033,-0.7595,-0.504,-0.3428,-0.1861,0.1016,0.1537,0.0786,-0.0994,0.0,0.0,0.6307,1.0539,1.5093,1.7233,1.9058,2.0528,2.147,2.0611,1.9707,1.9865,1.6501,0.0,1.2311,1.1575,1.1623,1.3236,1.3618,1.4156,1.5206,1.3963,1.587,2.3246,2.0795,1.9587,2.1792,2.2335,2.231,2.1805,2.2498,2.2936,2.3133,2.3334,2.4021,2.5194,2.5015,2.5392,2.6263,2.5156,2.3915,2.2505,2.0666,1.8209,1.541,1.541,1.541,1.5312,1.4082,1.6038,1.9798,1.9798,2.1363,2.337,2.1455,2.0767,2.0767,0.0,0.0,0.0,0.0,0.0,0.0,0.0,0.0,0.0,0.0,0.0,0.0,0.0,0.0,0.0,0.0,0.0,0.0,0.0,-1.0506,-1.0523,-1.0254,-1.1768,-1.2774,-1.315,-1.5489,-1.6738,-1.6748,-1.7598,-1.8232,-1.8652,-1.9668,-2.0565,-2.1523,-2.2463,-2.3419,-2.4307,-2.4318,-2.3798,-2.2921,-2.2389,-2.1347,-1.9795,-1.8545,-1.7529,-1.6772,-1.689,0.0,0.0,0.0,-1.2139,-1.006,-0.8644,-0.7302,0.0,-0.4843,-0.5509,0.0,0.0,0.0,-0.5843,-0.4481,-0.0609,0.3539,0.5951,0.889,1.232,1.6681,1.534,1.2858,1.1102,0.9269,0.7962,0.7847,0.6184,0.6962,1.2818,0.7588,0.432,0.7377,0.5866,0.7375,0.0,1.5083,1.6606,2.0641,2.0522,2.0284,2.0284,2.1119,2.1856,2.2417,2.3052,2.3728,2.4445,2.5053,2.5432,2.5517,2.4868,2.457,2.46,2.1302,1.8209,1.541,1.541,1.541,1.541,1.5352,1.7114,1.9798,1.9798,2.1363,2.3595,2.3505,2.3475,2.3475,0.0,0.0,0.0,0.0,0.0,0.0,0.0,0.0,0.0,0.0,0.0,0.0,0.0,0.0,0.0,0.0,0.0,0.0,0.0,-1.0941,-1.1152,-1.0935,-1.2351,-1.3401,-1.4033,-1.5671,-1.6656,-1.688,-1.7056,-1.7529,-1.8213,-1.8267,-1.9121,-2.0502,-1.9931,-2.017,-2.1079,-2.0393,-1.9705,-1.9091,-1.9053,-1.8506,-1.7642,-1.7012,-1.6191,-1.5497,0.0,0.0,0.0,0.0,0.0,0.0,-1.1926,0.0,0.0,-1.2686,-1.312,-1.3772,0.0,0.0,-1.2629,-1.214,-0.8249,-0.4134,-0.2356,0.014,0.281,0.5476,0.6801,0.8504,1.1796,0.6171,-0.014,-0.3896,-0.0823,0.2671,0.4311,0.4124,0.4363,0.5696,0.4331,0.0,0.0,0.0,0.0,1.8854,1.9116,1.9501,2.0837,2.2076,2.3082,2.3984,2.4223,2.4486,2.4834,2.5105,2.5293,2.5406,2.554,2.5228,2.4573,2.205,1.9993,1.8317,1.8317,1.7224,1.541,1.541,1.7113,1.9798,1.9798,2.032,2.128,2.298,2.3595,2.3595,0.0,0.0,0.0,0.0,0.0,0.0,0.0,0.0,0.0,0.0,0.0,0.0,0.0,0.0,0.0,0.0,0.0,0.0,0.0,0.0,-1.1576,-1.1606,-1.2729,-1.3704,-1.4403,-1.5776,-1.6602,-1.6831,-1.6915,-1.7195,-1.7754,-1.7239,-1.7744,-1.8929,-1.7815,-1.7785,-1.8448,-1.7803,-1.7274,-1.6831,-1.6696,-1.6421,-1.5863,-1.5235,-1.459,0.0,0.0,0.0,0.0,0.0,0.0,0.0,0.0,-1.2888,-1.3431,-1.7211,-1.8604,-2.0093,0.0,-2.442,-2.1593,-2.1846,-1.8745,-1.5295,-1.4018,-1.0962,-0.7812,-0.5686,-0.2392,0.1086,0.4235,0.0331,-0.4532,-0.8157,-0.4971,-0.1973,-0.1748,-0.1021,-0.0709,-0.1056,-0.0308,0.0,0.0,0.0,0.0,1.6431,1.7524,1.8615,2.0407,2.1947,2.3223,2.4263,2.4263,2.4478,2.4991,2.4991,2.5103,2.5263,2.5425,2.5025,2.4136,2.2731,2.1393,2.02,1.9924,1.8703,1.6946,1.6946,1.8101,1.9798,1.9798,2.0093,2.0756,2.2831,2.3595,2.3595,0.0,0.0,0.0,0.0,0.0,0.0,0.0,0.0,0.0,0.0,0.0,0.0,0.0,0.0,0.0,0.0,0.0,0.0,0.0,0.0,0.0,-1.2178,-1.3027,-1.3761,-1.4335,-1.5829,-1.6594,-1.6594,-1.7037,-1.7236,-1.7258,-1.6655,-1.6555,-1.6922,-1.6297,-1.6223,-1.6562,-1.6543,-1.6299,-1.5889,-1.543,-1.4963,-1.4486,-1.3241,0.0,0.0,0.0,0.0,0.0,0.0,0.0,0.0,0.0,0.0,-1.5237,-1.877,-2.2152,-2.5494,-2.9032,-3.0991,-3.2255,-3.2928,-3.1137,-2.9025,-2.8154,-2.3589,-1.8789,-1.596,-1.1733,-0.9032,0.0,0.0,-0.5675,-0.5548,-0.6527,-0.6718,-0.5105,-0.7522,-1.0071,0.0,0.0,0.0,0.0,0.0,0.0,1.3443,0.0,1.74,1.8772,2.0765,2.2274,2.3214,2.3293,2.3773,2.4728,2.4768,2.4899,2.503,2.4537,2.3958,2.3392,2.317,2.2314,2.0961,2.0213,1.9836,1.9798,1.9798,1.9798,1.9798,1.9798,2.0607,2.1932,2.3128,2.3551,2.3595,0.0,0.0,0.0,0.0,0.0,0.0,0.0,0.0,0.0,0.0,0.0,0.0,0.0,0.0,0.0,0.0,0.0,0.0,0.0,0.0,0.0,0.0,0.0,0.0,0.0,0.0,0.0,0.0,0.0,-1.6453,-1.6795,-1.6295,-1.6074,0.0,-1.5638,-1.5185,-1.4824,-1.4489,-1.4083,-1.3578,0.0,-1.2745,-1.2184,0.0,0.0,0.0,0.0,0.0,0.0,0.0,0.0,0.0,0.0,0.0,-1.9587,-2.3225,0.0,-2.9716,-3.2806,-3.4109,-3.4783,-3.5461,-3.3681,-3.1612,-3.1076,-2.6776,-2.2329,-2.0041,-1.6351,-1.3319,0.0,0.0,0.0,-0.7891,-0.9485,0.0,-0.7932,-0.8554,0.0,0.0,0.0,0.2142,0.5593,0.7545,0.0,0.0,1.3188,1.53,1.6103,1.9375,2.149,2.2215,2.3017,2.3757,2.4314,2.4682,2.4608,2.4289,2.4149,2.3768,2.3149,2.3122,2.2865,2.2451,2.1162,2.0338,1.9798,1.9798,1.9798,1.9798,1.9798,2.1183,2.3069,2.2815,2.3098,2.3681,0.0,0.0,0.0,0.0,0.0,0.0,0.0,0.0,0.0,0.0,0.0,0.0,0.0,0.0,0.0,0.0,0.0,0.0,0.0,0.0,0.0,0.0,0.0,0.0,0.0,0.0,0.0,0.0,0.0,0.0,0.0,-1.5533,-1.5147,-1.4569,-1.4105,-1.3569,-1.3044,0.0,0.0,0.0,0.0,0.0,0.0,0.0,0.0,0.0,0.0,0.0,0.0,0.0,0.0,-1.6373,-1.7026,-1.9535,-2.3095,-2.698,0.0,-3.3087,-3.5918,-3.654,-3.6523,-3.6956,-3.4955,-3.2424,-3.0825,-2.7221,-2.3207,-1.996,-1.7313,0.0,0.0,0.0,0.0,0.0,0.0,0.0,-0.8954,-0.9219,-0.9292,0.0,-0.267,0.0,0.7385,0.7757,0.792,0.0,1.2922,1.5333,1.4748,1.7804,2.0066,2.1232,2.2001,2.3003,2.4184,2.4166,2.4133,2.41,2.379,2.3652,2.3514,2.359,2.3314,2.2723,0.0,2.0953,2.0162,1.9911,1.9798,1.9798,1.9798,2.0904,2.2483,2.2406,2.292,2.3681,0.0,0.0,0.0,0.0,0.0,0.0,0.0,0.0,0.0,0.0,0.0,0.0,0.0,0.0,0.0,0.0,0.0,0.0,0.0,0.0,0.0,0.0,0.0,0.0,0.0,0.0,0.0,0.0,0.0,0.0,0.0,0.0,0.0,0.0,0.0,0.0,0.0,0.0,0.0,0.0,0.0,0.0,0.0,0.0,0.0,0.0,0.0,0.0,0.0,0.0,-1.8596,-1.879,-2.0241,-2.2852,-2.6161,-3.0277,-3.3098,-3.554,-3.8114,-3.8193,-3.7556,-3.7432,-3.5085,-3.2028,-2.8894,-2.5792,-2.2365,-1.8089,0.0,0.0,-1.4183,0.0,-1.0532,-1.1608,0.0,-0.9101,-0.9719,-1.0167,-1.0123,-0.9257,-0.373,0.2123,0.7502,0.6293,0.598,0.7717,1.3025,1.5459,1.3918,1.6097,1.8184,1.9982,2.074,2.1974,2.3711,2.3378,2.3485,2.4013,2.3461,2.343,2.3766,2.3903,2.338,2.241,2.2201,2.1625,2.0707,2.0047,1.9798,1.9798,1.9798,2.0346,2.1175,2.2035,2.277,2.3537,0.0,0.0,0.0,0.0,0.0,0.0,0.0,0.0,0.0,0.0,0.0,0.0,0.0,0.0,0.0,0.0,0.0,0.0,0.0,0.0,0.0,0.0,0.0,0.0,0.0,0.0,0.0,0.0,0.0,0.0,0.0,0.0,0.0,0.0,0.0,0.0,0.0,0.0,0.0,0.0,0.0,0.0,0.0,0.0,0.0,0.0,0.0,0.0,0.0,0.0,-2.072,-2.2707,-2.4765,-2.7105,-2.9729,-3.2868,-3.4559,-3.5872,-3.815,-3.8137,-3.7263,-3.6586,-3.3772,-3.0365,-2.7404,-2.3684,0.0,0.0,0.0,-1.5564,-1.5332,0.0,0.0,-1.5214,0.0,0.0,0.0,0.0,0.0,0.0,0.0,0.0,0.0,0.0,0.0,0.0,0.0,1.0265,1.1848,1.3875,1.6022,1.8186,2.0086,2.1162,2.1471,2.2237,2.2769,2.2928,2.2838,2.2743,2.2603,2.2627,2.2739,2.2987,2.2902,0.0,2.0876,2.0135,1.9798,1.9798,1.9798,2.0346,2.1175,2.1615,2.2146,2.2725,0.0,0.0,0.0,0.0,0.0,0.0,0.0,0.0,0.0,0.0,0.0,0.0,0.0,0.0,0.0,0.0,0.0,0.0,0.0,0.0,0.0,0.0,0.0,0.0,0.0,0.0,0.0,0.0,0.0,0.0,0.0,0.0,0.0,0.0,0.0,0.0,0.0,0.0,0.0,0.0,0.0,0.0,0.0,0.0,0.0,0.0,0.0,0.0,0.0,0.0,-2.1815,-2.4889,-2.7158,-3.0382,-3.3741,-3.5577,-3.6883,-3.7997,-3.936,-3.884,-3.7595,-3.6423,-3.3169,-2.9335,-2.5813,0.0,0.0,0.0,0.0,-1.5499,-1.5186,0.0,0.0,0.0,0.0,0.0,0.0,0.0,0.0,0.0,0.0,0.0,0.0,0.0,0.0,0.0,0.0,0.7859,1.0373,1.2989,1.5427,1.7383,1.9042,2.0138,2.0782,2.1024,2.1713,2.2734,2.2475,2.249,2.2922,2.3974,2.3965,2.3078,2.3078,2.2408,2.1183,2.0841,2.0338,1.9798,1.9798,2.0055,2.0446,2.067,2.171,2.3098,0.0,0.0,0.0,0.0,0.0,0.0,0.0,0.0,-1.2786,-1.4249,-1.3544,-1.2476,-1.1343,-1.0221,0.0,0.0,0.0,0.0,0.0,0.0,0.0,0.0,0.0,0.0,0.0,0.0,0.0,0.0,0.0,0.0,0.0,0.0,0.0,0.0,0.0,0.0,0.0,0.0,0.0,0.0,0.0,0.0,0.0,0.0,0.0,0.0,0.0,0.0,0.0,0.0,-2.1445,-2.4537,-2.682,-3.1335,-3.5899,-3.6776,-3.8059,-3.9438,-4.0225,-3.9469,-3.8002,-3.6144,-3.2513,-2.8372,-2.4313,-2.0921,0.0,0.0,0.0,-1.5039,-1.44,0.0,0.0,0.0,0.0,0.0,0.0,0.0,0.0,0.0,0.0,0.0,0.0,0.0,0.0,0.0,0.0,0.0,0.9279,1.2634,1.504,1.6323,1.7583,1.875,1.9913,1.9936,2.0671,2.2147,2.1943,2.2179,2.2846,2.4508,2.4377,2.2824,2.3044,2.2555,2.172,2.1033,2.0439,1.9956,1.983,1.9949,2.0188,2.0426,2.1479,2.2831,0.0,0.0,0.0,0.0,0.0,0.0,0.0,0.0,-1.2689,-1.3277,-1.2887,-1.247,-1.2274,-1.1663,0.0,0.0,0.0,0.0,0.0,0.0,0.0,0.0,0.0,0.0,0.0,0.0,0.0,0.0,0.0,0.0,0.0,0.0,0.0,0.0,0.0,0.0,0.0,0.0,0.0,0.0,0.0,0.0,0.0,0.0,0.0,0.0,0.0,0.0,0.0,0.0,0.0,-1.9748,-2.2079,-2.7798,-3.3748,-3.4579,0.0,0.0,-3.9441,-3.9141,-3.7775,-3.5342,-3.1477,-2.7233,-2.3219,0.0,0.0,0.0,-1.4329,-1.3758,-1.311,-1.2871,0.0,0.0,0.0,0.0,0.0,0.0,0.0,0.0,0.0,0.0,0.0,0.0,0.0,0.0,0.0,0.0,0.9104,1.2231,1.3892,1.3764,1.5243,1.6472,1.7342,1.9058,1.9986,2.0216,2.0933,2.1164,2.0854,2.1058,2.1492,2.2071,2.2785,2.3065,0.0,1.9586,1.9186,2.0455,1.997,2.0426,2.1455,2.246,2.1698,2.0471,0.0,0.0,0.0,0.0,0.0,0.0,0.0,0.0,-1.3315,-1.4811,-1.432,-1.3624,-1.3118,-1.2627,0.0,0.0,0.0,0.0,0.0,0.0,0.0,0.0,0.0,0.0,0.0,0.0,0.0,0.0,0.0,0.0,0.0,0.0,0.0,0.0,0.0,0.0,0.0,0.0,0.0,0.0,0.0,0.0,0.0,0.0,0.0,0.0,0.0,0.0,0.0,0.0,0.0,0.0,-1.8324,-2.2423,0.0,0.0,-3.4669,-3.6778,-3.9335,-3.9293,-3.7865,-3.5243,-3.0659,-2.6044,-2.3344,0.0,0.0,-1.4755,-1.4236,-1.3474,-1.2395,-1.2218,-1.2227,0.0,0.0,0.0,0.0,0.0,0.0,0.0,0.0,0.0,0.0,0.0,0.0,0.0,0.0,0.0,1.0829,1.2037,1.3352,1.4785,1.5475,1.6324,1.739,1.7936,1.8555,1.9253,2.0084,2.0485,2.0566,2.0566,2.0821,2.1061,2.0336,2.0643,0.0,2.1215,2.0643,2.018,2.1352,2.2083,2.2535,2.2915,2.2573,2.1908,0.0,0.0,0.0,0.0,0.0,0.0,-1.1776,-1.2561,-1.3544,-1.5293,-1.4897,-1.4203,-1.3557,-1.3027,-1.2506,-1.2014,0.0,0.0,0.0,0.0,0.0,0.0,0.0,0.0,0.0,0.0,0.0,0.0,0.0,0.0,0.0,0.0,0.0,0.0,0.0,0.0,0.0,0.0,0.0,0.0,0.0,0.0,0.0,0.0,0.0,0.0,0.0,0.0,0.0,0.0,0.0,0.0,0.0,0.0,0.0,0.0,-3.2144,-3.4955,-3.8001,-3.8569,-3.7707,-3.5105,-3.0432,-2.5853,0.0,0.0,0.0,-1.4464,-1.3758,-1.2841,-1.1706,-1.1516,-1.1318,-1.0777,0.0,0.0,0.0,0.0,0.0,0.0,0.0,0.0,0.0,0.0,0.0,0.0,0.0,0.0,1.1284,1.2109,1.3301,1.5146,1.5629,1.6204,1.7131,1.7169,1.7591,1.8481,1.9609,2.0283,2.0442,2.0517,2.0566,2.0575,1.9909,2.0264,0.0,2.153,2.1215,2.0899,2.2494,2.2823,2.2433,2.2944,2.3078,2.3078,0.0,0.0,0.0,0.0,0.0,0.0,0.0,0.0,-1.2992,-1.381,-1.386,-1.3736,-1.3526,-1.279,-1.2385,-1.2575,0.0,0.0,0.0,0.0,0.0,0.0,0.0,0.0,0.0,0.0,0.0,0.0,0.0,0.0,0.0,0.0,0.0,0.0,0.0,0.0,0.0,0.0,0.0,0.0,0.0,0.0,0.0,0.0,0.0,0.0,0.0,0.0,0.0,0.0,0.0,0.0,0.0,0.0,0.0,0.0,-2.8135,-3.2017,-3.4775,-3.6621,-3.7148,-3.4772,-3.1043,-2.6792,0.0,0.0,0.0,-1.391,-1.2745,-1.1616,-1.0965,-1.0813,-1.0395,-0.9018,-1.0323,0.0,0.0,0.0,0.0,0.0,0.0,0.0,0.0,0.0,0.0,0.0,0.0,0.0,0.9861,1.2416,1.3872,1.3878,1.514,1.5832,1.5825,1.7037,1.7684,1.7777,1.9741,2.0404,1.9991,2.0451,2.0566,2.0712,2.2616,2.328,0.0,1.942,2.0063,2.3078,2.3078,2.2113,2.0846,2.2494,2.3078,2.3078,0.0,0.0,0.0,0.0,0.0,0.0,0.0,0.0,-1.2837,-1.3777,-1.3878,-1.3722,-1.334,-1.3236,-1.3076,-1.2826,0.0,0.0,0.0,0.0,0.0,0.0,0.0,0.0,0.0,0.0,0.0,-1.1776,-1.2177,0.0,0.0,0.0,0.0,0.0,0.0,0.0,0.0,0.0,0.0,0.0,0.0,0.0,0.0,0.0,0.0,0.0,0.0,0.0,0.0,0.0,0.0,0.0,0.0,0.0,0.0,0.0,0.0,0.0,-2.9864,-3.0967,-3.0867,-2.9289,-2.5533,-2.1805,-2.0172,0.0,-1.2976,-1.3113,-1.2395,-1.1616,-1.0914,-1.0813,-1.0451,-0.9363,-0.8572,0.0,0.0,0.0,0.0,0.0,0.0,0.0,0.0,0.0,0.0,0.0,0.0,0.0,1.388,1.4715,1.5242,1.5242,1.5635,1.5832,1.5832,1.6197,1.6386,1.6386,1.8736,1.966,1.9191,2.0557,2.139,0.0,2.1603,2.1764,2.2037,2.1076,2.0782,2.1039,2.2505,2.231,2.1026,1.9998,2.0386,2.1416,0.0,0.0,0.0,0.0,0.0,0.0,0.0,0.0,-1.3007,-1.381,-1.3952,-1.3867,-1.3616,-1.3369,-1.3206,-1.3177,0.0,0.0,0.0,0.0,0.0,0.0,0.0,0.0,0.0,-1.0711,-1.1365,-1.1907,-1.2607,-1.3221,-1.3758,-1.3472,0.0,0.0,0.0,0.0,0.0,0.0,0.0,0.0,0.0,0.0,-1.5134,0.0,0.0,0.0,0.0,0.0,0.0,0.0,0.0,0.0,0.0,0.0,0.0,0.0,-1.8021,0.0,0.0,-2.6766,-2.6967,-2.5916,-2.2801,0.0,0.0,0.0,-1.2679,-1.1916,-1.1367,-1.078,-1.0128,-0.9563,-0.9411,-1.0117,-0.9004,0.0,0.0,0.0,0.0,0.0,0.0,0.0,0.0,0.0,0.0,0.0,0.0,0.0,1.5832,1.5832,1.5832,1.5832,1.5832,1.5832,1.5832,1.5832,1.5832,1.5825,1.8179,1.9011,1.8641,2.0513,2.152,2.1756,2.0934,2.0877,0.0,2.1344,2.0889,2.0339,2.187,2.1781,2.074,1.9817,1.9682,2.0068,0.0,0.0,0.0,0.0,0.0,0.0,0.0,0.0,0.0,0.0,0.0,-1.4062,-1.417,-1.3293,0.0,0.0,0.0,0.0,0.0,0.0,0.0,0.0,0.0,0.0,0.0,-1.055,-1.0895,-1.1496,-1.2511,-1.3333,-1.4009,-1.5494,-1.5377,0.0,0.0,0.0,0.0,0.0,0.0,0.0,0.0,0.0,0.0,0.0,0.0,0.0,0.0,0.0,0.0,0.0,0.0,0.0,0.0,0.0,0.0,0.0,0.0,0.0,0.0,0.0,0.0,0.0,0.0,0.0,0.0,0.0,0.0,-1.066,-0.999,-0.9636,-0.9037,-0.7794,-0.7866,-1.1015,-1.1104,0.0,0.0,0.0,0.0,0.0,0.0,0.0,0.0,0.0,0.0,0.0,0.0,0.0,1.5832,1.5832,1.5832,1.5832,1.5832,1.5832,1.5832,1.592,1.5825,1.5724,1.7962,1.8691,1.8173,2.0255,2.1006,0.0,2.0576,2.0566,2.0712,2.0644,2.0555,2.0594,2.119,2.0734,1.9965,2.1319,2.0565,1.9221,0.0,0.0,0.0,0.0,0.0,0.0,0.0,0.0,0.0,0.0,0.0,0.0,0.0,0.0,0.0,0.0,0.0,0.0,0.0,0.0,0.0,0.0,0.0,0.0,0.0,-1.2046,-1.252,-1.2471,-1.4717,-1.6083,-1.654,-1.7439,-1.7197,-1.6054,-1.5997,0.0,0.0,0.0,0.0,0.0,0.0,0.0,0.0,0.0,0.0,0.0,-1.4752,-1.4374,0.0,0.0,0.0,0.0,0.0,0.0,0.0,0.0,-1.3756,-1.3866,-1.5066,0.0,-1.7583,0.0,0.0,0.0,0.0,0.0,0.0,0.0,0.0,0.0,0.0,0.0,0.0,0.0,0.0,0.0,0.0,0.0,0.0,0.0,0.0,0.0,0.0,0.0,0.0,0.0,0.0,1.4752,1.573,1.5832,1.5832,1.5832,1.5832,1.5832,1.5832,1.6756,1.6271,1.4358,1.8367,1.9222,1.7293,2.0007,2.1551,2.2097,2.0194,2.0285,2.1593,2.0934,2.0236,1.9715,2.0916,2.0389,1.9094,2.0435,2.0216,1.9272,0.0,0.0,0.0,0.0,0.0,0.0,0.0,0.0,0.0,0.0,0.0,0.0,0.0,0.0,0.0,0.0,0.0,0.0,0.0,0.0,0.0,0.0,0.0,0.0,0.0,-1.2885,-1.3573,-1.422,-1.5818,-1.7145,-1.8149,-1.8991,-1.881,-1.7768,-1.7045,0.0,0.0,0.0,0.0,0.0,-1.5463,0.0,0.0,0.0,0.0,0.0,-1.4596,-1.4284,0.0,-1.2994,-1.269,-1.2722,0.0,0.0,0.0,0.0,-1.3221,-1.3116,-1.2625,-1.3378,-1.4256,-1.4092,-1.3597,-1.3238,0.0,0.0,0.0,0.0,0.0,0.0,0.0,0.0,0.0,0.0,0.0,0.0,0.0,0.0,0.0,0.0,0.0,0.0,0.0,0.0,0.0,0.0,0.0,1.4459,1.573,1.5832,1.5832,1.5832,1.5832,1.5832,1.5832,1.648,1.6115,1.4659,1.7966,1.8762,1.7415,1.9861,2.1223,2.1643,1.9841,1.9894,2.1298,2.0304,1.9774,1.9683,2.0616,2.031,1.935,2.028,2.0302,1.9798,0.0,0.0,0.0,0.0,0.0,0.0,0.0,0.0,0.0,0.0,0.0,0.0,0.0,0.0,0.0,0.0,0.0,0.0,0.0,0.0,0.0,0.0,0.0,0.0,-1.3436,-1.3605,-1.4393,-1.582,-1.6517,-1.7631,-1.9107,-2.0237,-2.0143,-1.8945,-1.789,0.0,0.0,0.0,0.0,0.0,-1.6067,0.0,0.0,0.0,0.0,0.0,0.0,0.0,0.0,-1.2545,-1.2525,-1.2785,-1.1889,0.0,0.0,0.0,0.0,0.0,-1.2098,-1.2594,-1.3279,-1.2924,-1.2468,-1.241,0.0,0.0,0.0,0.0,0.0,0.0,0.0,0.0,0.0,0.0,0.0,0.0,0.0,0.0,0.0,0.0,0.0,0.0,0.0,0.0,0.0,0.0,0.0,1.4172,1.5439,1.573,1.5832,1.5832,1.5832,1.5832,1.5832,1.6015,1.5772,1.5101,1.7194,1.7884,1.7343,1.9199,2.0079,2.0079,0.0,0.0,2.0323,1.9362,1.9357,1.9951,2.0322,2.0244,1.9961,2.0332,2.0508,2.0469,0.0,0.0,0.0,0.0,0.0,0.0,0.0,0.0,0.0,0.0,0.0,0.0,0.0,0.0,0.0,0.0,0.0,0.0,0.0,0.0,0.0,0.0,0.0,-1.4581,-1.4052,-1.4947,-1.5413,-1.5396,-1.7844,-1.9153,-1.947,-2.1228,-2.0943,-1.8945,-1.789,-1.6977,-1.6219,-1.6219,-1.6436,-1.6712,-1.6659,0.0,0.0,0.0,0.0,0.0,0.0,0.0,0.0,-1.3044,-1.2411,-1.1814,-1.1638,0.0,0.0,0.0,0.0,0.0,-1.2343,-1.3415,-1.3952,-1.1582,-1.1213,-1.1565,0.0,0.0,0.0,0.0,0.0,0.0,0.0,0.0,0.0,0.0,0.0,0.0,0.0,0.0,0.0,0.0,0.0,0.0,0.0,0.0,0.0,0.0,0.0,1.2818,1.4166,1.5242,1.5832,1.5832,1.5832,1.5832,1.5832,1.685,1.6206,1.377,1.6891,1.7071,1.4812,1.6884,1.7819,1.7819,0.0,1.823,1.9195,1.9045,1.9357,1.9922,1.999,1.9971,1.9922,1.999,2.0244,2.0353,0.0,0.0,0.0,0.0,0.0,0.0,0.0,0.0,0.0,0.0,0.0,0.0,0.0,0.0,0.0,0.0,0.0,0.0,0.0,0.0,0.0,0.0,-1.5666,-1.5874,-1.562,-1.647,-1.7142,-1.7559,-1.9285,-2.0428,-2.1027,-2.164,-2.0883,-1.8961,-1.8271,-1.7335,-1.6301,-1.6301,-1.6607,-1.7052,0.0,0.0,0.0,0.0,0.0,0.0,0.0,0.0,0.0,0.0,-1.2252,-1.1876,-1.096,0.0,0.0,0.0,0.0,0.0,-1.2504,-1.3132,-1.357,-1.2226,-1.2458,-1.2987,0.0,0.0,0.0,0.0,0.0,0.0,0.0,0.0,0.0,0.0,0.0,0.0,0.0,0.0,0.0,0.0,0.0,0.0,0.0,0.0,0.0,0.0,0.0,0.0,1.2716,1.4076,1.4752,1.4752,1.5439,1.5832,1.5832,1.6386,1.5865,1.4311,1.6389,1.6564,1.5035,1.6574,1.7342,1.7253,0.0,1.7415,1.8957,1.831,1.8928,2.0264,2.0264,2.0264,2.0264,2.0264,2.0072,1.9571,0.0,0.0,0.0,0.0,0.0,0.0,0.0,0.0,0.0,0.0,0.0,0.0,0.0,0.0,0.0,0.0,0.0,0.0,0.0,0.0,-1.4519,-1.5189,-1.6,-1.6609,-1.691,-1.7724,-1.8526,-1.9349,-2.0279,-2.1184,-2.204,-2.1392,-2.0266,-1.8736,-1.8424,-1.759,-1.6421,-1.6501,-1.6876,-1.7392,0.0,0.0,0.0,0.0,0.0,0.0,0.0,0.0,0.0,0.0,0.0,0.0,0.0,0.0,0.0,-1.1839,-1.2278,-1.2933,-1.2543,-1.28,-1.3097,0.0,0.0,0.0,0.0,0.0,0.0,0.0,0.0,0.0,0.0,0.0,0.0,0.0,0.0,0.0,0.0,0.0,0.0,0.0,0.0,0.0,0.0,0.0,0.0,0.0,0.0,0.0,1.1463,1.2716,1.359,1.3872,1.4854,1.5534,1.5832,1.5832,1.5538,1.5053,1.5821,1.5915,1.5379,1.6198,1.6527,1.6527,1.6191,1.7009,1.855,1.823,1.9107,2.0557,2.0449,2.041,2.042,2.0527,1.9923,1.8877,0.0,0.0,0.0,0.0,0.0,0.0,0.0,0.0,0.0,0.0,0.0,0.0,0.0,0.0,0.0,0.0,0.0,0.0,0.0,0.0,-1.4107,-1.5508,-1.5646,-1.6177,-1.7239,-1.8274,-1.8879,-1.8937,-2.0424,-2.1211,-2.1245,-2.0167,-1.904,-1.7973,0.0,-1.7503,-1.6789,-1.7101,-1.7455,-1.7726,-1.7392,0.0,0.0,0.0,0.0,0.0,0.0,0.0,0.0,0.0,0.0,0.0,0.0,0.0,-1.1688,-1.1613,-1.2015,-1.2436,-1.2318,-1.2785,-1.3184,-1.2817,0.0,0.0,0.0,0.0,0.0,0.0,0.0,0.0,0.0,0.0,0.0,0.0,0.0,0.0,0.0,0.0,0.0,0.0,0.0,0.0,0.0,0.0,0.0,0.0,0.0,0.0,1.0194,1.1361,1.2624,1.3872,1.3974,1.4555,1.5825,1.5832,1.5538,1.4963,1.5053,1.4825,1.425,1.4334,1.4334,1.4412,1.6363,1.7261,1.7585,1.9511,2.0479,2.0527,2.0117,1.9961,2.001,2.042,1.9923,1.8877,0.0,0.0,0.0,0.0,0.0,0.0,0.0,0.0,0.0,0.0,0.0,0.0,0.0,0.0,0.0,0.0,0.0,0.0,0.0,0.0,-1.4156,-1.4999,-1.5435,-1.6068,-1.696,-1.8226,-1.8894,-1.8894,-1.9942,-2.0467,-2.0424,-1.9764,-1.8995,0.0,0.0,-1.7561,-1.7126,-1.7248,-1.7368,-1.7479,-1.7344,-1.6977,0.0,0.0,0.0,0.0,0.0,0.0,0.0,0.0,-1.1188,-1.0631,0.0,-1.0847,-1.1525,-1.1161,-1.1474,-1.2004,-1.2277,-1.283,-1.3396,-1.3903,0.0,0.0,0.0,0.0,0.0,0.0,0.0,0.0,0.0,0.0,0.0,0.0,0.0,0.0,0.0,0.0,0.0,0.0,0.0,0.0,0.0,0.0,0.0,0.0,0.0,0.0,0.9998,1.0485,1.097,1.1453,1.3006,1.4166,1.4657,1.5432,1.5538,1.4963,1.4963,1.4656,1.4088,1.4088,1.4088,1.4173,1.4985,1.6041,1.7334,1.8221,1.9353,2.0547,2.0381,2.0322,2.0342,2.0508,1.9923,1.8877,0.0,0.0,0.0,0.0,0.0,0.0,0.0,0.0,0.0,0.0,0.0,0.0,0.0,0.0,0.0,0.0,0.0,0.0,0.0,0.0,-1.3755,-1.4215,-1.477,-1.5566,-1.6621,-1.7349,-1.8068,-1.8732,-1.9352,-1.9529,-1.9292,-1.8925,0.0,0.0,0.0,0.0,-1.728,-1.7166,-1.7239,-1.7455,-1.7224,-1.6876,0.0,0.0,0.0,0.0,0.0,0.0,0.0,0.0,0.0,0.0,0.0,0.0,0.0,0.0,-1.0879,-1.133,-1.1652,-1.1884,-1.2361,0.0,0.0,0.0,0.0,0.0,0.0,0.0,0.0,0.0,0.0,0.0,0.0,0.0,0.0,0.0,0.0,0.0,0.0,0.0,0.0,0.0,0.0,0.0,0.0,0.0,0.0,0.0,0.0,0.9998,0.9998,0.9998,1.2134,1.3454,1.3755,1.5012,1.5398,1.4823,1.4454,1.42,1.4088,1.4088,1.4088,1.4173,1.4824,1.5898,1.7161,1.78,1.9003,2.0361,2.0361,2.0439,2.0566,2.0566,2.0157,1.9274,0.0,0.0,0.0,0.0,0.0,0.0,0.0,0.0,0.0,0.0,0.0,0.0,0.0,0.0,0.0,0.0,0.0,0.0,0.0,-1.2388,-1.2764,-1.3171,-1.351,-1.4513,-1.6243,-1.5577,-1.6248,-1.8367,-1.8732,-1.8521,-1.7789,-1.7455,0.0,0.0,0.0,0.0,-1.728,-1.6871,-1.7126,-1.7743,-1.7068,-1.6789,-1.667,0.0,0.0,0.0,0.0,0.0,0.0,0.0,-1.016,0.0,0.0,0.0,0.0,0.0,-1.0249,-1.0284,-1.0288,-0.9838,0.0,0.0,0.0,0.0,0.0,0.0,0.0,0.0,0.0,0.0,0.0,0.0,0.0,0.0,0.0,0.0,0.0,0.0,0.0,0.0,0.0,0.0,0.0,0.0,0.0,0.0,0.0,0.0,0.0,0.9998,0.9998,0.9998,1.1263,1.2411,1.3397,1.4724,1.5097,1.4516,1.3342,1.3293,1.4088,1.4088,1.4088,1.425,1.6363,1.7039,1.6851,1.9041,1.9912,1.9912,1.9922,2.0185,2.0566,2.0566,2.0566,2.0245,0.0,0.0,0.0,0.0,0.0,0.0,0.0,0.0,0.0,0.0,0.0,0.0,0.0,0.0,0.0,0.0,0.0,0.0,0.0,-1.1659,-1.1843,-1.2532,-1.358,-1.4577,-1.5573,-1.5606,-1.6026,-1.6844,-1.7474,-1.7655,0.0,0.0,0.0,-1.7618,0.0,0.0,-1.7635,-1.728,-1.7256,-1.7415,-1.6952,-1.6659,-1.6313,0.0,0.0,0.0,0.0,0.0,0.0,0.0,0.0,0.0,0.0,0.0,0.0,-0.9311,-0.9689,-1.0176,-0.9828,0.0,0.0,0.0,0.0,0.0,0.0,0.0,0.0,0.0,0.0,0.0,0.0,0.0,0.0,0.0,0.0,0.0,0.0,0.0,0.0,0.0,0.0,0.0,0.0,0.0,0.0,0.0,0.0,0.0,0.0,1.0891,1.0386,1.1268,1.15,1.2236,1.3397,1.4532,1.4897,1.4522,1.4161,1.4011,1.4088,1.3209,1.3294,1.4159,1.5309,1.6094,1.6851,1.9041,1.9912,1.9941,2.0254,2.0449,2.0566,2.0566,2.0079,1.9316,0.0,0.0,0.0,0.0,0.0,0.0,0.0,0.0,0.0,0.0,0.0,0.0,0.0,0.0,0.0,0.0,0.0,0.0,0.0,0.0,-1.1263,-1.2092,-1.3018,-1.3934,-1.4835,-1.5584,-1.5835,-1.5525,-1.6314,0.0,0.0,0.0,-1.7579,-1.7789,0.0,-1.7278,0.0,-1.7142,-1.7118,-1.7479,-1.7126,-1.6706,-1.613,0.0,0.0,0.0,0.0,0.0,0.0,0.0,0.0,0.0,0.0,0.0,0.0,-0.9377,-0.915,-0.8913,-0.8981,0.0,0.0,0.0,0.0,0.0,0.0,0.0,0.0,0.0,0.0,0.0,0.0,0.0,0.0,0.0,0.0,0.0,0.0,0.0,0.0,0.0,0.0,0.0,0.0,0.0,0.0,0.0,0.0,0.0,0.0,1.2198,1.1609,1.1717,1.2052,1.2543,1.3094,1.4225,1.4583,1.4175,1.4057,1.4156,1.4295,1.3718,1.3778,1.4531,1.5497,1.6283,1.7028,1.8543,1.9258,1.9434,1.9697,1.9902,2.0078,2.0244,1.9908,1.926,0.0,0.0,0.0,0.0,0.0,0.0,0.0,0.0,0.0,0.0,0.0,0.0,0.0,0.0,0.0,0.0,0.0,0.0,0.0,0.0,-1.108,-1.199,-1.2363,-1.3104,-1.4265,-1.5448,-1.5525,-1.4451,-1.5329,0.0,0.0,0.0,-1.771,-1.7805,0.0,-1.706,-1.7782,-1.6725,-1.6887,-1.7766,-1.7392,-1.6827,-1.6095,-1.5257,0.0,0.0,0.0,0.0,0.0,0.0,0.0,0.0,0.0,0.0,-0.9045,-0.9964,-0.8809,-0.7379,0.0,0.0,0.0,0.0,0.0,0.0,0.0,0.0,0.0,0.0,0.0,0.0,0.0,0.0,0.0,0.0,0.0,0.0,0.0,0.0,0.0,0.0,0.0,0.0,0.0,0.0,0.0,0.0,0.0,0.0,0.0,1.3667,1.3216,1.1853,1.2769,1.3106,1.2645,1.3867,1.411,1.347,1.3336,1.3728,1.4576,1.4872,1.5158,1.5329,1.637,1.7009,1.7171,1.771,1.8153,1.8501,1.8611,1.8936,1.9336,1.9717,1.9883,1.981,0.0,0.0,0.0,0.0,0.0,0.0,0.0,0.0,0.0,0.0,0.0,0.0,0.0,0.0,0.0,0.0,0.0,0.0,0.0,0.0,-1.1642,-1.2934,-1.4045,-1.4724,-1.4906,-1.4994,-1.4687,-1.4042,-1.511,0.0,0.0,0.0,0.0,-1.817,0.0,-1.7527,-1.8136,-1.7363,-1.7351,-1.7743,-1.7167,-1.6612,-1.6068,-1.5002,-1.3946,0.0,0.0,0.0,0.0,0.0,0.0,0.0,-1.0261,-0.9898,-0.9489,-0.9745,-0.9702,0.0,0.0,0.0,0.0,0.0,0.0,0.0,0.0,0.0,0.0,0.0,0.0,0.0,0.0,0.0,0.0,0.0,0.0,0.0,0.0,0.0,0.0,0.0,0.0,0.0,0.0,0.0,0.0,0.0,0.0,0.0,1.4261,1.3598,1.3531,1.4216,1.3273,1.2744,1.2721,1.3668,1.3562,1.2282,1.3123,1.3936,1.4569,1.4506,1.5241,1.6533,1.6068,1.6194,1.679,1.7177,1.7394,1.7576,1.8716,1.9209,1.9297,1.9394,1.9629,1.9749,0.0,0.0,0.0,0.0,0.0,0.0,0.0,0.0,0.0,0.0,0.0,0.0,0.0,0.0,0.0,0.0,0.0,0.0,0.0,0.0,0.0,0.0,-1.4595,-1.5167,-1.509,-1.4596,-1.4187,0.0,0.0,0.0,0.0,0.0,0.0,-1.8808,0.0,-1.8128,-1.8316,-1.7988,-1.7626,-1.7345,-1.7517,-1.6801,-1.5578,-1.5241,-1.4101,-1.2762,-1.3095,0.0,0.0,0.0,0.0,0.0,0.0,0.0,-1.0037,-1.056,-1.0088,-0.9338,0.0,0.0,0.0,0.0,0.0,0.0,0.0,0.0,0.0,0.0,0.0,0.0,0.0,0.0,0.0,0.0,0.0,0.0,0.0,0.0,0.0,0.0,0.0,0.0,0.0,0.0,0.0,0.0,0.0,1.3413,1.4442,1.4161,1.4417,1.5514,1.4502,1.4078,1.4156,1.4255,1.3723,1.2513,1.3419,1.4275,1.4926,1.4886,1.5083,1.5452,1.5444,1.5328,1.5242,1.5942,1.6528,1.6981,1.7698,1.8299,1.8701,1.8896,1.9121,1.9268,0.0,0.0,0.0,0.0,0.0,0.0,0.0,0.0,0.0,0.0,0.0,0.0,0.0,0.0,0.0,0.0,0.0,0.0,0.0,0.0,0.0,0.0,-1.452,-1.4937,-1.4755,-1.42,-1.3835,0.0,0.0,0.0,0.0,0.0,0.0,-1.9481,0.0,-1.8851,-1.8746,-1.8447,-1.7808,-1.7142,-1.7776,-1.6827,-1.5047,-1.5424,-1.43,-1.2667,-1.3619,-1.3065,-1.1864,-1.1763,0.0,0.0,0.0,0.0,-1.0708,-1.1541,-1.0401,-0.8894,0.0,0.0,0.0,0.0,0.0,0.0,0.0,0.0,0.0,0.0,0.0,0.0,0.0,0.0,0.0,0.0,0.0,0.0,0.0,0.0,0.0,0.0,0.0,0.0,0.0,0.0,0.0,0.0,0.0,1.2835,1.3946,1.4488,1.5019,1.5613,1.5267,1.5047,1.495,1.4756,1.408,1.3106,1.4155,1.466,1.4744,1.5251,1.4936,1.4027,1.4665,1.4601,1.4027,1.4665,1.5587,1.6636,1.6636,1.7139,1.8047,1.8398,1.8434,1.8389,0.0,0.0,0.0,0.0,0.0,0.0,0.0,0.0,0.0,0.0,0.0,0.0,0.0,0.0,0.0,0.0,0.0,0.0,-1.3982,0.0,0.0,-1.3558,-1.4201,-1.4205,-1.3365,-1.3729,-1.3488,0.0,0.0,0.0,0.0,0.0,0.0,-1.9837,0.0,0.0,-2.0118,-1.8561,-1.7995,-1.8084,-1.7019,-1.594,-1.4988,-1.4777,-1.4032,-1.311,-1.3261,-1.3173,-1.291,-1.2467,-1.2303,0.0,0.0,0.0,-1.1568,-1.175,-1.127,0.0,0.0,0.0,0.0,0.0,0.0,0.0,0.0,0.0,0.0,0.0,0.0,0.0,0.0,0.0,0.0,0.0,0.0,0.0,0.0,0.0,0.0,0.0,0.0,0.0,0.0,0.0,0.0,0.0,1.0065,1.1122,1.1996,1.3155,1.3763,1.3627,1.35,1.3061,1.2067,1.3738,1.3937,1.256,1.5065,1.5054,1.2732,1.4497,1.5141,1.495,1.4243,1.4314,1.495,1.4171,1.4942,1.6636,1.6636,1.7139,1.8018,1.8076,1.7824,1.7359,0.0,0.0,0.0,0.0,0.0,0.0,0.0,0.0,0.0,0.0,0.0,0.0,0.0,0.0,0.0,-1.4162,-1.4292,-1.4332,-1.4318,-1.4429,-1.4265,-1.374,-1.3716,-1.367,-1.355,-1.3272,0.0,0.0,0.0,0.0,0.0,-2.0169,-2.1238,0.0,0.0,0.0,0.0,0.0,-1.8677,-1.8333,-1.7807,-1.6644,-1.5332,-1.5778,-1.5017,-1.3686,-1.3705,-1.3704,-1.3523,-1.2381,-1.2374,-1.2785,-1.2472,0.0,0.0,0.0,-1.1616,0.0,0.0,0.0,0.0,0.0,0.0,0.0,0.0,0.0,0.0,0.0,0.0,0.0,0.0,0.0,0.0,0.0,0.0,0.0,0.0,0.0,0.0,0.0,0.0,0.0,0.0,0.0,0.0,0.0,0.8968,0.9963,1.1588,1.2258,1.2922,1.3865,1.3789,1.3544,1.3131,1.4321,1.4584,1.3968,1.4513,1.4473,1.3939,1.3917,1.3917,1.4042,1.3807,1.4134,1.4805,1.4585,1.5367,1.6655,1.682,1.7493,1.8359,1.8359,1.7826,1.7117,0.0,0.0,0.0,0.0,0.0,0.0,0.0,0.0,0.0,0.0,0.0,0.0,0.0,0.0,0.0,0.0,-1.4684,-1.463,-1.4379,-1.4246,-1.4019,-1.3735,-1.3327,-1.3247,-1.3522,0.0,0.0,0.0,0.0,0.0,-1.8645,-2.1317,-2.2538,0.0,-2.1962,0.0,0.0,0.0,0.0,0.0,-1.7944,-1.6761,-1.5346,-1.5879,-1.526,-1.4062,-1.3763,-1.3782,-1.3692,-1.2483,-1.2468,-1.2973,-1.2676,-1.2657,0.0,0.0,0.0,0.0,0.0,0.0,0.0,0.0,0.0,0.0,0.0,0.0,0.0,0.0,0.0,0.0,0.0,0.0,0.0,0.0,0.0,0.0,0.0,0.0,0.0,0.0,0.0,0.0,0.0,0.0,0.0,0.0,0.8145,0.9091,1.0891,1.1263,1.2152,1.3587,1.3572,1.3645,1.3938,1.4812,1.523,1.523,1.4275,1.4223,1.4805,1.3826,1.3452,1.363,1.3618,1.4151,1.5051,1.5118,1.5869,1.6968,1.7169,1.7763,1.8562,1.8562,1.7986,1.7117,0.0,0.0,0.0,0.0,0.0,0.0,0.0,0.0,0.0,0.0,0.0,0.0,-1.5469,-1.4722,-1.4371,-1.5019,-1.4727,-1.4333,-1.3967,-1.3514,-1.3267,-1.3232,-1.3198,0.0,-1.2567,-1.3387,0.0,0.0,0.0,0.0,-1.9761,-2.1357,-2.2674,-2.3566,-2.2557,-2.2057,-2.1894,0.0,0.0,0.0,0.0,0.0,0.0,0.0,0.0,0.0,0.0,0.0,-1.3307,-1.3097,-1.2803,-1.2615,-1.3022,-1.3173,-1.3094,0.0,0.0,0.0,0.0,0.0,0.0,0.0,0.0,0.0,0.0,0.0,0.0,0.0,0.0,0.0,0.0,0.0,0.0,0.0,0.0,0.0,0.0,0.0,0.0,0.0,0.0,0.0,0.0,0.0,0.0,0.0,0.7505,0.8453,0.894,1.0165,1.104,1.151,1.1559,1.197,1.2795,1.4478,1.5319,1.5319,1.5366,1.4911,1.3957,1.4386,1.4815,1.5115,1.3881,1.4555,1.6392,1.5579,1.6298,1.791,1.7392,1.7763,1.8562,1.8562,1.7986,1.7117,0.0,0.0,0.0,0.0,0.0,0.0,0.0,0.0,0.0,0.0,0.0,0.0,0.0,-1.5266,-1.4569,-1.571,-1.4842,-1.4184,-1.402,-1.3506,-1.3198,-1.3198,-1.3148,-1.3336,-1.371,-1.4009,0.0,0.0,0.0,-1.899,-2.0275,-2.1782,-2.2805,-2.3369,-2.2979,-2.2453,-2.1771,-1.9902,0.0,0.0,0.0,0.0,0.0,0.0,0.0,0.0,0.0,0.0,0.0,-1.3864,-1.3374,-1.2996,-1.3604,-1.3509,-1.3094,-1.265,-1.2246,0.0,0.0,0.0,0.0,0.0,0.0,0.0,0.0,0.0,0.0,0.0,0.0,0.0,0.0,0.0,0.0,0.0,0.0,0.0,0.0,0.0,0.0,0.0,0.0,0.0,0.0,0.0,0.0,0.0,0.0,0.7086,0.8013,0.8949,1.0195,1.186,1.2126,1.29,1.4345,1.441,1.5006,1.6192,1.4815,1.4696,1.567,1.4495,1.4967,1.6608,1.5583,1.586,1.713,1.7045,1.7364,1.7979,1.8037,1.827,1.8562,1.8562,1.7986,1.7117,0.0,0.0,0.0,0.0,0.0,0.0,0.0,0.0,0.0,0.0,0.0,0.0,0.0,0.0,-1.457,-1.5342,-1.4432,-1.3801,-1.3801,-1.3874,-1.3783,-1.3459,-1.384,-1.423,-1.4592,-1.4841,0.0,0.0,0.0,0.0,0.0,-2.1997,-2.2591,-2.2743,-2.2659,-2.2357,0.0,0.0,0.0,-1.9667,0.0,0.0,-1.6723,0.0,0.0,0.0,0.0,0.0,0.0,0.0,0.0,-1.3521,-1.3939,-1.3833,-1.3438,-1.313,-1.2914,0.0,0.0,0.0,0.0,0.0,0.0,0.0,0.0,0.0,0.0,0.0,0.0,0.0,0.0,0.0,0.0,0.0,0.0,0.0,0.0,0.0,0.0,0.0,0.0,0.0,0.0,0.0,0.0,0.0,0.0,0.0,0.7804,0.823,0.9512,1.1748,1.2459,1.3356,1.4478,1.4293,1.4808,1.6013,1.4294,1.4435,1.6227,1.4872,1.5295,1.7178,1.7139,1.734,1.7693,1.8377,1.8592,1.8522,1.9103,1.9244,1.8964,1.8703,1.8199,1.7627,0.0,0.0,0.0,0.0,0.0,0.0,0.0,0.0,0.0,-1.3066,0.0,0.0,0.0,0.0,0.0,-1.3921,-1.3506,-1.3304,-1.3317,-1.4655,-1.5011,-1.4047,-1.5314,-1.5773,-1.5121,-1.5892,0.0,0.0,0.0,0.0,0.0,0.0,-2.1984,0.0,-2.1595,-2.1691,-2.1967,0.0,-2.0172,-2.0008,0.0,-1.7265,-1.6964,0.0,0.0,0.0,-1.4553,-1.4565,0.0,0.0,0.0,0.0,0.0,0.0,0.0,0.0,0.0,0.0,0.0,0.0,0.0,0.0,0.0,0.0,0.0,0.0,0.0,0.0,0.0,0.0,0.0,0.0,0.0,0.0,0.0,0.0,0.0,0.0,0.0,0.0,0.0,0.0,0.0,0.0,0.0,0.0,0.6283,0.6565,0.8097,0.829,0.9179,1.1048,1.2374,1.2999,1.2931,1.4174,1.4785,1.4785,1.4044,1.4257,1.5381,1.5473,1.5991,1.6777,1.852,1.8787,1.8173,1.952,1.9843,1.9459,2.0365,2.0428,1.9754,1.8884,1.8553,1.8564,0.0,0.0,0.0,0.0,0.0,0.0,0.0,0.0,0.0,0.0,0.0,0.0,-1.6038,-1.6201,-1.5473,-1.3546,-1.4748,-1.5599,-1.5578,-1.6418,-1.671,-1.6237,-1.6872,-1.7409,-1.7804,-1.8334,-1.9028,0.0,0.0,0.0,0.0,0.0,0.0,0.0,-2.0895,-2.0621,-2.067,-2.0051,0.0,0.0,-1.8677,-1.796,0.0,0.0,0.0,0.0,0.0,-1.6488,0.0,0.0,-1.6279,-1.5132,0.0,0.0,0.0,0.0,0.0,0.0,-1.5186,0.0,0.0,0.0,0.0,0.0,0.0,0.0,0.0,0.0,0.0,0.0,0.0,0.0,0.0,0.0,0.0,0.0,0.0,0.0,0.0,0.0,0.0,0.0,0.0,0.0,0.0,0.0,0.6806,0.7736,0.8575,1.0014,1.0849,1.0942,1.2588,1.3318,1.3041,1.4229,1.4785,1.4785,1.4859,1.5061,1.5439,1.6061,1.6465,1.6777,1.7893,1.8596,1.8988,2.0019,2.039,2.0237,1.9849,1.9603,1.9354,1.8506,1.8184,1.8164,0.0,0.0,0.0,0.0,0.0,0.0,0.0,0.0,0.0,0.0,0.0,0.0,-1.7197,-1.7884,-1.7471,-1.5531,-1.7217,-1.8004,-1.7093,-1.835,-1.8667,-1.7693,-1.8424,-1.894,-1.9153,-1.9367,-1.98,0.0,0.0,0.0,0.0,0.0,0.0,0.0,0.0,0.0,0.0,0.0,0.0,0.0,-1.9214,0.0,0.0,-1.8303,-1.7924,0.0,0.0,0.0,-1.7612,-1.7973,-1.7169,0.0,0.0,0.0,0.0,0.0,0.0,0.0,0.0,0.0,0.0,0.0,0.0,0.0,-1.4606,-1.2597,0.0,0.0,0.0,0.0,0.0,0.0,0.0,0.0,0.0,0.0,0.0,0.0,0.0,0.0,0.0,0.0,0.0,0.8452,0.7736,0.6719,0.7235,0.7949,0.8606,1.0113,1.0843,1.0662,1.1817,1.2487,1.2579,1.3427,1.4064,1.4521,1.4766,1.5068,1.543,1.6133,1.6455,1.6504,1.7735,1.8568,1.9091,2.018,2.0782,2.106,2.0424,2.0052,1.9694,1.8462,1.8008,1.8008,0.0,0.0,0.0,0.0,0.0,0.0,0.0,0.0,0.0,0.0,-1.7071,-1.7061,-1.8539,-1.9583,-1.9807,-1.8903,-2.0178,-2.0238,-1.8329,-2.0177,-2.0589,-1.8821,-1.9946,-2.0372,-1.981,-1.9701,-1.9958,0.0,0.0,0.0,0.0,0.0,0.0,0.0,0.0,0.0,0.0,0.0,0.0,-1.922,-1.9579,-1.9325,0.0,0.0,-1.8612,0.0,-1.8249,-1.8249,-1.8263,-1.8145,-1.7474,0.0,0.0,0.0,0.0,0.0,-1.5866,0.0,0.0,0.0,0.0,0.0,0.0,0.0,-1.5671,-1.5055,-1.4719,0.0,0.0,0.0,0.0,0.0,0.0,0.0,0.0,0.0,0.0,0.0,0.0,0.0,0.0,0.0,0.9795,0.913,0.8592,0.8416,0.7709,0.758,0.8434,0.924,0.9811,1.0107,1.068,1.119,1.1674,1.2335,1.3175,1.4077,1.4175,1.4678,1.543,1.5859,1.6055,1.6043,1.7632,1.833,1.8563,1.9791,2.0899,2.1737,2.1334,2.084,2.0128,1.8442,1.7794,1.7735,-1.9348,0.0,0.0,0.0,0.0,0.0,0.0,0.0,0.0,-1.9539,-1.9129,-1.9306,-2.0511,-2.0655,-2.0905,-2.15,-2.1411,-2.1147,-2.0703,-2.0927,-2.1053,-2.0975,-2.1226,-2.1512,-2.1743,-2.1363,-2.1236,0.0,0.0,0.0,0.0,0.0,0.0,0.0,0.0,0.0,0.0,0.0,0.0,-1.7813,-1.9155,0.0,-1.8864,-1.8893,-1.8855,-1.8803,-1.9185,-1.9361,-1.9244,0.0,-1.7944,-1.7611,0.0,0.0,0.0,0.0,0.0,0.0,0.0,0.0,0.0,0.0,0.0,0.0,-1.762,-1.6473,-1.514,0.0,0.0,0.0,0.0,0.0,0.0,0.0,0.0,0.0,0.0,0.0,0.0,0.0,0.0,0.0,1.0515,1.0336,0.9755,0.8475,0.824,0.8387,0.8989,0.9438,0.9495,0.9111,1.0493,1.1153,1.1015,1.2868,1.3883,1.4087,1.4834,1.5254,1.543,1.5859,1.575,1.5164,1.6086,1.6863,1.7646,1.8217,1.9412,2.0794,1.9987,1.9208,1.8305,1.7248,1.6428,1.5912,-2.0052,0.0,0.0,0.0,0.0,0.0,0.0,0.0,0.0,-2.0714,-2.0639,-2.086,-2.1674,-2.1623,-2.1754,-2.2262,-2.2007,-2.1751,-2.1501,-2.1388,-2.1306,-2.1306,-2.1306,-2.1415,-2.1661,-2.1197,-2.0959,0.0,0.0,0.0,0.0,0.0,0.0,0.0,0.0,0.0,0.0,0.0,-1.8185,-1.7827,-1.9169,0.0,-1.893,-1.9207,-1.9413,-1.96,-1.963,-1.9485,-1.9169,-1.838,-1.7907,0.0,0.0,-1.6697,-1.66,0.0,-1.7997,-1.8598,0.0,0.0,0.0,-2.0682,0.0,0.0,0.0,-1.7068,-1.5853,-1.5065,0.0,0.0,0.0,0.0,0.0,0.0,0.0,0.0,0.0,0.0,0.0,0.0,0.0,0.0,1.067,1.0122,0.9522,0.9143,0.8769,0.8724,0.8977,0.9165,0.9112,0.8818,0.9624,1.0293,1.0821,1.1912,1.3004,1.4087,1.4515,1.5,1.542,1.5635,1.5305,1.4599,1.5133,1.5432,1.557,1.6105,1.7092,1.84,1.9062,1.8736,1.7813,1.6895,1.6009,1.533,-2.0341,0.0,0.0,0.0,0.0,0.0,0.0,0.0,0.0,-2.1628,-2.1718,-2.1899,-2.2254,0.0,0.0,0.0,-2.2462,-2.2228,0.0,0.0,-2.143,-2.1023,-2.0991,-2.0991,-2.0991,-2.055,-2.0314,0.0,0.0,0.0,0.0,0.0,0.0,0.0,0.0,0.0,0.0,0.0,0.0,-1.8341,0.0,-1.9442,-1.9095,-1.953,-1.9909,-2.0158,-1.9818,-1.9536,-1.92,-1.8366,0.0,-1.7435,-1.7188,-1.687,0.0,0.0,0.0,0.0,0.0,0.0,0.0,0.0,0.0,-1.9723,0.0,0.0,0.0,-1.6663,0.0,0.0,0.0,0.0,0.0,0.0,0.0,0.0,0.0,0.0,0.0,0.0,0.0,0.0,1.0328,0.8992,0.8633,0.9799,0.8922,0.8508,0.8778,0.8917,0.9008,0.9008,0.9106,0.9799,1.1124,1.1285,1.2286,1.4204,1.4204,1.4658,1.541,1.541,1.4874,1.4001,1.4462,1.4216,1.3509,1.4144,1.5129,1.6376,1.8128,1.818,1.7319,1.6618,1.5579,1.4673,-2.0955,-2.1486,0.0,0.0,0.0,0.0,0.0,0.0,0.0,-2.2231,-2.2209,0.0,0.0,0.0,0.0,0.0,0.0,0.0,-2.3588,0.0,0.0,-2.1023,-2.0991,-2.0991,-2.0991,-2.055,-2.0314,-2.0314,0.0,0.0,0.0,0.0,0.0,0.0,-1.8893,0.0,0.0,0.0,-1.8855,0.0,-1.9442,-1.9639,0.0,-1.969,-1.9726,-1.9747,-1.9726,-2.0174,-2.0501,0.0,-1.8066,-1.7827,0.0,-1.6866,-1.734,0.0,0.0,0.0,0.0,0.0,0.0,0.0,-1.9713,0.0,0.0,0.0,-1.7192,-1.7216,0.0,0.0,0.0,0.0,0.0,0.0,0.0,0.0,0.0,0.0,0.0,0.0,0.0,0.0,0.9044,0.7165,0.7208,0.9918,0.8038,0.7336,0.8751,0.9351,0.9666,0.9666,1.0261,1.1132,1.2279,1.2908,1.37,1.4717,1.4717,1.4961,1.541,1.541,1.4569,1.3172,1.3727,1.3637,1.3012,1.3317,1.4669,1.6573,1.6817,1.6341,1.55,1.5376,1.4235,1.284,-2.1055,-2.1642,0.0,0.0,0.0,0.0,0.0,0.0,0.0,-2.2361,-2.2682,0.0,0.0,0.0,0.0,0.0,0.0,-2.2611,0.0,0.0,0.0,0.0,0.0,0.0,-2.0243,-2.0035,-1.9929,-1.9929,-1.9782,0.0,0.0,0.0,0.0,0.0,-1.9369,0.0,-1.8612,0.0,0.0,0.0,0.0,0.0,0.0,-1.969,-1.969,-1.9711,-1.9965,-1.9743,-1.9229,0.0,-1.7947,0.0,0.0,0.0,0.0,0.0,0.0,0.0,0.0,0.0,0.0,0.0,0.0,0.0,-1.7894,0.0,-1.674,0.0,0.0,0.0,0.0,0.0,0.0,0.0,-0.8352,0.0,0.0,0.0,0.0,0.0,0.0,0.0,0.4942,0.4087,0.434,0.6039,0.5055,0.5132,0.6806,0.891,0.9948,0.9814,1.0466,1.1192,1.2076,1.2388,1.3052,1.4043,1.4287,1.4629,1.5059,1.5293,1.451,1.3025,1.3268,1.2755,1.1791,1.21,1.3378,1.5188,1.5627,1.5452,1.4935,1.5159,1.3897,1.219,-2.0731,0.0,0.0,0.0,0.0,0.0,0.0,0.0,0.0,0.0,0.0,0.0,-2.4455,-2.4048,0.0,0.0,0.0,-2.3194,0.0,0.0,-2.1158,0.0,0.0,0.0,0.0,-2.0492,-2.0599,-2.0455,-2.0365,0.0,0.0,0.0,0.0,0.0,0.0,-1.9479,-1.9132,0.0,0.0,-1.9169,-1.953,-1.969,-1.969,-1.969,-1.9782,-1.9874,-2.0054,-1.9513,-1.8698,-1.8688,-1.7907,0.0,-1.7504,0.0,0.0,0.0,0.0,0.0,-1.9405,0.0,0.0,0.0,0.0,0.0,0.0,0.0,0.0,0.0,0.0,0.0,0.0,0.0,0.0,0.0,0.0,-0.646,0.0,0.0,0.0,0.0,0.0,0.0,0.0,-0.063,-0.0367,0.1738,0.1683,0.2276,0.3896,0.7349,0.9467,0.9918,1.0482,1.1116,1.1725,1.1977,1.2557,1.3413,1.3762,1.4248,1.4795,1.5098,1.4526,1.3312,1.3169,1.2428,1.1331,1.1701,1.2743,1.4347,1.5154,1.5334,1.5061,1.5171,1.4009,1.2418,-1.9945,-2.0431,0.0,0.0,0.0,0.0,0.0,0.0,0.0,0.0,0.0,0.0,0.0,0.0,0.0,0.0,0.0,-2.4999,-2.5917,0.0,-2.2932,0.0,0.0,-2.2512,0.0,0.0,-2.283,-2.2335,-2.2112,-2.2016,0.0,0.0,0.0,0.0,0.0,-1.969,-1.969,-1.969,-1.969,-1.969,-1.969,-1.969,-1.969,0.0,-1.9929,-2.0212,-1.9839,0.0,0.0,-1.8622,-1.8106,0.0,0.0,0.0,0.0,0.0,0.0,0.0,0.0,0.0,0.0,-1.8302,0.0,0.0,0.0,0.0,-1.5632,0.0,0.0,0.0,0.0,0.0,-1.0978,-0.8891,-0.8055,0.0,0.0,0.0,0.0,0.0,0.0,0.0,0.0,-0.7499,-0.7402,-0.186,-0.1707,-0.1269,0.0108,0.4415,0.786,1.0091,1.0589,1.1038,1.15,1.2401,1.2928,1.3123,1.3399,1.3975,1.4785,1.4795,1.4554,1.4112,1.3613,1.2949,1.2216,1.2632,1.3564,1.4798,1.5703,1.6048,1.6008,1.5373,1.4522,1.3564,0.0,0.0,0.0,0.0,0.0,0.0,0.0,-2.3646,0.0,0.0,0.0,0.0,0.0,0.0,-2.7653,0.0,0.0,-2.6311,-2.6176,-2.4908,0.0,0.0,0.0,-2.301,0.0,0.0,0.0,-2.2929,-2.2865,-2.2581,0.0,0.0,0.0,0.0,0.0,-1.969,0.0,0.0,0.0,0.0,0.0,-1.9959,-2.0318,0.0,-1.9782,-1.9874,-1.9747,-1.9551,0.0,-1.8803,-1.8185,-1.7504,-1.7146,-1.6909,-1.6837,-1.7188,-1.7827,-1.8458,0.0,0.0,-1.8765,-1.8224,0.0,0.0,0.0,0.0,0.0,0.0,0.0,0.0,0.0,0.0,-1.0864,-1.0124,-0.9064,-0.8813,0.0,0.0,0.0,0.0,0.0,0.0,0.0,0.0,0.0,-0.6468,-0.6437,-0.5232,-0.2248,0.1842,0.5241,0.7693,0.9753,1.0889,1.1054,1.228,1.2454,1.161,1.2898,1.3537,1.369,1.4482,1.4601,1.4213,1.3986,1.3563,1.3036,1.3163,1.3998,1.5151,1.573,1.693,1.8135,1.6642,1.5579,1.4816,-2.2003,0.0,0.0,0.0,0.0,0.0,0.0,0.0,0.0,0.0,-2.7926,0.0,-2.9729,0.0,-2.9769,0.0,-2.9066,-2.8366,-2.7637,-2.682,0.0,-2.5815,-2.5179,0.0,0.0,0.0,0.0,0.0,-2.37,-2.344,0.0,0.0,0.0,0.0,0.0,0.0,0.0,0.0,-1.969,0.0,0.0,-1.9944,0.0,0.0,-1.9839,-2.0019,0.0,-1.9479,-1.9132,-1.8727,-1.8185,-1.7504,-1.7146,-1.6795,-1.6552,-1.6909,-1.7544,-1.8185,-1.8535,-1.8612,-1.8535,-1.8185,-1.7272,0.0,-1.572,0.0,0.0,0.0,0.0,0.0,0.0,0.0,-1.1073,-1.0864,-1.0199,-1.0404,0.0,-1.3533,0.0,0.0,0.0,0.0,0.0,0.0,-1.0873,-1.0202,-0.9923,-0.8267,0.0,-0.0259,0.3349,0.5659,0.9022,1.0586,1.0115,1.1434,1.1592,1.0466,1.1891,1.2645,1.2896,1.38,1.427,1.4424,1.4269,1.3986,1.3738,1.4009,1.4641,1.544,1.6315,1.7927,1.954,1.7929,1.6981,1.6365,0.0,0.0,0.0,0.0,-2.2019,0.0,0.0,0.0,-2.7823,0.0,-2.9905,-3.1309,-3.1303,-3.1466,-3.1781,-3.2251,-3.1791,0.0,-3.0268,-3.0205,0.0,0.0,-2.7537,-2.6957,-2.4989,0.0,0.0,0.0,0.0,0.0,0.0,0.0,0.0,0.0,-2.012,0.0,-1.969,-1.969,-1.969,-1.969,-1.969,-1.9705,-1.9735,-1.969,-2.0109,-2.0617,-1.9929,-1.969,-1.9479,-1.8458,-1.8066,-1.7867,-1.6837,-1.6522,-1.6552,-1.6552,-1.7312,-1.8145,-1.8185,-1.8185,-1.8145,-1.8106,-1.7312,0.0,0.0,0.0,-1.4514,0.0,0.0,0.0,0.0,0.0,0.0,-1.1057,-1.1472,-1.2329,0.0,0.0,0.0,0.0,0.0,0.0,0.0,-1.3815,-1.3521,-1.2918,-1.2091,0.0,0.0,-0.2194,0.1865,0.4031,0.8313,1.0012,0.8752,1.0064,1.0415,0.971,1.0482,1.1405,1.2438,1.2887,1.3728,1.4778,1.4403,1.4282,1.4354,1.5178,1.5579,1.5762,1.7369,1.8859,2.0012,1.9133,1.8701,1.824,-2.367,-2.3597,-2.3532,0.0,-2.3184,-2.3324,0.0,0.0,0.0,0.0,-3.1461,-3.285,-3.2873,-3.3389,-3.3401,-3.2574,-3.2768,0.0,0.0,0.0,0.0,-3.0091,-2.9178,-2.8159,-2.7041,-2.6809,0.0,-2.6219,0.0,0.0,-2.4475,0.0,0.0,0.0,0.0,0.0,-1.969,-1.969,-1.969,-1.969,-1.969,-1.9989,-2.0393,0.0,-2.0109,-2.0617,-1.9929,-1.9442,-1.9006,-1.8341,-1.7827,-1.7394,-1.671,-1.6752,-1.7146,-1.7585,-1.8185,-1.8779,-1.9169,-1.9006,-1.8612,-1.8224,-1.7272,-1.6275,-1.572,-1.5141,0.0,0.0,0.0,0.0,0.0,0.0,0.0,0.0,-1.3871,0.0,0.0,0.0,0.0,-1.6112,0.0,0.0,-1.4468,-1.405,-1.3721,-1.3569,-1.3309,0.0,0.0,0.0,-0.3393,-0.0108,0.4992,0.7711,0.777,0.9472,0.9658,0.8249,1.0249,1.1202,1.1344,1.2837,1.3805,1.4363,1.4885,1.5291,1.5597,1.5879,1.635,1.6965,1.7385,1.8778,2.0618,2.0719,2.0346,1.982,-2.3814,0.0,0.0,-2.5655,0.0,0.0,-2.7383,0.0,0.0,-3.1309,-3.2628,0.0,-3.3884,-3.4538,-3.4678,-3.3999,-3.4175,0.0,0.0,0.0,0.0,-3.0784,-2.9751,-2.8475,-2.6877,-2.6618,0.0,-2.5727,0.0,0.0,-2.4628,0.0,0.0,0.0,0.0,-2.0197,0.0,-1.969,-1.969,-1.969,-1.969,-1.9914,0.0,-1.959,-1.9567,-1.9847,-1.9226,-1.8968,-1.8779,-1.8027,-1.7544,-1.7229,-1.6951,-1.7076,-1.7435,-1.7947,-1.8496,-1.8968,-1.9281,-1.8968,-1.8496,-1.8185,-1.7286,-1.6299,-1.572,-1.532,-1.4915,-1.4286,-1.4446,-1.4492,0.0,0.0,0.0,0.0,0.0,0.0,0.0,0.0,0.0,0.0,-1.5533,0.0,-1.5073,-1.4318,-1.4003,-1.4549,-1.4297,0.0,0.0,0.0,-0.4868,-0.1624,0.4288,0.7191,0.674,0.8916,0.9439,0.839,0.9731,1.0527,1.0857,1.206,1.3089,1.3961,1.4259,1.4887,1.5731,1.5228,1.582,1.7223,1.8161,1.9493,2.0889,2.1271,2.1381,2.1301,0.0,0.0,0.0,0.0,0.0,0.0,0.0,-3.0526,0.0,-3.3322,0.0,-3.4049,-3.459,-3.5233,-3.5588,-3.547,0.0,-3.4878,-3.3491,-3.3406,-3.2476,-3.0345,-2.9829,-2.8408,-2.5947,-2.6055,0.0,0.0,0.0,0.0,0.0,0.0,0.0,0.0,0.0,0.0,0.0,-1.9603,-1.9566,-1.9479,-1.9479,-1.9479,-1.9442,-1.8968,-1.8817,-1.8727,-1.8185,-1.8302,-1.8535,-1.7626,-1.7312,-1.7312,-1.7312,-1.7394,-1.7585,-1.8066,-1.8535,-1.8893,-1.8893,-1.8496,-1.8066,-1.8027,-1.7312,-1.6454,-1.5864,-1.572,-1.5555,-1.5017,-1.488,-1.4835,-1.4835,0.0,0.0,0.0,0.0,0.0,0.0,0.0,0.0,0.0,0.0,0.0,-1.5404,-1.4545,-1.443,-1.5499,0.0,0.0,0.0,0.0,-0.4844,-0.1404,0.5208,0.7903,0.632,0.8618,0.9548,0.9236,0.9316,0.9763,1.0646,1.113,1.211,1.3371,1.3109,1.3821,1.5105,1.4081,1.4769,1.6735,1.8677,1.9774,2.0288,2.0959,2.1748,2.2306,0.0,0.0,0.0,0.0,0.0,-3.3882,-3.3741,-3.4243,-3.4573,-3.4336,-3.5402,-3.5994,-3.5487,-3.5537,-3.5368,-3.4742,-3.4692,0.0,0.0,0.0,0.0,-3.1072,-3.037,-2.92,-2.7435,-2.6283,-2.573,0.0,0.0,0.0,0.0,0.0,0.0,0.0,0.0,0.0,-1.9043,-1.9043,0.0,-1.838,-1.838,-1.838,-1.838,-1.8302,-1.8263,-1.8185,-1.7626,-1.7504,-1.7544,-1.7353,-1.7312,-1.7312,-1.7312,-1.7907,-1.865,-1.8727,-1.8817,-1.8893,-1.8893,-1.8496,-1.7987,-1.7544,-1.7312,-1.7034,-1.6454,-1.6337,-1.6293,-1.6207,-1.5776,-1.5454,-1.5454,-1.4971,0.0,0.0,0.0,0.0,0.0,0.0,0.0,0.0,0.0,-1.4148,0.0,-1.486,0.0,0.0,0.0,0.0,0.0,0.0,-0.7978,0.0,0.6562,0.9669,0.0,0.9504,0.98,0.9438,0.9771,1.0047,1.022,1.1236,1.1867,1.2173,1.2732,1.3358,1.3911,1.3963,1.458,1.5487,1.6018,1.6515,1.7234,1.9425,2.044,2.0772,0.0,0.0,0.0,0.0,0.0,0.0,0.0,-3.8485,0.0,-3.7432,-3.6011,-3.5182,-3.5571,-3.5622,-3.5318,-3.4556,-3.4489,-3.4015,-3.2899,-3.2831,-3.2171,-3.07,-3.0094,0.0,-2.7266,-2.5985,-2.537,-2.5384,0.0,0.0,-2.3777,0.0,0.0,0.0,0.0,-2.0029,0.0,0.0,0.0,-1.8496,-1.8224,-1.8106,-1.8066,-1.7787,-1.7706,-1.7626,-1.7076,-1.7076,-1.7271,-1.6993,-1.7076,-1.7381,-1.7892,-1.8468,-1.9006,-1.9492,-1.9288,-1.8893,-1.8893,-1.8302,-1.7626,-1.7353,-1.7076,-1.6837,-1.6552,-1.6522,-1.6423,-1.6095,-1.582,-1.5297,-1.4321,-1.3871,-1.3684,0.0,0.0,0.0,0.0,0.0,0.0,0.0,0.0,0.0,0.0,0.0,0.0,0.0,0.0,0.0,0.0,0.0,-0.8009,0.0,0.0,0.0,0.76,0.0,1.0485,0.9176,0.9807,1.02,1.0354,1.092,1.1413,1.1779,1.1896,1.2468,1.3306,1.3859,1.4134,1.43,1.5152,1.5757,1.6337,1.7764,1.9065,2.0457,0.0,-3.3296,0.0,0.0,-3.4945,0.0,-4.2708,-4.2003,-4.0651,-4.0095,-3.6825,-3.4888,-3.5919,-3.5751,-3.5318,-3.4556,-3.4353,-3.3694,-3.2415,-3.2138,-3.1461,-3.0176,-2.9811,-2.8785,-2.6962,-2.5956,-2.5178,0.0,0.0,0.0,-2.3825,0.0,0.0,0.0,0.0,0.0,0.0,0.0,-1.8574,-1.8496,-1.7987,-1.7747,-1.7706,-1.7312,-1.7105,-1.7076,-1.6637,-1.6837,-1.7229,-1.6795,-1.7188,-1.7906,-1.8717,-1.9059,-1.9346,-2.0093,-1.9549,-1.8727,-1.8727,-1.7947,-1.7105,-1.7105,-1.6795,-1.6522,-1.6522,-1.638,-1.6194,-1.572,-1.5297,-1.4459,-1.2706,-1.2329,-1.2358,0.0,0.0,0.0,0.0,0.0,0.0,0.0,0.0,0.0,-1.5006,0.0,0.0,0.0,0.0,0.0,-1.18,0.0,0.0,0.0,0.0,0.48,0.6699,0.0,1.0924,0.9262,1.0002,1.0514,1.0742,1.0742,1.1113,1.168,1.1304,1.1689,1.2822,1.3296,1.3332,1.3204,1.4421,1.5178,1.5674,1.626,1.7778,1.9773,0.0,0.0,0.0,0.0,0.0,0.0,-4.3406,-4.3321,-4.2334,-4.0053,-3.8785,-3.7938,-3.7456,-3.6334,-3.5318,-3.4556,-3.3897,-3.3152,-3.2364,-3.1664,-3.0937,-3.0142,-3.0078,-2.9316,-2.774,-2.6928,-2.5814,0.0,0.0,-2.3324,0.0,0.0,0.0,0.0,0.0,-1.8983,-1.8889,-1.7881,-1.7463,-1.7394,-1.6879,-1.6637,-1.6637,-1.6595,-1.6552,-1.6552,-1.6522,-1.6837,-1.7312,-1.7229,-1.8182,-1.939,-1.9498,-1.9834,-2.0177,-2.028,-1.928,-1.8185,-1.8185,-1.7394,-1.6552,-1.6552,-1.6552,-1.6522,-1.6522,-1.6095,-1.5676,-1.5632,-1.4275,-1.2667,-1.1249,-1.0956,-1.114,-1.1711,0.0,0.0,0.0,0.0,0.0,0.0,0.0,0.0,0.0,-1.3084,0.0,0.0,-1.3505,0.0,0.0,0.0,0.0,-0.1117,0.2124,0.5308,0.8329,0.9439,1.0173,1.0601,1.1057,1.1316,1.1349,1.1349,1.1343,1.1411,1.1369,1.1592,1.2004,1.1785,1.1961,1.2412,1.2539,1.2996,1.3657,1.519,1.6338,1.7327,0.0,0.0,0.0,0.0,0.0,0.0,0.0,-4.3497,-4.3121,-4.21,-4.0788,-3.9518,-3.8374,-3.737,-3.6199,-3.4634,-3.4117,-3.3423,-3.2381,-3.1596,-3.1072,-3.0768,-3.0345,-2.982,-2.9211,-2.7291,-2.6026,0.0,0.0,0.0,0.0,0.0,-2.2538,-2.0598,-1.9823,-1.9294,-1.8887,-1.8522,-1.8154,-1.7706,-1.6837,-1.6522,-1.6522,-1.6522,-1.6522,-1.6552,-1.6879,-1.7312,-1.7827,-1.8145,-1.8849,-1.9606,-1.9606,-1.9904,-2.0314,-2.0314,-1.9244,-1.8106,-1.8106,-1.7312,-1.6522,-1.6522,-1.6238,-1.5952,-1.5952,-1.5499,-1.4858,-1.4089,-1.2506,-1.1135,-1.0574,-1.0324,-1.0342,-1.1018,0.0,0.0,0.0,0.0,0.0,0.0,0.0,0.0,0.0,0.0,0.0,0.0,0.0,0.0,0.0,0.0,0.0,-0.2291,0.0,0.4307,0.7553,0.8093,0.9002,1.0402,1.0475,1.0792,1.1423,1.1423,1.1523,1.1683,1.1503,1.179,1.2446,1.2071,1.2305,1.2866,1.3039,1.3367,1.3864,1.4684,1.5814,1.716,-4.3497,0.0,-4.3497,0.0,-4.3497,-4.3497,-4.3497,-4.3497,-4.3497,-4.3497,-4.2414,-4.1061,-3.9529,-3.8165,-3.6774,-3.5379,-3.4658,-3.3897,-3.3,-3.2036,-3.141,-3.1207,-3.07,0.0,-2.9844,-2.7914,-2.6531,-2.5735,-2.4979,0.0,0.0,-2.3273,-2.2192,-2.0713,-2.0353,-1.9921,-1.9401,-1.9197,-1.8796,-1.8261,-1.7346,-1.6923,-1.6785,-1.6948,-1.681,-1.6577,-1.7157,-1.7664,-1.8185,-1.8535,-1.9185,-1.9798,-1.9798,-2.0008,-2.028,-2.0128,-1.9133,-1.8066,-1.7907,-1.705,-1.6238,-1.6238,-1.5776,-1.532,-1.532,-1.4721,-1.3768,-1.233,-1.1206,-1.0346,-1.0188,-0.9874,-0.9853,-1.0351,-1.0438,0.0,0.0,-1.1076,0.0,0.0,-1.3096,-1.3371,-1.3399,-1.3339,0.0,0.0,0.0,0.0,0.0,0.0,0.0,-0.2732,0.0481,0.358,0.6554,0.7168,0.8131,0.94,0.9959,1.0532,1.1249,1.1537,1.1797,1.1991,1.1864,1.2171,1.2815,1.2619,1.2872,1.3367,1.3661,1.3955,1.4262,1.4636,1.5556,1.6646,-4.3497,-4.3497,-4.3497,-4.3497,-4.3497,-4.3497,-4.3497,-4.3497,-4.3497,-4.3497,-4.3479,-4.2812,-4.1047,-3.8434,-3.6903,-3.7043,-3.5487,-3.4472,-3.4455,-3.3085,-3.1952,0.0,0.0,-3.0566,-2.9263,-2.9173,-2.7591,-2.4405,0.0,0.0,-2.1739,-2.1713,-2.2075,-2.2611,-2.1437,-2.0827,-2.0623,-1.9567,-1.9024,-1.8836,-1.839,-1.7852,-1.7438,-1.7978,-1.7488,-1.6597,-1.7162,-1.7699,-1.8106,-1.8106,-1.9096,-2.028,-2.028,-2.0314,-2.0196,-1.9748,-1.8873,-1.7987,-1.7463,-1.6489,-1.5632,-1.5632,-1.5141,-1.4698,-1.4698,-1.3737,-1.2351,-1.0646,-1.0505,-1.0508,-0.9846,-0.9679,-0.9686,-0.9737,-1.0401,0.0,0.0,-1.1233,0.0,-1.2438,-1.2565,-1.2573,-1.2525,-1.233,0.0,0.0,0.0,0.0,0.0,0.0,-0.7509,-0.1903,0.0934,0.3526,0.5789,0.696,0.7584,0.7851,0.9804,1.0777,1.0852,1.1835,1.2291,1.2311,1.2605,1.2808,1.2849,1.3073,1.3373,1.3667,1.3968,1.4262,1.4583,1.517,1.5391,1.5438,-4.3497,-4.3497,-4.3497,-4.3497,-4.3497,-4.3497,-4.3497,-4.3497,-4.3497,-4.3497,-4.3497,-4.3281,-4.2721,-4.0749,-3.8521,0.0,-3.6197,-3.5757,0.0,-3.3288,-3.2391,-3.1952,-3.1048,-3.0377,-2.9947,-2.8705,-2.752,-2.6525,0.0,-2.4671,-2.2996,-2.2673,-2.1887,-2.0798,-2.134,-2.0809,-1.9578,-2.0124,-1.9804,-1.8937,-1.8397,-1.8103,-1.7928,-1.7714,-1.7413,-1.7118,-1.7269,-1.7442,-1.7666,-1.8419,-1.8954,-1.9398,-1.9788,-2.0089,-2.0128,-1.9346,-1.8636,-1.7987,-1.7463,-1.6704,-1.6066,-1.6066,-1.5519,-1.4824,-1.4195,-1.2677,-1.12,-1.0669,-1.0393,-1.0205,-1.004,-1.0147,-1.0214,-1.0013,-0.9617,-0.9374,-0.9549,0.0,-0.9773,-0.9888,-1.0753,-1.096,-0.9985,-1.0205,0.0,0.0,0.0,0.0,0.0,0.0,-0.7684,-0.2431,0.0767,0.3898,0.6964,0.6663,0.7297,0.8846,0.8765,0.9596,1.1147,1.2357,1.2919,1.2926,1.3026,1.3173,1.3367,1.3467,1.3801,1.4249,1.4349,1.5189,1.6267,1.5593,1.6075,1.6908,-4.3497,-4.3497,-4.3497,-4.3497,-4.3497,-4.3497,-4.3497,-4.3497,-4.3497,-4.3497,-4.3497,-4.3497,-4.3497,-4.2073,0.0,-3.7492,-3.7094,-3.6552,-3.5537,-3.4167,-3.2942,-3.1976,-3.1156,-3.0473,-3.0032,-2.8605,-2.7628,-2.7148,-2.559,-2.4552,-2.3984,-2.3171,-2.2265,-2.1312,-2.2178,-2.1744,-2.0418,-2.0969,-2.0598,-1.9627,-1.8827,-1.8392,-1.8213,-1.8033,-1.7593,-1.7125,-1.7695,-1.7773,-1.7706,-1.838,-1.8727,-1.8974,-1.9281,-1.9566,-1.9627,-1.8822,-1.8391,-1.8016,-1.7486,-1.6794,-1.6275,-1.6275,-1.5513,-1.443,-1.3348,-1.1921,-1.0806,-1.0523,-1.0368,-1.0219,-0.9842,-0.9989,-0.9882,-0.9285,-0.8591,-0.8277,-0.877,0.0,-0.8771,0.0,0.0,-0.9758,-0.8639,-0.8977,-0.9508,0.0,0.0,0.0,0.0,-1.0306,-0.7763,-0.2046,0.1861,0.4827,0.6904,0.6382,0.684,0.8161,0.8385,0.9493,1.1283,1.2595,1.3213,1.322,1.3327,1.348,1.3579,1.3881,1.4255,1.4784,1.5313,1.6274,1.7264,1.6558,1.6872,1.7505,-4.3497,-4.3497,-4.3497,-4.3497,-4.3497,-4.3497,-4.3497,-4.3497,-4.3497,-4.3497,-4.3497,-4.3497,-4.3497,-4.2523,-4.1375,-4.0204,0.0,0.0,-3.7077,-3.552,-3.3667,-3.158,-3.145,-3.0787,-2.9534,-2.8865,-2.785,-2.6587,-2.4732,-2.4088,-2.4552,-2.3385,-2.3086,-2.3551,-2.3595,-2.3238,-2.2547,-2.1939,-2.1272,-2.0579,-1.9436,-1.8694,-1.8239,-1.8721,-1.7913,-1.6764,-1.8269,-1.8454,-1.8001,-1.8123,-1.8478,-1.8874,-1.8961,-1.8934,-1.8796,-1.8315,-1.8205,-1.8157,-1.7606,-1.6848,-1.6233,-1.6233,-1.5123,-1.3659,-1.2304,-1.1492,-1.0838,-1.0201,-1.0305,-1.0238,-0.9396,-0.9204,-0.8856,-0.7819,-0.7421,-0.7448,-0.8066,-0.8406,-0.8751,-0.9193,-0.9282,-0.8959,-0.8117,-0.8314,-0.8429,0.0,0.0,0.0,0.0,-0.9767,-0.7171,-0.1016,0.3834,0.6225,0.6044,0.62,0.6281,0.6373,0.8617,1.0204,1.1175,1.2647,1.3273,1.3287,1.3561,1.3592,1.3714,1.4289,1.4696,1.517,1.6509,1.7286,1.7684,1.7598,1.7591,1.7505,-4.3497,0.0,-4.3497,-4.3497,-4.3497,-4.3497,-4.3497,-4.3497,-4.3497,-4.3497,-4.3497,-4.3497,-4.3497,-4.2752,-4.17,-4.0221,-3.9089,-3.8075,-3.7144,-3.5994,-3.4822,-3.3631,-3.2158,-3.0822,-2.9549,-2.891,-2.7921,-2.6587,-2.6108,-2.545,-2.4567,-2.4313,-2.3689,-2.292,-2.3377,-2.2728,-2.1261,-2.156,-2.0812,-1.9387,-1.9119,-1.8694,-1.8154,-1.7911,-1.7536,-1.7232,-1.7626,-1.7367,-1.7093,-1.8354,-1.8615,-1.8517,-1.9328,-1.93,-1.8963,-1.8831,-1.8808,-1.8702,-1.8143,-1.7333,-1.6673,-1.6673,-1.4962,-1.3169,-1.2804,-1.1669,-1.0504,-0.9686,-0.9551,-0.9332,-0.8484,-0.8291,-0.809,-0.7491,-0.6847,-0.6808,-0.7712,-0.7499,-0.7433,0.0,-0.7973,-0.7409,-0.5848,-0.57,-0.6647,-0.8743,0.0,-0.7412,-0.7909,-0.437,-0.1836,-0.081,0.3826,0.63,0.6203,0.6349,0.6481,0.6597,0.8972,1.0288,1.0619,1.2889,1.3881,1.3881,1.3948,1.3981,1.4008,1.4369,1.4696,1.5087,1.5636,1.6572,1.7598,1.6574,1.685,1.7404,-4.5681,-4.4507,-4.3956,-4.5443,-4.447,-4.3497,-4.3497,-4.3497,-4.3497,-4.3497,-4.3497,-4.3497,-4.3497,-4.2696,-4.1768,-4.0938,-4.001,-3.9191,-3.8497,-3.6671,-3.5115,-3.4053,-3.278,-3.129,-2.9602,-2.8936,-2.8083,-2.7036,-2.6737,-2.6078,-2.5076,-2.4716,-2.4075,-2.3098,-2.3157,-2.2634,-2.1657,-2.1403,-2.0695,-1.9746,-1.922,-1.8844,-1.8518,-1.8231,-1.7969,-1.7844,-1.8306,-1.8143,-1.7753,-1.8689,-1.8837,-1.8679,-1.9245,-1.9243,-1.9037,-1.9269,-1.9166,-1.8878,-1.824,-1.7639,-1.6906,-1.5842,-1.4308,-1.2887,-1.2512,-1.1255,-0.9959,-0.9503,-0.9046,-0.8514,-0.765,-0.7363,-0.7007,-0.6332,-0.6224,-0.6474,-0.7284,-0.7373,-0.7396,-0.7601,-0.6777,-0.5474,-0.3811,-0.3742,-0.48,-0.7203,-0.8201,-0.8473,-0.7933,-0.2688,0.0979,0.2404,0.5061,0.645,0.6356,0.7053,0.7663,0.8332,1.0141,1.1079,1.1205,1.3174,1.4162,1.4282,1.4282,1.4362,1.4509,1.4803,1.5017,1.5281,1.6118,1.6593,1.6706,1.5967,1.5853,1.5637,-4.8306,-4.6104,-4.5076,-4.7829,-4.603,-4.4213,-4.4213,-4.3809,-4.3497,-4.3497,-4.3497,-4.3497,-4.3497,-4.2639,-4.2062,-4.2062,-4.115,-4.0466,-4.0121,-3.7415,-3.5155,-3.3649,-3.3182,-3.1882,-2.9663,-2.8831,-2.8158,-2.7625,-2.7006,-2.6408,-2.5749,-2.5181,-2.4462,-2.3703,-2.3109,-2.2747,-2.2455,-2.1313,-2.0706,-2.044,-1.9395,-1.8933,-1.8893,-1.8874,-1.8601,-1.8346,-1.9309,-1.9328,-1.8878,-1.9047,-1.906,-1.8993,-1.9105,-1.9033,-1.902,-1.9506,-1.928,-1.878,-1.8187,-1.7619,-1.6733,-1.4616,-1.3449,-1.2669,-1.1899,-1.0575,-0.9489,-0.922,-0.855,-0.7801,-0.6877,-0.64,-0.5943,-0.5126,-0.5666,-0.6355,-0.6919,-0.7408,-0.7649,-0.7419,-0.5693,-0.3849,-0.2076,-0.2151,-0.2909,-0.4501,-0.8263,-1.0078,-0.9049,-0.3089,0.2211,0.6307,0.6585,0.6701,0.6859,0.8016,0.9169,1.0305,1.1541,1.2171,1.2254,1.36,1.4309,1.4589,1.4589,1.473,1.499,1.5087,1.5107,1.5219,1.6378,1.6175,1.5308,1.5263,1.4496,1.3379,-4.8306,-4.7902,-4.7719,-4.8214,-4.7902,-4.7572,-4.7572,-4.5241,-4.3497,-4.3497,-4.3497,-4.3497,-4.3497,-4.3356,-4.3232,-4.3232,-4.3069,-4.2167,-4.0204,-3.8058,-3.5871,-3.3716,-3.3182,-3.1882,-2.9663,-2.8368,-2.773,-2.7625,-2.752,-2.7081,-2.6437,-2.6333,-2.5612,-2.4361,-2.3778,-2.2901,-2.1749,-2.1057,-2.0187,-1.9282,-1.9058,-1.8744,-1.8317,-1.8324,-1.8251,-1.8267,-1.8913,-1.8786,-1.8472,-1.9396,-1.9346,-1.9081,-1.951,-1.9248,-1.8778,-1.8862,-1.8651,-1.845,-1.8555,-1.7126,-1.5332,-1.3853,-1.2941,-1.2114,-1.1376,-1.0529,-0.9402,-0.7803,-0.7473,-0.7157,-0.6026,-0.5514,-0.5321,-0.5298,-0.5817,-0.6207,-0.6335,-0.6731,-0.6465,-0.5122,-0.5149,-0.3951,-0.0632,-0.0397,-0.056,-0.0807,-0.4428,-0.8159,-1.1514,-0.4055,0.2316,0.6869,0.6819,0.7221,0.8354,0.9374,1.014,1.059,1.1623,1.2271,1.2685,1.3889,1.4616,1.4897,1.4897,1.4917,1.4894,1.4044,1.3677,1.3683,1.2869,1.3025,1.3549,1.3432,1.2808,1.221,-4.6305,-4.4993,-4.3872,-4.3872,-4.4903,-4.57,-4.57,-4.4452,-4.3497,-4.3497,-4.3497,-4.3497,-4.3497,-4.3497,-4.3014,-4.1793,-4.1664,-4.1223,-4.0171,-3.9208,-3.7513,-3.4804,-3.3786,-3.2463,-3.0739,-2.9715,-2.8839,-2.8128,-2.8128,-2.759,-2.6587,-2.6587,-2.6083,-2.5033,-2.4097,-2.3117,-2.2136,-2.1185,-2.0246,-1.9447,-1.9447,-1.9296,-1.9058,-1.9058,-1.9058,-1.9095,-1.9346,-1.9284,-1.9145,-1.9635,-1.9648,-1.9383,-1.9233,-1.898,-1.8608,-1.8232,-1.7924,-1.7636,-1.7356,-1.6194,-1.4711,-1.3163,-1.2049,-1.1206,-1.0623,-0.9569,-0.8471,-0.7612,-0.7123,-0.6298,-0.46,-0.4812,-0.5266,-0.541,-0.5932,-0.6354,-0.6572,-0.7089,-0.6834,-0.5079,-0.349,-0.1858,-0.0165,-0.0,-0.0,-0.0,-0.1493,-0.3338,-0.5371,-0.0679,0.3598,0.698,0.755,0.8733,1.0624,1.124,1.1969,1.2724,1.3367,1.3779,1.4021,1.4573,1.4923,1.5197,1.5197,1.4904,1.4378,1.3794,1.3438,1.3274,1.2582,1.2277,1.2125,1.0712,0.9132,0.7609,-4.3538,-4.166,-4.007,-4.007,-4.1534,-4.2716,-4.2716,-4.2716,-4.2716,-4.2716,-4.2716,-4.2716,-4.2716,-4.2716,-4.2003,-4.0254,-4.007,-4.007,-4.007,-4.007,-3.9056,-3.6755,-3.4808,-3.316,-3.1878,-3.1017,-3.0057,-2.9048,-2.8761,-2.8056,-2.7051,-2.6901,-2.6445,-2.576,-2.4431,-2.352,-2.3,-2.138,-2.0507,-2.0233,-1.9952,-1.9798,-1.9798,-1.9798,-1.9886,-1.9987,-1.9849,-1.9886,-1.9987,-1.9849,-1.9783,-1.9584,-1.891,-1.8612,-1.8324,-1.7411,-1.6877,-1.6363,-1.5537,-1.4683,-1.3636,-1.2094,-1.0949,-1.014,-0.9564,-0.8612,-0.7772,-0.7517,-0.6832,-0.567,-0.3505,-0.3685,-0.4469,-0.5418,-0.5945,-0.6439,-0.673,-0.753,-0.7401,-0.5574,-0.22,-0.0,-0.0,0.1029,0.1712,0.1887,0.1461,0.1211,0.1139,0.3249,0.5566,0.786,0.8755,1.0203,1.2416,1.297,1.3649,1.4629,1.4856,1.4997,1.5064,1.5064,1.5224,1.5498,1.5206,1.4772,1.4292,1.336,1.2919,1.2674,1.1356,1.0749,1.0455,0.8449,0.5786,0.3095,-4.0409,-4.0223,-4.007,-4.007,-4.0254,-4.0336,-4.0336,-4.0336,-4.0336,-4.0336,-4.0336,-4.0336,-4.0336,-4.0336,-4.0303,-4.0121,-4.007,-4.007,-4.007,-4.007,-3.9969,-3.9766,-3.6208,-3.3713,-3.2558,-3.1198,-3.0465,-3.0448,-2.9159,-2.8492,-2.8442,-2.7799,-2.7151,-2.639,-2.5026,-2.4415,-2.4199,-2.1757,-2.1093,-2.1548,-2.0309,-1.9798,-1.9798,-1.9798,-2.0137,-2.058,-1.9987,-2.015,-2.0567,-1.9987,-1.965,-1.9357,-1.8869,-1.8306,-1.7593,-1.6327,-1.536,-1.4513,-1.3501,-1.2341,-1.1193,-1.0323,-0.952,-0.8783,-0.8285,-0.8198,-0.7932,-0.6922,-0.6465,-0.5668,-0.3519,-0.1601,-0.1595,-0.5342,-0.5997,-0.6122,-0.6304,-0.7497,-0.7647,-0.5601,-0.2162,-0.0,-0.0,0.398,0.6796,0.7397,0.5146,0.3662,0.3391,0.5788,0.8095,1.0274,1.0423,1.1213,1.2774,1.3873,1.4568,1.493,1.495,1.5104,1.5364,1.5364,1.5524,1.5697,1.453,1.4617,1.5422,1.2198,1.1163,1.1173,0.6501,0.6105,0.8185,0.7403,0.4259,0.0295,-3.7616,-3.8816,-4.007,-4.007,-4.007,-4.007,-4.007,-4.007,-4.007,-4.007,-4.007,-4.007,-4.007,-4.007,-4.007,-4.007,-4.007,-4.007,-4.007,-4.007,-4.007,-4.007,-3.7481,-3.5552,-3.4466,-3.3986,-3.308,-3.1845,-3.0451,-2.9574,-2.9219,-2.8127,-2.7458,-2.7137,-2.6184,-2.5089,-2.3917,-2.2485,-2.1367,-2.0502,-1.9989,-2.0012,-2.0338,-2.0338,-2.069,-2.1104,-2.0539,-2.0529,-2.0523,-1.9503,-1.9234,-1.9186,-1.8092,-1.7368,-1.6654,-1.5106,-1.4147,-1.3393,-1.2174,-1.1661,-1.1351,-1.0461,-0.9026,-0.7957,-0.8147,-0.7732,-0.7114,-0.6548,-0.4294,-0.2134,-0.1311,-0.0562,-0.0479,-0.2055,-0.4513,-0.6278,-0.6499,-0.6531,-0.6402,-0.5972,0.0548,0.493,0.5002,0.506,0.5895,0.7577,0.6992,0.6406,0.6109,0.7777,0.9396,1.094,1.1836,1.2703,1.3798,1.4691,1.5117,1.5237,1.5418,1.5558,1.5665,1.5665,1.524,1.4657,1.4948,1.411,1.2433,0.993,0.9111,0.9146,0.6837,0.4712,0.3012,0.2817,0.1573,-0.0,-3.7338,-3.8652,-4.007,-4.007,-4.007,-4.007,-4.007,-4.007,-4.007,-4.007,-4.007,-4.007,-4.007,-4.007,-4.007,-4.007,-3.9209,-3.9049,-4.002,-4.007,-4.007,-4.007,-3.8464,-3.7094,-3.6096,-3.5813,-3.4856,-3.321,-3.1639,-3.0689,-3.0188,-2.8849,-2.815,-2.7889,-2.7132,-2.5983,-2.4479,-2.3339,-2.2126,-2.0923,-2.0494,-2.0564,-2.097,-2.097,-2.1267,-2.1669,-2.0828,-2.0674,-2.0569,-1.9215,-1.893,-1.8857,-1.7413,-1.6235,-1.5182,-1.4247,-1.3527,-1.2755,-1.1526,-1.1186,-1.0917,-0.9821,-0.8337,-0.7227,-0.7708,-0.6678,-0.5797,-0.6376,-0.3062,-0.0,-0.0,-0.0,-0.0,-0.0,-0.2418,-0.4942,-0.6624,-0.6283,-0.4894,-0.2158,0.3987,0.7999,0.8041,0.6317,0.5913,0.761,0.7903,0.808,0.8339,0.9842,1.0997,1.1833,1.3197,1.4172,1.4796,1.5197,1.5444,1.5531,1.5732,1.5635,1.5242,1.5242,1.4675,1.3732,1.4019,1.34,1.2038,0.9088,0.6961,0.5403,0.5043,0.2912,-0.0,-0.0,-0.0,-0.0,-4.007,-4.007,-4.007,-4.007,-4.007,-4.007,-4.007,-4.007,-4.007,-4.007,-4.007,-4.007,-4.007,-4.007,-4.007,-4.007,-3.7279,-3.6814,-3.9901,-4.007,-4.007,-4.007,-3.914,-3.8142,-3.711,-3.6146,-3.527,-3.4624,-3.2546,-3.1559,-3.1564,-3.0228,-2.9235,-2.8607,-2.7842,-2.7155,-2.6361,-2.4286,-2.3382,-2.3273,-2.2018,-2.1493,-2.1506,-2.1493,-2.1832,-2.2131,-2.0718,-2.057,-2.0794,-1.9377,-1.8703,-1.8268,-1.6831,-1.4904,-1.326,-1.3978,-1.3492,-1.2575,-1.1738,-1.067,-0.9516,-0.8022,-0.7111,-0.6742,-0.682,-0.4855,-0.3884,-0.6525,-0.3309,-0.0,-0.0,-0.0,-0.0,-0.0,-0.0,-0.1618,-0.6323,-0.7003,-0.3263,0.6781,0.7976,0.8037,0.7973,0.7822,0.778,0.8035,0.7925,0.8386,0.9714,1.1966,1.3223,1.3223,1.4596,1.5398,1.5398,1.5398,1.5545,1.5825,1.5825,1.5146,1.3872,1.3878,1.3636,1.304,1.1358,1.2595,1.5351,1.0087,0.4816,-0.0,-0.0,-0.0,-0.0,-0.0,-0.0,-0.0,-4.007,-4.007,-4.007,-4.007,-4.007,-4.007,-4.007,-4.007,-4.007,-4.007,-4.007,-4.007,-4.007,-4.007,-4.007,-4.007,-3.9279,-3.9102,-4.002,-3.9418,-3.9348,-4.007,-3.98,-3.8836,-3.7127,-3.7178,-3.6595,-3.5316,-3.3746,-3.2994,-3.2951,-3.0691,-2.9715,-2.9945,-2.8299,-2.6934,-2.5713,-2.4653,-2.3364,-2.2031,-2.1655,-2.1945,-2.2539,-2.1531,-2.1777,-2.233,-2.0557,-2.0023,-1.9873,-1.8542,-1.7811,-1.7089,-1.5103,-1.4229,-1.377,-1.3367,-1.2563,-1.1708,-1.0648,-0.9649,-0.8713,-0.8141,-0.736,-0.6662,-0.6751,-0.4834,-0.2948,-0.2253,-0.0999,-0.0,-0.0,-0.0,-0.0,-0.0,0.3181,0.516,0.3692,0.1862,0.178,0.4787,0.7953,0.9355,0.8113,0.96,1.0347,0.9437,1.021,1.0882,1.1269,1.2835,1.3649,1.3649,1.498,1.5214,1.4343,1.5214,1.5259,1.4459,1.4459,1.3782,1.2528,1.3169,1.2715,1.1466,1.3446,1.2773,0.9875,0.462,0.1402,-0.0,-0.0,-0.0,-0.0,-0.0,-0.0,-0.0,-4.007,-4.007,-4.007,-4.007,-4.007,-4.007,-4.007,-4.007,-4.007,-4.007,-4.007,-4.007,-4.007,-4.007,-4.007,-4.007,-4.007,-4.007,-4.007,-3.839,-3.7646,-3.8327,-3.8623,-3.8454,-3.7719,-3.7838,-3.7313,-3.6079,-3.4705,-3.398,-3.3964,-3.1781,-3.0856,-3.0949,-2.944,-2.7788,-2.6174,-2.5758,-2.4366,-2.2485,-2.2485,-2.2887,-2.3304,-2.2065,-2.2147,-2.2669,-2.0807,-1.9944,-1.9533,-1.8092,-1.6824,-1.5695,-1.4448,-1.3658,-1.306,-1.2569,-1.1754,-1.0756,-0.9771,-0.9052,-0.8459,-0.799,-0.7346,-0.685,-0.6845,-0.5711,-0.3776,-0.0651,-0.0,0.0665,0.2791,0.3203,0.2828,0.1751,0.4326,0.6761,0.7875,0.6614,0.5832,0.6523,0.8931,1.0349,0.9632,1.0984,1.1556,1.0779,1.1945,1.2716,1.2716,1.398,1.4459,1.3878,1.4657,1.458,1.3642,1.4424,1.4424,1.3642,1.3642,1.2975,1.1933,1.2469,1.1584,0.9697,1.1829,0.9762,0.4551,0.1313,-0.0,-0.0,-0.0,-0.0,-0.0,-0.0,-0.0,-0.0,-4.007,-4.007,-4.007,-4.007,-4.007,-4.007,-4.007,-4.007,-4.007,-4.007,-4.007,-4.007,-4.007,-4.007,-4.007,-4.007,-3.985,-3.9679,-3.9679,-3.7055,-3.5546,-3.5673,-3.6194,-3.7059,-3.8202,-3.7862,-3.732,-3.6608,-3.5338,-3.4688,-3.4688,-3.3276,-3.2306,-3.1762,-3.0849,-2.9289,-2.7395,-2.728,-2.6056,-2.4179,-2.4079,-2.4054,-2.3991,-2.2815,-2.2721,-2.3001,-2.1167,-2.0191,-1.9551,-1.7719,-1.5905,-1.4411,-1.448,-1.3087,-1.1566,-1.1799,-1.1044,-0.994,-0.9122,-0.8828,-0.852,-0.7626,-0.7302,-0.7075,-0.6844,-0.6987,-0.5714,-0.0952,0.0388,0.216,0.7113,0.8031,0.719,0.4726,0.4318,0.5229,0.7679,0.8085,0.8777,1.0362,1.0739,1.1208,1.1853,1.2042,1.215,1.2268,1.3409,1.4082,1.4106,1.5159,1.5242,1.3974,1.3986,1.3738,1.2937,1.2834,1.2834,1.3051,1.2834,1.2165,1.1227,1.1439,1.0237,0.7922,0.751,0.4549,-0.0,-0.0,-0.0,-0.0,-0.0,-0.0,-0.0,-0.0,-0.0,-0.0,-4.007,-4.007,-4.007,-4.007,-4.007,-4.007,-4.007,-4.007,-4.007,-4.007,-4.007,-4.007,-4.007,-4.007,-4.007,-4.007,-3.7905,-3.6477,-3.6477,-3.5846,-3.5544,-3.551,-3.4698,-3.4574,-3.5272,-3.5873,-3.5826,-3.5079,-3.5291,-3.5362,-3.5345,-3.347,-3.2787,-3.3069,-3.0792,-2.9496,-2.887,-2.7684,-2.6586,-2.555,-2.4467,-2.4506,-2.5015,-2.2465,-2.2139,-2.2655,-2.0391,-1.9499,-1.9121,-1.7086,-1.6112,-1.5523,-1.3945,-1.2766,-1.1787,-1.1846,-1.0573,-0.9126,-0.9046,-0.8387,-0.772,-0.7605,-0.755,-0.6982,-0.4812,-0.5787,-0.5739,-0.0971,0.3328,0.6631,0.7753,0.7989,0.7788,0.7269,0.716,0.7359,0.7875,0.8947,0.9719,1.0113,1.1955,1.2823,1.1945,1.2813,1.3966,1.5265,1.5371,1.5536,1.5765,1.5761,1.5242,1.3974,1.4865,1.4025,1.1157,0.9719,1.0134,1.2127,1.0031,0.7908,0.5827,0.7889,0.8524,0.7717,0.3536,0.1111,-0.0,-0.0,-0.0,-0.0,-0.0,-0.0,-0.0,-0.0,-0.0,-0.0,-4.007,-4.007,-4.007,-4.007,-4.007,-4.007,-4.007,-4.007,-4.007,-4.007,-4.007,-4.007,-4.007,-4.007,-4.007,-4.007,-3.8652,-3.7055,-3.5619,-3.4906,-3.4262,-3.3634,-3.3245,-3.299,-3.3034,-3.3799,-3.4538,-3.5103,-3.5124,-3.5316,-3.556,-3.4213,-3.3581,-3.3499,-3.1789,-3.0571,-2.9736,-2.8554,-2.7468,-2.639,-2.5243,-2.4834,-2.4706,-2.2697,-2.2132,-2.2239,-2.0551,-1.9137,-1.7961,-1.68,-1.5794,-1.4684,-1.3385,-1.2134,-1.1223,-1.0732,-0.9459,-0.8158,-0.8242,-0.7876,-0.7519,-0.758,-0.764,-0.6873,-0.4238,-0.3668,-0.2236,0.2773,0.6088,0.8028,0.7989,0.7992,0.7979,0.7969,0.8553,0.8943,0.8943,1.0105,1.1165,1.1745,1.3561,1.4988,1.5442,1.6333,1.7173,1.8037,1.758,1.7265,1.7428,1.6006,1.4588,1.3188,1.3369,1.1529,0.7524,0.7749,0.8689,1.0054,0.8585,0.5934,0.2113,0.3531,0.4144,0.4041,0.1212,-0.0,-0.0,-0.0,-0.0,-0.0,-0.0,-0.0,-0.0,-0.0,-0.0,-0.0,-4.007,-4.007,-4.007,-4.007,-4.007,-4.007,-4.007,-4.007,-4.007,-4.007,-4.007,-4.007,-4.007,-4.007,-4.007,-4.007,-3.961,-3.8246,-3.5683,-3.4038,-3.2677,-3.1526,-3.2063,-3.2093,-3.1482,-3.212,-3.3323,-3.5183,-3.4677,-3.4688,-3.527,-3.4688,-3.4087,-3.3391,-3.2841,-3.1849,-3.045,-2.9442,-2.8334,-2.7125,-2.5876,-2.4964,-2.4212,-2.2962,-2.2291,-2.1886,-2.0934,-1.9169,-1.7279,-1.7037,-1.5701,-1.3935,-1.3006,-1.1762,-1.0494,-0.9427,-0.8307,-0.7414,-0.7441,-0.7543,-0.7678,-0.7744,-0.7703,-0.7116,-0.4822,-0.2067,0.1486,0.6871,0.8022,0.8009,0.7979,0.8168,0.8354,0.8336,0.941,1.0288,1.0288,1.1487,1.2683,1.3841,1.5293,1.7116,1.9486,2.0036,2.014,1.9922,1.9194,1.858,1.8442,1.5978,1.3841,1.244,1.1557,0.8809,0.4034,0.6687,0.7522,0.6611,0.6595,0.4345,-0.0,-0.0,-0.0,-0.0,-0.0,-0.0,-0.0,-0.0,-0.0,-0.0,-0.0,-0.0,-0.0,-0.0,-0.0,-0.0,-4.007,-4.007,-4.007,-4.007,-4.007,-4.007,-4.007,-4.007,-4.007,-4.007,-4.007,-4.007,-4.007,-4.007,-4.007,-4.007,-3.7674,-3.5973,-3.5504,-3.317,-3.1719,-3.1482,-3.1556,-3.1556,-3.1482,-3.1582,-3.2109,-3.3036,-3.3491,-3.3786,-3.3887,-3.3786,-3.3391,-3.2749,-3.2641,-3.2104,-3.1219,-2.969,-2.8898,-2.8443,-2.559,-2.4575,-2.4637,-2.2295,-2.1628,-2.1886,-2.0934,-1.9944,-1.8936,-1.8338,-1.7251,-1.5798,-1.3656,-1.2122,-1.0923,-0.9666,-0.8486,-0.7597,-0.7719,-0.7684,-0.7751,-0.7905,-0.7969,-0.7889,-0.7478,-0.3521,0.151,0.6891,0.8009,0.7992,0.7975,0.8943,0.971,0.9706,1.0779,1.1653,1.1653,1.2992,1.4005,1.4201,1.666,1.8888,2.0516,2.0654,2.0337,1.9384,1.8981,1.8287,1.7476,1.5599,1.4021,1.2654,1.2084,0.9305,0.401,0.6642,0.5682,0.1111,0.1111,0.0707,-0.0,-0.0,-0.0,-0.0,-0.0,-0.0,-0.0,-0.0,-0.0,-0.0,-0.0,-0.0,-0.0,-0.0,-0.0,-0.0,-4.007,-4.007,-4.007,-4.007,-4.007,-4.007,-4.007,-4.007,-4.007,-4.007,-4.007,-4.007,-4.007,-4.007,-3.9385,-3.7674,-3.6321,-3.4876,-3.338,-3.2871,-3.2302,-3.1511,-3.1482,-3.1482,-3.1482,-3.1482,-3.164,-3.2007,-3.268,-3.3235,-3.3582,-3.3582,-3.3235,-3.2586,-3.2586,-3.2374,-3.193,-2.9845,-2.9196,-2.9316,-2.6578,-2.4931,-2.4047,-2.3213,-2.2334,-2.141,-2.059,-1.9497,-1.8355,-1.769,-1.6132,-1.4289,-1.271,-1.1276,-0.9917,-0.8812,-0.809,-0.7733,-0.7794,-0.7791,-0.7486,-0.6124,-0.6871,-0.8029,-0.8039,-0.1513,0.4748,0.555,0.6962,0.8002,0.817,0.9268,1.0284,1.0386,1.2004,1.3352,1.3491,1.4586,1.5993,1.7678,1.9008,2.057,2.2586,2.3079,2.2706,2.1402,2.0759,1.9853,1.8597,1.5547,1.3776,1.3591,1.1458,0.8927,0.6228,0.4389,0.2326,-0.0,-0.0,-0.0,-0.0,-0.0,-0.0,-0.0,-0.0,-0.0,-0.0,-0.0,-0.0,-0.0,-0.0,-0.0,-0.0,-0.0,-0.0,-0.0404]},{"header":{"parameterUnit":"m.s-1","parameterCategory":1,"la1":30.6,"la2":28.766,"lo1":-90.7593,"lo2":-88.6598,"dy":0.0162,"dx":0.0183,"nx":116,"ny":114,"refTime":"2023-07-16T12:00:00:Z","depth":0,"parameterNumber":3,"parameterNumberName":"V-component_of_WINDS"},"data":[0.0,0.0,0.0,0.0,0.0,0.0,0.0,0.0,0.0,0.0,0.0,0.0,0.0,0.0,0.0,0.0,0.0,0.0,0.0,0.0,0.0,0.0,0.0,0.0,0.0,0.0,0.0,0.0,0.0,0.0,0.0,0.0,0.0,0.0,0.0,0.0,0.0,0.0,0.0,0.0,0.0,0.0,0.0,0.0,0.0,0.0,0.0,0.0,0.0,0.0,0.0,0.0,0.0,0.0,0.0,0.0,0.0,0.0,0.0,0.0,0.0,0.0,0.0,0.0,0.0,0.0,0.0,0.0,0.0,0.0,0.0,0.0,0.0,0.0,0.0,0.0,0.0,0.0,0.0,0.0,0.0,0.0,0.0,0.0,0.0,0.0,0.0,0.0,0.0,0.0,0.0,0.0,0.0,0.0,0.0,0.0,0.0,0.0,0.0,0.0,0.0,0.0,0.0,0.0,0.0,0.0,0.0,0.0,0.0,0.0,0.0,0.0,0.0,0.0,0.0,0.0,0.0,0.0,0.0,0.0,0.0,0.0,0.0,0.0,0.0,0.0,0.0,0.0,0.0,0.0,0.0,0.0,0.0,0.0,0.0,0.0,0.0,0.0,0.0,0.0,0.0,0.0,0.0,0.0,0.0,0.0,0.0,0.0,0.0,0.0,0.0,0.0,0.0,0.0,0.0,0.0,0.0,0.0,0.0,0.0,0.0,0.0,0.0,0.0,0.0,0.0,0.0,0.0,0.0,0.0,0.0,0.0,0.0,0.0,0.0,0.0,0.0,0.0,0.0,0.0,0.0,0.0,0.0,0.0,0.0,0.0,0.0,0.0,0.0,0.0,0.0,0.0,0.0,0.0,0.0,0.0,0.0,0.0,0.0,0.0,0.0,0.0,0.0,0.0,0.0,0.0,0.0,0.0,0.0,0.0,0.0,0.0,0.0,0.0,0.0,0.0,0.0,0.0,0.0,0.0,0.0,0.0,0.0,0.0,0.0,0.0,0.0,0.0,0.0,0.0,0.0,0.0,0.0,0.0,0.0,0.0,0.0,0.0,0.0,0.0,0.0,0.0,0.0,0.0,0.0,0.0,0.0,0.0,0.0,0.0,0.0,0.0,0.0,0.0,0.0,0.0,0.0,0.0,0.0,0.0,0.0,0.0,0.0,0.0,0.0,0.0,0.0,0.0,0.0,0.0,0.0,0.0,0.0,0.0,0.0,0.0,0.0,0.0,0.0,0.0,0.0,0.0,0.0,0.0,0.0,0.0,0.0,0.0,0.0,0.0,0.0,0.0,0.0,0.0,0.0,0.0,0.0,0.0,0.0,0.0,0.0,0.0,0.0,0.0,0.0,0.0,0.0,0.0,0.0,0.0,0.0,0.0,0.0,0.0,0.0,0.0,0.0,0.0,0.0,0.0,0.0,0.0,0.0,0.0,0.0,0.0,0.0,0.0,0.0,0.0,0.0,0.0,0.0,0.0,0.0,0.0,0.0,0.0,0.0,0.0,0.0,0.0,0.0,0.0,0.0,0.0,0.0,0.0,0.0,0.0,0.0,0.0,0.0,0.0,0.0,0.0,0.0,0.0,0.0,0.0,0.0,0.0,0.0,0.0,0.0,0.0,0.0,0.0,0.0,0.0,0.0,0.0,0.0,0.0,0.0,0.0,0.0,0.0,0.0,0.0,0.0,0.0,0.0,0.0,0.0,0.0,0.0,0.0,0.0,0.0,0.0,0.0,0.0,0.0,0.0,0.0,0.0,0.0,0.0,0.0,0.0,0.0,0.0,0.0,0.0,0.0,0.0,0.0,0.0,0.0,0.0,0.0,0.0,0.0,0.0,0.0,0.0,0.0,0.0,0.0,0.0,0.0,0.0,0.0,0.0,0.0,0.0,0.0,0.0,0.0,0.0,0.0,0.0,0.0,0.0,0.0,0.0,0.0,0.0,0.0,0.0,0.0,0.0,0.0,0.0,0.0,0.0,0.0,0.0,0.0,0.0,0.0,0.0,0.0,0.0,0.0,0.0,0.0,0.0,0.0,0.0,0.0,0.0,0.0,0.0,0.0,0.0,0.0,0.0,0.0,0.0,0.0,0.0,0.0,0.0,0.0,0.0,0.0,0.0,0.0,0.0,0.0,0.0,0.0,0.0,0.0,0.0,0.0,0.0,0.0,0.0,0.0,0.0,0.0,0.0,0.0,0.0,0.0,0.0,0.0,0.0,0.0,0.0,0.0,0.0,0.0,0.0,0.0,0.0,0.0,0.0,0.0,0.0,0.0,0.0,0.0,0.0,0.0,0.0,0.0,0.0,0.0,0.0,0.0,0.0,0.0,0.0,0.0,0.0,0.0,0.0,0.0,0.0,0.0,0.0,0.0,0.0,0.0,0.0,0.0,0.0,0.0,0.0,0.0,0.0,0.0,0.0,0.0,0.0,0.0,0.0,0.0,0.0,0.0,0.0,0.0,0.0,0.0,0.0,0.0,0.0,0.0,0.0,0.0,0.0,0.0,0.0,0.0,0.0,0.0,0.0,0.0,0.0,0.0,0.0,0.0,0.0,0.0,0.0,0.0,0.0,0.0,0.0,0.0,0.0,0.0,0.0,0.0,0.0,0.0,0.0,0.0,0.0,0.0,0.0,0.0,0.0,0.0,0.0,0.0,0.0,0.0,0.0,0.0,0.0,0.0,0.0,0.0,0.0,0.0,0.0,0.0,0.0,0.0,0.0,0.0,0.0,0.0,0.0,0.0,0.0,0.0,0.0,0.0,0.0,0.0,0.0,0.0,0.0,0.0,0.0,0.0,0.0,0.0,0.0,0.0,0.0,0.0,0.0,0.0,0.0,0.0,0.0,0.0,0.0,0.0,0.0,0.0,0.0,0.0,0.0,0.0,0.0,0.0,0.0,0.0,0.0,0.0,0.0,0.0,0.0,0.0,0.0,0.0,0.0,0.0,0.0,0.0,0.0,0.0,0.0,0.0,0.0,0.0,0.0,0.0,0.0,0.0,0.0,0.0,0.0,0.0,0.0,0.0,0.0,0.0,0.0,0.0,0.0,0.0,0.0,0.0,0.0,0.0,0.0,0.0,0.0,0.0,0.0,0.0,0.0,0.0,0.0,0.0,0.0,0.0,0.0,0.0,0.0,0.0,0.0,0.0,0.0,0.0,0.0,0.0,0.0,0.0,0.0,0.0,0.0,0.0,0.0,0.0,0.0,0.0,0.0,0.0,0.0,0.0,0.0,0.0,0.0,0.0,0.0,0.0,0.0,0.0,0.0,0.0,0.0,0.0,0.0,0.0,0.0,0.0,0.0,0.0,0.0,0.0,0.0,0.0,0.0,0.0,0.0,0.0,0.0,0.0,0.0,0.0,0.0,0.0,0.0,0.0,0.0,0.0,0.0,0.0,0.0,0.0,0.0,0.0,0.0,0.0,0.0,0.0,0.0,0.0,0.0,0.0,0.0,0.0,0.0,0.0,0.0,0.0,0.0,0.0,0.0,0.0,0.0,0.0,0.0,0.0,0.0,0.0,0.0,0.0,0.0,0.0,0.0,0.0,0.0,0.0,0.0,0.0,0.0,0.0,0.0,0.0,0.0,0.0,0.0,0.0,0.0,0.0,0.0,0.0,0.0,0.0,0.0,0.0,0.0,0.0,0.0,0.0,0.0,0.0,0.0,0.0,0.0,0.0,0.0,0.0,0.0,0.0,0.0,0.0,0.0,0.0,0.0,0.0,0.0,0.0,0.0,0.0,0.0,0.0,0.0,0.0,0.0,0.0,0.0,0.0,0.0,0.0,0.0,0.0,0.0,0.0,0.0,0.0,0.0,0.0,0.0,0.0,0.0,0.0,0.0,0.0,0.0,0.0,0.0,0.0,0.0,0.0,0.0,0.0,0.0,0.0,0.0,0.0,0.0,0.0,0.0,0.0,0.0,0.0,0.0,0.0,0.0,0.0,0.0,0.0,0.0,0.0,0.0,0.0,0.0,0.0,0.0,0.0,0.0,0.0,0.0,0.0,0.0,0.0,0.0,0.0,0.0,0.0,0.0,0.0,0.0,0.0,0.0,0.0,0.0,0.0,0.0,0.0,0.0,0.0,0.0,0.0,0.0,0.0,0.0,0.0,0.0,0.0,0.0,0.0,0.0,0.0,0.0,0.0,0.0,0.0,0.0,0.0,0.0,0.0,0.0,0.0,0.0,0.0,0.0,0.0,0.0,0.0,0.0,0.0,0.0,0.0,0.0,0.0,0.0,0.0,0.0,0.0,0.0,0.0,0.0,0.0,0.0,0.0,0.0,0.0,0.0,0.0,0.0,0.0,0.0,0.0,0.0,0.0,0.0,0.0,0.0,0.0,0.0,0.0,0.0,0.0,0.0,0.0,0.0,0.0,0.0,0.0,0.0,0.0,0.0,0.0,0.0,0.0,0.0,0.0,0.0,0.0,0.0,0.0,0.0,0.0,0.0,0.0,0.0,0.0,0.0,0.0,0.0,0.0,0.0,0.0,0.0,0.0,0.0,0.0,0.0,0.0,0.0,0.0,0.0,0.0,0.0,0.0,0.0,0.0,0.0,0.0,0.0,0.0,0.0,0.0,0.0,0.0,0.0,0.0,0.0,0.0,0.0,0.0,0.0,0.0,0.0,0.0,0.0,0.0,0.0,0.0,0.0,0.0,0.0,0.0,0.0,0.0,0.0,0.0,0.0,0.0,0.0,0.0,0.0,0.0,0.0,0.0,0.0,0.0,0.0,0.0,0.0,0.0,0.0,0.0,0.0,0.0,0.0,0.0,0.0,0.0,0.0,0.0,0.0,0.0,0.0,0.0,0.0,0.0,0.0,0.0,0.0,0.0,0.0,0.0,0.0,0.0,0.0,0.0,0.0,0.0,0.0,0.0,0.0,0.0,0.0,0.0,0.0,0.0,0.0,0.0,0.0,0.0,0.0,0.0,0.0,0.0,0.0,0.0,0.0,0.0,0.0,0.0,0.0,0.0,0.0,0.0,0.0,0.0,0.0,0.0,0.0,0.0,0.0,0.0,0.0,0.0,0.0,0.0,0.0,0.0,0.0,0.0,0.0,0.0,0.0,0.0,0.0,0.0,0.0,0.0,0.0,0.0,0.0,0.0,0.0,0.0,0.0,0.0,0.0,0.0,0.0,0.0,0.0,0.0,0.0,0.0,0.0,0.0,0.0,0.0,0.0,0.0,0.0,0.0,0.0,0.0,0.0,0.0,0.0,0.0,0.0,0.0,0.0,0.0,0.0,0.0,0.0,0.0,0.0,0.0,0.0,0.0,0.0,0.0,0.0,0.0,0.0,0.0,0.0,0.0,0.0,0.0,0.0,0.0,0.0,0.0,0.0,0.0,0.0,0.0,0.0,0.0,0.0,0.0,0.0,0.0,0.0,0.0,0.0,0.0,0.0,0.0,0.0,0.0,0.0,0.0,0.0,0.0,0.0,0.0,0.0,0.0,0.0,0.0,0.0,0.0,0.0,0.0,0.0,0.0,0.0,0.0,0.0,0.0,0.0,0.0,0.0,0.0,0.0,0.0,0.0,0.0,0.0,0.0,0.0,0.0,0.0,0.0,0.0,0.0,0.0,0.0,0.0,0.0,0.0,0.0,0.0,0.0,0.0,0.0,0.0,0.0,0.0,0.0,0.0,0.0,0.0,0.0,0.0,0.0,0.0,0.0,0.0,0.0,0.0,0.0,0.0,0.0,0.0,0.0,0.0,0.0,0.0,0.0,0.0,0.0,0.0,0.0,0.0,0.0,0.0,0.0,0.0,0.0,0.0,0.0,0.0,0.0,0.0,0.0,0.0,0.0,0.0,0.0,0.0,0.0,0.0,0.0,0.0,0.0,0.0,0.0,0.0,0.0,0.0,0.0,0.0,0.0,0.0,0.0,0.0,0.0,0.0,0.0,0.0,0.0,0.0,0.0,0.0,0.0,0.0,0.0,0.0,0.0,0.0,0.0,0.0,0.0,0.0,0.0,0.0,0.0,0.0,0.0,0.0,0.0,0.0,0.0,0.0,0.0,0.0,0.0,0.0,0.0,0.0,0.0,0.0,0.0,0.0,0.0,0.0,0.0,0.0,0.0,0.0,0.0,0.0,0.0,-1.217,0.0,0.0,0.0,0.0,0.0,0.0,0.0,0.0,0.0,0.0,0.0,0.0,0.0,0.0,0.0,0.0,0.0,0.0,0.0,0.0,0.0,0.0,0.0,0.0,0.0,0.0,0.0,0.0,0.0,0.0,0.0,0.0,0.0,0.0,0.0,0.0,0.0,0.0,0.0,0.0,0.0,0.0,0.0,0.0,0.0,0.0,0.0,0.0,0.0,0.0,0.0,0.0,0.0,0.0,0.0,0.0,0.0,0.0,0.0,0.0,0.0,0.0,0.0,0.0,0.0,0.0,0.0,0.0,0.0,0.0,0.0,0.0,0.0,0.0,0.0,0.0,0.0,0.0,0.0,0.0,0.0,0.0,0.0,0.0,0.0,0.0,0.0,0.0,0.0,0.0,0.0,0.0,0.0,0.0,0.0,0.0,0.0,0.0,0.0,0.0,0.0,0.0,0.0,0.0,0.0,0.0,0.0,0.0,0.0,0.0,0.0,0.0,0.0,0.0,0.0,0.0,-1.1362,0.0,0.0,0.0,0.0,0.0,0.0,0.0,0.0,0.0,0.0,0.0,0.0,0.0,0.0,0.0,0.0,0.0,0.0,0.0,0.0,0.0,0.0,0.0,0.0,0.0,0.0,0.0,0.0,0.0,0.0,0.0,0.0,0.0,0.0,0.0,0.0,0.0,0.0,0.0,0.0,0.0,0.0,0.0,0.0,0.0,0.0,0.0,0.0,0.0,0.0,0.0,0.0,0.0,0.0,0.0,0.0,0.0,0.0,0.0,0.0,0.0,0.0,0.0,0.0,0.0,0.0,0.0,0.0,0.0,0.0,0.0,0.0,0.0,0.0,0.0,0.0,0.0,0.0,0.0,0.0,0.0,0.0,0.0,0.0,0.0,0.0,0.0,0.0,0.0,0.0,0.0,0.0,0.0,0.0,0.0,0.0,0.0,0.0,0.0,0.0,0.0,0.0,0.0,0.0,0.0,0.0,0.0,0.0,-1.2269,-1.2676,-1.3662,-1.4165,-1.4224,-1.385,-1.232,-1.0915,-0.983,-1.129,0.0,0.0,0.0,0.0,0.0,0.0,0.0,0.0,0.0,0.0,0.0,0.0,0.0,0.0,0.0,0.0,0.0,0.0,0.0,0.0,0.0,0.0,0.0,0.0,0.0,0.0,0.0,0.0,0.0,0.0,0.0,0.0,0.0,0.0,0.0,0.0,0.0,0.0,-2.28,-2.3316,-2.2506,-2.0661,0.0,0.0,0.0,0.0,0.0,0.0,0.0,0.0,0.0,0.0,0.0,0.0,0.0,0.0,0.0,0.0,0.0,0.0,0.0,0.0,0.0,0.0,0.0,0.0,0.0,0.0,0.0,0.0,0.0,0.0,0.0,0.0,0.0,0.0,0.0,0.0,0.0,0.0,0.0,0.0,0.0,0.0,0.0,0.0,-0.7141,-0.6854,0.0,0.0,0.0,0.0,0.0,0.0,0.0,0.0,0.0,0.0,0.0,0.0,0.0,-0.7775,-0.962,-1.0087,-1.1994,-1.5259,-1.4094,-1.3922,-1.4583,-1.3885,-1.389,-1.4507,-1.4947,0.0,-0.8991,-0.9569,0.0,0.0,0.0,0.0,0.0,0.0,0.0,0.0,0.0,0.0,0.0,0.0,0.0,0.0,0.0,0.0,0.0,0.0,0.0,0.0,0.0,0.0,0.0,0.0,0.0,0.0,0.0,0.0,0.0,0.0,0.0,0.0,0.0,0.0,0.0,0.0,-2.3553,-2.3496,-2.3352,-2.4022,-2.3344,-2.157,-2.1975,-2.102,-1.9073,-1.815,0.0,0.0,0.0,0.0,0.0,0.0,0.0,0.0,0.0,0.0,0.0,0.0,0.0,0.0,0.0,0.0,0.0,0.0,0.0,0.0,0.0,0.0,0.0,0.0,0.0,0.0,0.0,0.0,0.0,0.0,0.0,0.0,0.0,0.0,0.0,0.0,0.0,0.0,0.0,-0.7968,-0.7295,-0.7174,-0.6929,-0.6512,0.0,0.0,0.0,0.0,0.0,0.0,0.0,0.0,0.0,-0.909,-0.9041,-0.9928,-1.1728,-1.2973,-1.5092,-1.8002,-1.7386,-1.7273,-1.759,-1.8136,-1.7256,-1.5292,-1.5656,-1.4083,-1.119,-1.0171,-1.003,-1.0487,0.0,0.0,0.0,0.0,-1.0632,-1.0376,0.0,0.0,0.0,0.0,0.0,0.0,0.0,0.0,0.0,0.0,0.0,0.0,0.0,0.0,0.0,-2.3208,0.0,0.0,0.0,0.0,0.0,0.0,0.0,0.0,0.0,0.0,0.0,0.0,-2.4355,-2.4684,-2.4985,-2.548,-2.4972,-2.3651,-2.3533,-2.1713,-1.8743,-1.7996,-1.7223,0.0,0.0,0.0,0.0,0.0,0.0,0.0,0.0,0.0,0.0,0.0,0.0,0.0,0.0,0.0,0.0,0.0,0.0,0.0,0.0,0.0,0.0,0.0,0.0,0.0,0.0,0.0,0.0,0.0,0.0,0.0,0.0,0.0,0.0,0.0,0.0,0.0,0.0,-0.8098,-0.7415,-0.7255,-0.7041,-0.6623,0.0,0.0,0.0,0.0,0.0,0.0,-0.5865,-0.768,-0.9165,-1.0125,-1.0454,-1.1338,-1.2861,-1.5287,-1.7312,-1.8893,-1.9442,-1.969,-1.9747,-2.1023,-1.9871,-1.6803,-1.6803,-1.5759,-1.385,-1.152,-1.0361,-1.0167,-1.0756,-1.0999,-1.0979,-1.0607,-1.052,-1.0563,0.0,0.0,0.0,0.0,0.0,0.0,0.0,0.0,0.0,0.0,0.0,0.0,0.0,0.0,-2.2355,-2.3995,-2.4829,-2.5344,0.0,0.0,0.0,0.0,0.0,0.0,0.0,0.0,0.0,-2.6699,-2.5843,-2.6275,-2.7885,-2.774,-2.7439,-2.7025,-2.639,-2.345,-1.8885,-1.7655,-1.6886,-1.6494,0.0,0.0,0.0,0.0,0.0,0.0,0.0,0.0,0.0,0.0,0.0,0.0,0.0,0.0,0.0,0.0,0.0,0.0,0.0,0.0,0.0,0.0,0.0,0.0,0.0,0.0,0.0,0.0,0.0,0.0,0.0,0.0,0.0,0.0,0.0,0.0,0.0,0.0,0.0,-0.627,-0.6492,0.0,0.0,0.0,0.0,-0.4802,-0.5776,-0.6376,-0.6373,-0.8452,-0.9815,-1.0272,-1.1099,-1.1988,-1.2871,-1.5287,-1.6552,-1.668,-1.8727,-1.969,-1.969,-1.9782,-1.9707,-1.948,-1.948,-1.8313,-1.6132,-1.3185,-1.1281,-1.0241,-1.0804,-1.1033,-1.1074,-1.0928,-1.0947,-1.0967,0.0,0.0,0.0,0.0,0.0,0.0,0.0,0.0,0.0,0.0,0.0,0.0,0.0,-2.2824,-2.3199,-2.4821,-2.5271,-2.5464,-2.5473,0.0,0.0,0.0,0.0,0.0,0.0,0.0,-2.4935,-2.6133,-2.6305,-2.699,-2.8105,-2.85,-2.8271,-2.7513,-2.8143,-2.6638,-2.3486,-2.0945,-1.9333,-1.8418,-1.725,-1.6636,0.0,0.0,0.0,0.0,0.0,0.0,0.0,0.0,0.0,0.0,0.0,0.0,0.0,0.0,0.0,0.0,0.0,0.0,0.0,0.0,0.0,0.0,0.0,0.0,0.0,0.0,0.0,0.0,0.0,0.0,0.0,0.0,0.0,0.0,0.0,0.0,0.0,-0.7255,-0.6811,0.0,-0.6141,-0.582,-0.5445,-0.5014,-0.5658,-0.6209,-0.6493,-0.8384,-0.9664,-1.0221,-1.1667,-1.2606,-1.2881,-1.5287,-1.7188,-1.8574,-1.9332,-1.969,-1.969,-1.969,-1.969,-1.969,-1.969,-1.9281,-1.8359,-1.5931,-1.3782,-1.2016,-1.1325,-1.1221,-1.1377,-1.1143,-1.1042,-1.1081,0.0,0.0,0.0,0.0,0.0,0.0,0.0,0.0,0.0,0.0,0.0,-2.188,-2.3157,-2.311,-2.3638,-2.5234,-2.5414,-2.5436,-2.5428,0.0,0.0,0.0,0.0,0.0,0.0,-2.5041,-2.5765,-2.6917,-2.7446,-2.8104,-2.8865,-2.962,-2.9557,-2.8835,-2.9962,-2.9452,-2.7543,-2.5012,-2.2553,-2.0264,-1.9048,-1.8325,-1.7818,0.0,0.0,0.0,0.0,0.0,0.0,0.0,0.0,0.0,0.0,0.0,0.0,0.0,0.0,0.0,0.0,0.0,0.0,0.0,0.0,0.0,0.0,0.0,0.0,0.0,0.0,0.0,0.0,0.0,0.0,0.0,0.0,0.0,0.0,0.0,-0.8234,-0.8491,-0.7882,-0.7241,-0.6768,-0.5738,-0.5113,-0.4969,-0.5775,-0.6309,-0.6452,-0.8184,-0.9542,-1.0372,-1.2049,-1.2881,-1.2881,-1.5287,-1.7585,-1.969,-1.969,-1.969,-1.969,-1.969,-1.969,-1.969,-1.969,-1.969,-1.9603,-1.8185,-1.6278,-1.4092,-1.2402,-1.1677,-1.166,-1.1967,-1.1929,-1.1748,0.0,0.0,0.0,0.0,0.0,0.0,0.0,0.0,0.0,0.0,-2.0022,-2.0862,-2.1482,-2.2449,-2.3652,-2.5175,-2.5253,-2.5303,-2.5486,-2.512,0.0,0.0,0.0,0.0,-2.5525,-2.6353,-2.7608,-2.9272,-2.9272,-2.9644,-3.0348,-3.1118,-3.1355,-3.1148,-3.1889,-3.1655,-3.0626,-2.9499,-2.6345,-2.2095,-2.1796,-2.0794,-1.9416,0.0,0.0,0.0,0.0,0.0,0.0,0.0,0.0,0.0,0.0,0.0,0.0,0.0,0.0,0.0,0.0,0.0,0.0,0.0,0.0,0.0,0.0,0.0,0.0,0.0,0.0,0.0,0.0,0.0,0.0,0.0,0.0,0.0,-1.1459,-1.0883,-1.0279,-0.9887,-0.961,-0.868,-0.6853,-0.6099,-0.5412,-0.4817,-0.6249,-0.6871,-0.6276,-0.7935,-0.9456,-1.0712,-1.2157,-1.2929,-1.3017,-1.5332,-1.7585,-1.969,-1.969,-1.969,-1.969,-1.969,-1.969,-1.969,-1.969,-1.969,-1.969,-1.969,-1.8458,-1.6268,-1.4013,-1.251,-1.1866,-1.3489,-1.3563,-1.2881,0.0,0.0,0.0,0.0,0.0,0.0,0.0,0.0,0.0,0.0,-2.0876,-2.1741,-2.245,-2.3331,-2.4276,-2.5277,-2.4261,-2.4034,-2.5149,0.0,0.0,0.0,0.0,0.0,-2.6051,-2.6217,-2.7139,-2.886,-2.8822,-2.9478,-3.0827,-3.1034,-3.1231,-3.1406,-3.221,-3.1911,-3.0796,-3.1128,-2.9713,-2.6928,-2.3892,-2.2558,-2.2118,0.0,0.0,0.0,0.0,0.0,0.0,0.0,0.0,0.0,0.0,0.0,0.0,0.0,0.0,0.0,0.0,0.0,0.0,0.0,0.0,0.0,0.0,0.0,0.0,0.0,0.0,0.0,0.0,0.0,0.0,0.0,0.0,-1.4183,-1.2167,-1.1489,-1.1213,-1.1187,-1.0316,-0.9501,-0.8965,-0.7817,-0.7062,-0.689,-0.7752,-0.8145,-0.7652,-0.918,-0.9853,-0.9389,-1.1651,-1.3752,-1.5478,-1.6151,-1.7585,-1.969,-1.969,-1.969,-1.969,-1.969,-1.969,-1.969,-1.969,-1.969,-1.969,-1.969,-1.8458,-1.6441,-1.5776,-1.4868,-1.3788,-1.3375,-1.3113,-1.2881,0.0,0.0,0.0,0.0,0.0,0.0,0.0,0.0,0.0,0.0,-2.1056,-2.2177,-2.1857,-2.2901,-2.3832,-2.4274,-2.3755,-2.3602,-2.4017,0.0,0.0,0.0,0.0,-2.5258,-2.6662,-2.6935,-2.7747,-2.9115,-2.9214,-2.9714,-3.0546,-3.1057,-3.1341,-3.1445,-3.2256,-3.2038,-3.1044,-3.158,-3.0846,-2.9115,-2.6657,-2.5428,-2.4788,-2.2021,-2.1216,-2.1256,-1.9162,-1.9049,-1.9801,-1.9122,0.0,0.0,0.0,0.0,0.0,0.0,0.0,0.0,0.0,0.0,0.0,0.0,0.0,0.0,0.0,0.0,0.0,0.0,0.0,0.0,0.0,0.0,0.0,0.0,-1.6384,-1.6735,-1.5797,-1.4395,-1.3333,-1.3011,-1.2016,-1.1176,-1.0651,-1.0127,-0.9549,-0.89,-0.8573,-0.834,-0.8158,-1.0986,-1.1985,-1.0581,-1.3972,-1.6471,-1.789,-1.6974,-1.7366,-1.9084,-2.0607,-2.0963,-2.0243,-1.9889,-1.969,-1.969,-1.969,-1.969,-1.969,-1.969,-1.8968,0.0,0.0,0.0,0.0,0.0,-1.3344,-1.38,0.0,0.0,0.0,0.0,0.0,0.0,0.0,0.0,0.0,0.0,0.0,-2.1984,-2.0193,-2.156,-2.2652,-2.2758,-2.3295,-2.3321,0.0,0.0,0.0,-2.3503,-2.4891,-2.617,-2.7223,-2.8012,-2.8763,-2.9495,-2.9869,-3.0028,-2.9958,-3.1199,-3.164,-3.1401,-3.2193,-3.2072,-3.1322,-3.1322,-3.0695,-2.9702,-2.9548,-2.8654,-2.7144,-2.46,-2.3795,-2.3689,-2.1309,-2.0483,-2.0463,-2.0092,0.0,0.0,0.0,0.0,0.0,0.0,0.0,0.0,0.0,0.0,0.0,0.0,0.0,0.0,0.0,0.0,0.0,0.0,0.0,0.0,0.0,0.0,0.0,0.0,-1.8616,-1.9173,-2.0874,-1.8645,-1.6373,-1.5235,-1.4212,-1.3218,-1.2265,-1.2679,-1.2382,-1.1069,-0.9623,-0.8768,-0.8656,0.0,0.0,0.0,0.0,-1.9631,-1.9307,-1.7666,-1.7388,-1.844,-2.1626,-2.245,-2.105,-2.0431,-1.9974,-1.969,-1.969,-1.9854,-2.0109,-1.9809,-1.969,-1.9479,-1.7353,-1.6522,-1.6207,-1.38,-1.3988,-1.522,0.0,0.0,0.0,0.0,0.0,0.0,0.0,0.0,0.0,-1.789,-1.9403,-2.0012,-1.8305,-1.9735,-2.1292,-2.2453,-2.1485,-2.1158,0.0,0.0,0.0,0.0,0.0,-2.6189,-2.7432,-2.8077,-2.8354,-2.8236,-2.8909,-2.954,-3.0178,-3.159,-3.2074,-3.1827,-3.2576,-3.2337,-3.1368,-3.1368,-3.1271,-3.1055,-3.1213,-3.0023,-2.7926,-2.6325,-2.5785,-2.5531,-2.298,-2.307,-2.4127,-2.219,-2.2529,-2.3446,-2.1726,0.0,0.0,0.0,0.0,0.0,0.0,0.0,0.0,0.0,0.0,0.0,0.0,0.0,0.0,0.0,0.0,0.0,0.0,0.0,0.0,-2.0178,-2.1724,-2.2884,-2.3519,-2.1944,-1.9861,-1.7634,-1.5044,-1.3889,-1.507,-1.4396,-1.3992,-1.424,-1.4042,-1.3553,-1.2716,-1.5543,-1.7027,-1.6709,-1.871,-1.865,-1.6291,-1.8194,-1.9271,-1.9497,0.0,0.0,-2.1591,-2.245,-2.168,-1.969,-1.969,-2.0887,-2.2682,-2.0557,-1.969,-1.9479,-1.7353,-1.6522,-1.6207,-1.38,-1.434,-1.602,0.0,0.0,0.0,0.0,0.0,0.0,0.0,0.0,0.0,0.0,-1.9551,-2.0108,-1.8833,-1.9504,-2.045,-2.1403,-2.0553,0.0,0.0,-2.2584,0.0,0.0,0.0,-2.6813,-2.7684,-2.8371,-2.8617,-2.8464,-2.9369,-3.0204,-3.1025,-3.1568,-3.1968,-3.2147,-3.2199,-3.1895,-3.1421,-3.1723,-3.1478,-3.1063,-3.2142,-3.1493,-2.9789,-2.8706,-2.7862,-2.7039,-2.5347,-2.4884,-2.4822,-2.3349,-2.3565,-2.4155,-2.2478,-2.1653,-2.1167,0.0,0.0,0.0,0.0,0.0,0.0,0.0,0.0,0.0,0.0,0.0,0.0,0.0,0.0,-1.3429,0.0,0.0,-2.1699,-2.3579,-2.5728,-2.7147,-2.7357,-2.5232,-2.2483,-1.9315,-1.7199,-1.6143,-1.6577,-1.6753,-1.6871,-1.6906,-1.7335,-1.7114,-1.6136,-1.728,-1.8244,-1.8715,-1.8715,-1.8627,-1.8464,-1.9352,-1.9999,-2.0363,-2.0867,-2.1313,-2.1758,-2.3023,-2.2892,-2.1714,-2.2749,-2.3106,-2.2869,-2.1534,-2.0481,-1.9603,-1.8535,-1.7463,-1.6337,-1.5164,-1.5478,-1.638,0.0,0.0,0.0,0.0,0.0,0.0,0.0,0.0,0.0,0.0,0.0,-2.0158,-1.9298,-1.9175,-1.9495,0.0,0.0,0.0,0.0,0.0,0.0,0.0,0.0,-2.7315,-2.7564,-2.8423,-2.885,-2.8759,-2.9937,-3.09,-3.1671,-3.1566,-3.1839,-3.2406,-3.1854,-3.1652,-3.1659,-3.2143,-3.1873,-3.1228,-3.2933,-3.3015,-3.2039,-3.1368,-3.0186,-2.8746,-2.7638,-2.6139,-2.4583,-2.3902,-2.3721,-2.3633,-2.2771,-2.2606,-2.2668,-2.221,-2.1463,0.0,0.0,0.0,0.0,0.0,0.0,0.0,0.0,0.0,-0.9768,-1.0372,-1.23,-1.4824,-1.7824,-2.1583,-2.4956,-2.7288,-2.9259,-3.0583,-3.0924,-2.8134,-2.486,-2.1578,-1.972,-1.8543,-1.8126,-1.9114,-1.9625,-1.921,-1.9786,-1.9761,-1.8862,-1.8967,-1.9294,-1.9786,-1.8792,-1.9294,-2.1581,-2.069,-2.0476,-2.0941,-2.1749,-2.1974,-2.1744,-2.3024,-2.3595,-2.3694,-2.5176,-2.4509,-2.231,-2.231,-2.1584,-2.0453,-2.0453,-1.884,-1.6522,-1.6522,-1.6522,-1.6522,0.0,0.0,0.0,0.0,0.0,0.0,0.0,0.0,0.0,0.0,0.0,0.0,0.0,0.0,0.0,0.0,0.0,0.0,0.0,0.0,0.0,0.0,0.0,-2.6942,-2.6387,-2.7733,-2.8283,-2.793,-2.942,-3.054,-3.1286,-3.1945,-3.2346,-3.2478,-3.25,-3.2435,-3.2402,-3.2477,-3.2764,-3.3206,-3.4101,-3.4392,-3.423,-3.41,-3.304,-3.1337,-2.8936,-2.6757,-2.4903,-2.3941,-2.2848,-2.2003,-2.264,-2.257,-2.2287,-2.2337,0.0,-2.1457,-2.2916,-2.2029,-2.0192,-1.8064,-1.5054,-1.242,0.0,0.0,-1.0872,-1.1637,-1.4678,-1.8049,-2.0901,-2.3996,-2.7126,-3.03,-3.0707,-3.1173,-3.2524,-3.0037,-2.754,-2.6056,-2.1923,-1.977,-2.1233,-2.0754,-2.0633,-2.1238,-2.1381,-2.1143,-2.0377,-2.097,-2.0815,-1.9774,-2.0266,-2.0958,-2.1913,-2.18,-2.145,-2.0886,-2.1114,-2.1403,-2.1744,-2.3024,-2.3595,-2.3588,-2.303,-2.2615,-2.231,-2.231,-2.2633,-2.3161,-2.3161,-2.0415,-1.6522,-1.6522,-1.6522,-1.6522,0.0,0.0,0.0,0.0,0.0,0.0,0.0,0.0,0.0,0.0,0.0,0.0,0.0,0.0,0.0,0.0,0.0,0.0,0.0,0.0,0.0,0.0,0.0,-2.7098,-2.7476,-2.8321,-2.8883,-2.9161,-3.0226,-3.1343,-3.2493,-3.2426,-3.264,-3.3115,-3.316,-3.2944,-3.2604,-3.3408,-3.3662,-3.3625,-3.4739,-3.4938,-3.4605,-3.4522,-3.3298,-3.1332,-2.9332,-2.6968,0.0,0.0,-2.3404,-2.3198,-2.2968,-2.3267,-2.352,-2.2551,-2.2567,0.0,-2.3496,0.0,0.0,0.0,-2.0504,-1.9646,-1.8123,-1.7346,-1.7192,-1.8126,-2.0192,-2.2705,-2.5369,-2.8199,-3.0691,0.0,-3.3702,-3.4494,-3.4499,-3.2906,-3.1078,-2.941,-2.6928,-2.4591,-2.2745,-2.3445,-2.3855,-2.3412,-2.3075,-2.2908,-2.2965,-2.2908,-2.261,-2.2041,-2.1877,-2.2124,-2.2829,-2.2825,-2.2459,-2.1732,-2.181,-2.182,-2.1744,-2.3024,-2.4251,-2.5389,-2.5029,-2.4864,-2.4729,-2.3021,-2.2826,-2.3595,-2.3595,-2.1499,-1.8279,-1.6986,-1.6522,-1.6522,0.0,0.0,0.0,0.0,0.0,0.0,0.0,0.0,0.0,0.0,0.0,0.0,0.0,0.0,0.0,0.0,0.0,0.0,0.0,0.0,0.0,-2.4866,-2.6065,0.0,-2.7463,-2.8458,-2.9245,-2.9803,-3.0734,-3.185,-3.3102,-3.2409,-3.2635,-3.3546,-3.3411,-3.3224,-3.3208,-3.4218,-3.4455,-3.4226,-3.5004,-3.5003,-3.4509,-3.3826,-3.2324,-3.0395,-2.8955,-2.6436,0.0,0.0,-2.3066,-2.3203,-2.2969,-2.3639,-2.4323,-2.3259,-2.3446,-2.4011,-2.3964,0.0,0.0,-2.4171,-2.468,-2.4996,-2.3183,-2.3017,-2.351,-2.4268,-2.5681,-2.7375,-2.9313,-3.1198,0.0,-3.3825,-3.5361,-3.631,-3.5878,-3.4793,-3.335,-3.1524,-3.064,-2.863,-2.4603,-2.591,-2.6592,-2.5515,-2.4805,-2.467,-2.5195,-2.4552,-2.417,-2.3955,-2.3539,-2.34,-2.37,-2.3946,-2.3575,-2.263,-2.285,-2.2694,-2.2213,-2.3154,-2.4721,-2.6691,-2.6691,-2.6691,-2.6522,-2.4391,-2.3555,-2.3595,-2.3595,-2.2025,-1.961,-1.8003,-1.7426,-1.7426,0.0,0.0,0.0,0.0,0.0,0.0,0.0,0.0,0.0,0.0,0.0,0.0,0.0,0.0,0.0,0.0,0.0,0.0,0.0,-2.2276,-2.2957,-2.2242,-2.5093,-2.6191,-2.5126,-2.7657,-2.8991,-2.9008,-3.048,-3.1579,-3.2307,-3.1629,-3.2126,-3.3461,-3.2837,-3.3291,-3.4553,-3.4569,-3.4952,-3.5464,-3.4808,-3.4496,-3.4286,-3.2121,-3.0362,-2.8904,-2.7698,0.0,0.0,0.0,-2.1025,-2.0627,-2.2372,-2.3337,0.0,-2.4626,-2.4345,0.0,0.0,0.0,-2.4107,-2.5091,-2.5364,-2.5182,-2.4321,-2.6188,-2.8166,-2.846,-3.0106,-3.1627,-3.2016,-3.1802,-3.2234,-3.4329,-3.4628,-3.4998,-3.6196,-3.4947,-3.3374,-3.1952,-3.1648,-3.0427,0.0,-2.7925,-2.8051,-2.7268,-2.6745,-2.6435,-2.6435,-2.5848,-2.5254,-2.4679,-2.5157,-2.5114,-2.4445,-2.5053,-2.4667,-2.3382,-2.4015,-2.404,-2.3447,-2.3554,-2.4721,-2.6691,-2.6691,-2.6691,-2.6691,-2.659,-2.5373,-2.3595,-2.3595,-2.2025,-1.9798,-1.9723,-1.9698,-1.9698,0.0,0.0,0.0,0.0,0.0,0.0,0.0,0.0,0.0,0.0,0.0,0.0,0.0,0.0,0.0,0.0,0.0,0.0,0.0,-2.1825,-2.2614,-2.3584,-2.411,-2.4682,-2.5316,-2.6471,-2.7314,-2.7818,-2.91,-3.0362,-3.1546,-3.0858,-3.105,-3.2027,-3.1742,-3.166,-3.1697,-3.2166,-3.2957,-3.3743,-3.2185,-3.2053,-3.2492,-2.9915,-2.8044,-2.6573,0.0,0.0,0.0,0.0,0.0,0.0,-2.1079,0.0,0.0,-2.2309,-2.1943,-2.1933,0.0,0.0,-2.6478,-2.7754,-2.9493,-3.0877,-3.0789,-3.1992,-3.2947,-3.2293,-3.2699,-3.2883,-3.1975,-3.1749,-3.2148,-3.3544,-3.4267,-3.4917,-3.5757,-3.6192,-3.5534,-3.3147,-3.4042,0.0,0.0,0.0,0.0,-2.8486,-2.9295,-2.9603,-2.8944,-2.89,-2.8632,-2.7958,-2.8113,-2.7676,-2.6515,-2.6688,-2.6077,-2.475,-2.4556,-2.4792,-2.5224,-2.5033,-2.48,-2.4641,-2.4641,-2.5416,-2.6691,-2.6691,-2.5491,-2.3595,-2.3595,-2.3069,-2.2132,-2.0421,-1.9798,-1.9798,0.0,0.0,0.0,0.0,0.0,0.0,0.0,0.0,0.0,0.0,0.0,0.0,0.0,0.0,0.0,0.0,0.0,0.0,0.0,0.0,-2.2356,-2.3152,-2.3202,-2.3617,-2.4452,-2.5125,-2.5688,-2.6167,-2.7201,-2.8198,-2.9115,-2.8833,-2.9098,-2.9857,-2.9945,-2.9895,-2.9812,-3.0224,-3.0687,-3.0999,-2.951,-2.9172,-2.9369,-2.6791,-2.527,0.0,0.0,0.0,0.0,0.0,0.0,0.0,0.0,-2.199,-2.2916,-2.1348,-2.0936,-2.1267,0.0,-2.4634,-2.7147,-2.9123,-3.1823,-3.4153,-3.4697,-3.5576,-3.5978,-3.4911,-3.4213,-3.3166,-3.1119,-3.035,-3.0327,-3.1258,-3.2295,-3.3457,-3.48,-3.5982,-3.6126,-3.4574,-3.535,0.0,0.0,0.0,0.0,-3.0903,-3.1777,-3.208,-3.1275,-3.1055,-3.0678,-2.9963,-2.9963,-2.9432,-2.8247,-2.8247,-2.7515,-2.616,-2.5536,-2.5465,-2.5883,-2.6149,-2.5495,-2.4073,-2.3744,-2.4374,-2.5603,-2.5603,-2.48,-2.3595,-2.3595,-2.3319,-2.2651,-2.0557,-1.9798,-1.9798,0.0,0.0,0.0,0.0,0.0,0.0,0.0,0.0,0.0,0.0,0.0,0.0,0.0,0.0,0.0,0.0,0.0,0.0,0.0,0.0,0.0,-2.1092,-2.2338,-2.2902,-2.2501,-2.3578,-2.4144,-2.4144,-2.4906,-2.5314,-2.5347,-2.577,-2.6366,-2.7081,-2.7394,-2.7958,-2.8687,-2.8653,-2.823,-2.752,-2.6725,-2.6047,-2.5217,-2.305,0.0,0.0,0.0,0.0,0.0,0.0,0.0,0.0,0.0,0.0,-2.3802,-2.188,-2.1485,-2.1967,-2.3301,-2.4541,-2.6119,-2.9132,-3.2244,-3.4745,-3.5554,-3.6498,-3.6876,-3.5846,-3.4319,-3.2296,0.0,0.0,-2.6988,-2.7891,-2.9141,-3.0939,-3.3658,-3.4642,-3.5412,0.0,0.0,0.0,0.0,0.0,0.0,-3.4568,0.0,-3.3966,-3.3519,-3.2438,-3.1517,-3.0807,-3.0772,-3.0428,-2.9732,-2.9648,-2.8897,-2.7556,-2.6895,-2.626,-2.564,-2.7009,-2.6711,-2.5092,-2.4088,-2.364,-2.3595,-2.3595,-2.3595,-2.3595,-2.3595,-2.2786,-2.1459,-2.0283,-1.985,-1.9798,0.0,0.0,0.0,0.0,0.0,0.0,0.0,0.0,0.0,0.0,0.0,0.0,0.0,0.0,0.0,0.0,0.0,0.0,0.0,0.0,0.0,0.0,0.0,0.0,0.0,0.0,0.0,0.0,0.0,-2.4051,-2.4551,-2.4159,-2.4517,0.0,-2.4195,-2.3951,-2.4428,-2.3877,-2.4028,-2.4496,0.0,-2.2993,-2.3405,0.0,0.0,0.0,0.0,0.0,0.0,0.0,0.0,0.0,0.0,0.0,-2.3973,-2.3124,0.0,-2.2905,-2.3293,-2.5124,-2.7176,-2.8334,-3.0863,-3.2736,-3.1485,-3.2195,-3.2337,-2.9713,-2.8178,-2.686,0.0,0.0,0.0,-2.8214,-3.0083,0.0,-3.5412,-3.7053,0.0,0.0,0.0,-3.9238,-3.9173,-3.9739,0.0,0.0,-3.8032,-3.6937,-3.6381,-3.5685,-3.4728,-3.3405,-3.3024,-3.2253,-3.112,-3.0075,-2.9197,-2.8314,-2.8151,-2.7706,-2.7104,-2.7434,-2.737,-2.6876,-2.5332,-2.4238,-2.3595,-2.3595,-2.3595,-2.3595,-2.3595,-2.2225,-2.032,-2.0633,-2.0346,-1.9695,0.0,0.0,0.0,0.0,0.0,0.0,0.0,0.0,0.0,0.0,0.0,0.0,0.0,0.0,0.0,0.0,0.0,0.0,0.0,0.0,0.0,0.0,0.0,0.0,0.0,0.0,0.0,0.0,0.0,0.0,0.0,-2.1979,-2.2247,-2.2327,-2.1929,-2.1715,-2.1602,0.0,0.0,0.0,0.0,0.0,0.0,0.0,0.0,0.0,0.0,0.0,0.0,0.0,0.0,-2.4389,-2.5362,-2.5459,-2.4984,-2.3975,0.0,-2.4371,-2.4113,-2.6064,-2.8152,-2.8357,-2.9986,-3.1175,-2.9767,-2.9707,-2.9307,-2.6729,-2.5191,0.0,0.0,0.0,0.0,0.0,0.0,0.0,-3.4623,-3.6973,-3.8705,0.0,-4.0733,0.0,-4.1357,-4.1349,-4.1716,0.0,-4.0672,-3.9176,-3.8419,-3.775,-3.6576,-3.4818,-3.487,-3.4264,-3.2982,-3.1924,-3.0889,-2.9894,-2.9642,-2.8949,-2.8023,-2.8113,-2.7784,-2.7081,0.0,-2.4971,-2.4029,-2.3729,-2.3595,-2.3595,-2.3595,-2.2515,-2.0966,-2.1077,-2.0547,-1.9695,0.0,0.0,0.0,0.0,0.0,0.0,0.0,0.0,0.0,0.0,0.0,0.0,0.0,0.0,0.0,0.0,0.0,0.0,0.0,0.0,0.0,0.0,0.0,0.0,0.0,0.0,0.0,0.0,0.0,0.0,0.0,0.0,0.0,0.0,0.0,0.0,0.0,0.0,0.0,0.0,0.0,0.0,0.0,0.0,0.0,0.0,0.0,0.0,0.0,0.0,-2.3067,-2.4823,-2.6024,-2.6639,-2.6621,-2.4959,-2.5397,-2.6178,-2.5467,-2.7243,-2.921,-2.9114,-2.9834,-3.0261,-2.9275,-2.8394,-2.7252,-2.5243,0.0,0.0,-2.153,0.0,-2.2458,-2.4065,0.0,-2.8648,-3.3074,-3.575,-3.8112,-4.0498,-4.1591,-4.2271,-4.2547,-4.211,-4.255,-4.4333,-4.2604,-4.1074,-4.0136,-3.9102,-3.7699,-3.5864,-3.6288,-3.6035,-3.4988,-3.4175,-3.3077,-3.1721,-3.1134,-3.0125,-2.883,-2.8996,-2.8237,-2.6707,-2.6576,-2.5886,-2.4897,-2.3998,-2.3595,-2.3595,-2.3595,-2.3098,-2.2314,-2.1465,-2.0683,-1.9837,0.0,0.0,0.0,0.0,0.0,0.0,0.0,0.0,0.0,0.0,0.0,0.0,0.0,0.0,0.0,0.0,0.0,0.0,0.0,0.0,0.0,0.0,0.0,0.0,0.0,0.0,0.0,0.0,0.0,0.0,0.0,0.0,0.0,0.0,0.0,0.0,0.0,0.0,0.0,0.0,0.0,0.0,0.0,0.0,0.0,0.0,0.0,0.0,0.0,0.0,-2.3523,-2.4889,-2.6096,-2.7583,-2.8709,-2.7948,-2.8362,-2.879,-2.7338,-2.8869,-3.0854,-3.0294,-3.1082,-3.1307,-2.8626,-2.7366,0.0,0.0,0.0,-2.0749,-2.0532,0.0,0.0,-2.5196,0.0,0.0,0.0,0.0,0.0,0.0,0.0,0.0,0.0,0.0,0.0,0.0,0.0,-4.3593,-4.2723,-4.0584,-3.8921,-3.7915,-3.7188,-3.6654,-3.6269,-3.4905,-3.3598,-3.2442,-3.2315,-3.1446,-2.9996,-3.0027,-2.9104,-2.7395,-2.7415,0.0,-2.6841,-2.4534,-2.3595,-2.3595,-2.3595,-2.3098,-2.2314,-2.1805,-2.1293,-2.0733,0.0,0.0,0.0,0.0,0.0,0.0,0.0,0.0,0.0,0.0,0.0,0.0,0.0,0.0,0.0,0.0,0.0,0.0,0.0,0.0,0.0,0.0,0.0,0.0,0.0,0.0,0.0,0.0,0.0,0.0,0.0,0.0,0.0,0.0,0.0,0.0,0.0,0.0,0.0,0.0,0.0,0.0,0.0,0.0,0.0,0.0,0.0,0.0,0.0,0.0,-2.1438,-2.3312,-2.566,-2.688,-2.7201,-2.6325,-2.7417,-2.8633,-2.7178,-2.9268,-3.1827,-3.1662,-3.1753,-3.1048,-2.7924,0.0,0.0,0.0,0.0,-2.0382,-2.0616,0.0,0.0,0.0,0.0,0.0,0.0,0.0,0.0,0.0,0.0,0.0,0.0,0.0,0.0,0.0,0.0,-4.4011,-4.3627,-4.1511,-4.0188,-3.9978,-3.9258,-3.8685,-3.8277,-3.716,-3.5783,-3.4185,-3.3795,-3.2724,-3.0977,-3.0963,-2.9727,-2.7625,-2.7625,-2.7795,-2.7984,-2.5622,-2.4238,-2.3595,-2.3595,-2.3377,-2.3009,-2.2756,-2.171,-2.0346,0.0,0.0,0.0,0.0,0.0,0.0,0.0,0.0,-1.2401,-1.2662,-1.2909,-1.3496,-1.4584,-1.4802,0.0,0.0,0.0,0.0,0.0,0.0,0.0,0.0,0.0,0.0,0.0,0.0,0.0,0.0,0.0,0.0,0.0,0.0,0.0,0.0,0.0,0.0,0.0,0.0,0.0,0.0,0.0,0.0,0.0,0.0,0.0,0.0,0.0,0.0,0.0,0.0,-1.8973,-2.0772,-2.3833,-2.4925,-2.4904,-2.3769,-2.555,-2.7615,-2.6878,-2.9339,-3.2313,-3.2975,-3.2231,-3.0559,-2.7724,-2.6184,0.0,0.0,0.0,-2.0699,-2.1149,0.0,0.0,0.0,0.0,0.0,0.0,0.0,0.0,0.0,0.0,0.0,0.0,0.0,0.0,0.0,0.0,0.0,-4.3654,-4.2314,-4.1603,-4.1705,-4.1423,-4.0907,-4.0158,-3.9338,-3.8071,-3.6319,-3.5459,-3.4153,-3.2476,-3.2376,-3.0922,-2.8438,-2.7831,-2.7978,-2.8435,-2.7288,-2.6043,-2.4754,-2.3949,-2.3774,-2.4059,-2.4343,-2.2833,-2.0557,0.0,0.0,0.0,0.0,0.0,0.0,0.0,0.0,-1.0553,-1.0096,-1.0435,-1.084,-1.1149,-1.2784,0.0,0.0,0.0,0.0,0.0,0.0,0.0,0.0,0.0,0.0,0.0,0.0,0.0,0.0,0.0,0.0,0.0,0.0,0.0,0.0,0.0,0.0,0.0,0.0,0.0,0.0,0.0,0.0,0.0,0.0,0.0,0.0,0.0,0.0,0.0,0.0,0.0,-1.7471,-1.9108,-2.1427,-2.3412,-2.2563,0.0,0.0,-2.7745,-3.0034,-3.2549,-3.3833,-3.2595,-3.0513,-2.8546,0.0,0.0,0.0,-2.1244,-2.1595,-2.1927,-2.2181,0.0,0.0,0.0,0.0,0.0,0.0,0.0,0.0,0.0,0.0,0.0,0.0,0.0,0.0,0.0,0.0,-4.2832,-4.3367,-4.3397,-4.2679,-4.3045,-4.2632,-4.1355,-4.0182,-3.9225,-3.8424,-3.7189,-3.611,-3.5227,-3.522,-3.3736,-3.1086,-2.8645,-2.761,0.0,-2.9874,-2.9971,-2.8545,-2.4994,-2.4343,-2.557,-2.6767,-2.5518,-2.2935,0.0,0.0,0.0,0.0,0.0,0.0,0.0,0.0,-0.9718,-0.8681,-0.9434,-0.999,-0.9885,-1.0928,0.0,0.0,0.0,0.0,0.0,0.0,0.0,0.0,0.0,0.0,0.0,0.0,0.0,0.0,0.0,0.0,0.0,0.0,0.0,0.0,0.0,0.0,0.0,0.0,0.0,0.0,0.0,0.0,0.0,0.0,0.0,0.0,0.0,0.0,0.0,0.0,0.0,0.0,-1.6427,-1.7362,0.0,0.0,-2.1769,-2.469,-2.5423,-2.8157,-3.1352,-3.3738,-3.2592,-3.0359,-2.8318,0.0,0.0,-2.1569,-2.1306,-2.1774,-2.2361,-2.2502,-2.2875,0.0,0.0,0.0,0.0,0.0,0.0,0.0,0.0,0.0,0.0,0.0,0.0,0.0,0.0,0.0,-4.3839,-4.415,-4.4015,-4.3245,-4.3398,-4.3086,-4.2244,-4.125,-4.0481,-3.9916,-3.8581,-3.7148,-3.5622,-3.5622,-3.4997,-3.3868,-3.1018,-2.9345,0.0,-2.8934,-2.9345,-2.95,-2.6964,-2.6318,-2.6856,-2.743,-2.6901,-2.5878,0.0,0.0,0.0,0.0,0.0,0.0,-1.0418,-0.9682,-0.8837,-0.7583,-0.8215,-0.8746,-0.8637,-0.9249,-1.0037,-1.0913,0.0,0.0,0.0,0.0,0.0,0.0,0.0,0.0,0.0,0.0,0.0,0.0,0.0,0.0,0.0,0.0,0.0,0.0,0.0,0.0,0.0,0.0,0.0,0.0,0.0,0.0,0.0,0.0,0.0,0.0,0.0,0.0,0.0,0.0,0.0,0.0,0.0,0.0,0.0,0.0,-1.9314,-2.2268,-2.3401,-2.6261,-2.946,-3.2027,-3.0968,-2.8839,0.0,0.0,0.0,-2.1647,-2.1595,-2.213,-2.2729,-2.2848,-2.3077,-2.3786,0.0,0.0,0.0,0.0,0.0,0.0,0.0,0.0,0.0,0.0,0.0,0.0,0.0,0.0,-4.4429,-4.4414,-4.4194,-4.3679,-4.3529,-4.3339,-4.2939,-4.2229,-4.1695,-4.1266,-3.9764,-3.8146,-3.6502,-3.5898,-3.5622,-3.5459,-3.2971,-3.0761,0.0,-2.8701,-2.8934,-2.9164,-2.8027,-2.781,-2.8076,-2.771,-2.7625,-2.7625,0.0,0.0,0.0,0.0,0.0,0.0,0.0,0.0,-0.7729,-0.6661,-0.6463,-0.6589,-0.6966,-0.7723,-0.8393,-0.8805,0.0,0.0,0.0,0.0,0.0,0.0,0.0,0.0,0.0,0.0,0.0,0.0,0.0,0.0,0.0,0.0,0.0,0.0,0.0,0.0,0.0,0.0,0.0,0.0,0.0,0.0,0.0,0.0,0.0,0.0,0.0,0.0,0.0,0.0,0.0,0.0,0.0,0.0,0.0,0.0,-1.741,-2.0006,-2.2476,-2.4818,-2.699,-2.841,-2.7224,-2.5648,0.0,0.0,0.0,-2.173,-2.2186,-2.2797,-2.3117,-2.3189,-2.3486,-2.4444,-2.4028,0.0,0.0,0.0,0.0,0.0,0.0,0.0,0.0,0.0,0.0,0.0,0.0,0.0,-4.4026,-4.4025,-4.3998,-4.4016,-4.366,-4.3497,-4.3479,-4.2976,-4.2693,-4.2655,-4.0699,-3.9406,-3.8608,-3.6519,-3.5622,-3.5515,-3.417,-3.1318,0.0,-3.0192,-2.9745,-2.7625,-2.7625,-2.8304,-2.9225,-2.8027,-2.7625,-2.7625,0.0,0.0,0.0,0.0,0.0,0.0,0.0,0.0,-0.8021,-0.6683,-0.6471,-0.6618,-0.6944,-0.7262,-0.7702,-0.8329,0.0,0.0,0.0,0.0,0.0,0.0,0.0,0.0,0.0,0.0,0.0,-1.3546,-1.497,0.0,0.0,0.0,0.0,0.0,0.0,0.0,0.0,0.0,0.0,0.0,0.0,0.0,0.0,0.0,0.0,0.0,0.0,0.0,0.0,0.0,0.0,0.0,0.0,0.0,0.0,0.0,0.0,0.0,-1.9673,-2.1184,-2.284,-2.6141,-2.5869,-2.4754,-2.4579,0.0,-2.3289,-2.2152,-2.2361,-2.2797,-2.3141,-2.3189,-2.3611,-2.4878,-2.4894,0.0,0.0,0.0,0.0,0.0,0.0,0.0,0.0,0.0,0.0,0.0,0.0,0.0,-4.3688,-4.3661,-4.3646,-4.3646,-4.3548,-4.3497,-4.3497,-4.3321,-4.325,-4.325,-4.1836,-4.076,-4.001,-3.7665,-3.5954,0.0,-3.4911,-3.3514,-3.1182,-3.1394,-3.0956,-3.0046,-2.8293,-2.8174,-2.9073,-2.9789,-2.9524,-2.881,0.0,0.0,0.0,0.0,0.0,0.0,0.0,0.0,-0.7893,-0.6661,-0.6358,-0.6356,-0.6568,-0.6629,-0.6948,-0.7723,0.0,0.0,0.0,0.0,0.0,0.0,0.0,0.0,0.0,-1.2376,-1.2789,-1.2825,-1.3879,-1.4429,-1.4435,-1.4702,0.0,0.0,0.0,0.0,0.0,0.0,0.0,0.0,0.0,0.0,-1.3868,0.0,0.0,0.0,0.0,0.0,0.0,0.0,0.0,0.0,0.0,0.0,0.0,0.0,-1.4398,0.0,0.0,-1.8742,-2.0229,-2.3232,-2.3406,0.0,0.0,0.0,-2.2873,-2.2177,-2.2551,-2.3118,-2.3432,-2.3668,-2.4044,-2.4729,-2.4907,0.0,0.0,0.0,0.0,0.0,0.0,0.0,0.0,0.0,0.0,0.0,0.0,0.0,-4.3497,-4.3497,-4.3497,-4.3497,-4.3497,-4.3497,-4.3497,-4.3497,-4.3497,-4.3479,-4.206,-4.1002,-4.0205,-3.7978,-3.6172,-3.4816,-3.5362,-3.4918,0.0,-3.3343,-3.2475,-3.1319,-3.0101,-2.9706,-2.9897,-3.0958,-3.1044,-3.0609,0.0,0.0,0.0,0.0,0.0,0.0,0.0,0.0,0.0,0.0,0.0,-0.5861,-0.5906,-0.5918,0.0,0.0,0.0,0.0,0.0,0.0,0.0,0.0,0.0,0.0,0.0,-1.1313,-1.1632,-1.222,-1.2403,-1.2819,-1.3469,-1.4198,-1.4152,0.0,0.0,0.0,0.0,0.0,0.0,0.0,0.0,0.0,0.0,0.0,0.0,0.0,0.0,0.0,0.0,0.0,0.0,0.0,0.0,0.0,0.0,0.0,0.0,0.0,0.0,0.0,0.0,0.0,0.0,0.0,0.0,0.0,0.0,-2.1855,-2.2704,-2.3554,-2.3853,-2.4349,-2.4572,-2.4171,-2.4366,0.0,0.0,0.0,0.0,0.0,0.0,0.0,0.0,0.0,0.0,0.0,0.0,0.0,-4.3497,-4.3497,-4.3497,-4.3497,-4.3497,-4.3497,-4.3497,-4.3444,-4.3479,-4.3495,-4.1558,-4.0311,-3.9647,-3.7696,-3.6383,0.0,-3.5639,-3.5622,-3.5515,-3.5577,-3.4041,-3.1712,-3.2629,-3.2389,-3.149,-3.1607,-3.2126,-3.2631,0.0,0.0,0.0,0.0,0.0,0.0,0.0,0.0,0.0,0.0,0.0,0.0,0.0,0.0,0.0,0.0,0.0,0.0,0.0,0.0,0.0,0.0,0.0,0.0,0.0,-1.1481,-1.2143,-1.2416,-1.3136,-1.3376,-1.3216,-1.3686,-1.3864,-1.3772,-1.4341,0.0,0.0,0.0,0.0,0.0,0.0,0.0,0.0,0.0,0.0,0.0,-1.4246,-1.4627,0.0,0.0,0.0,0.0,0.0,0.0,0.0,0.0,-1.521,-1.54,-1.567,0.0,-1.6541,0.0,0.0,0.0,0.0,0.0,0.0,0.0,0.0,0.0,0.0,0.0,0.0,0.0,0.0,0.0,0.0,0.0,0.0,0.0,0.0,0.0,0.0,0.0,0.0,0.0,0.0,-4.3772,-4.3513,-4.3497,-4.3497,-4.3497,-4.3497,-4.3497,-4.3497,-4.3087,-4.3231,-4.3862,-4.1252,-4.0299,-4.0739,-3.8027,-3.6404,-3.5708,-3.6059,-3.5671,-3.4894,-3.5362,-3.4526,-3.2974,-3.2991,-3.263,-3.2093,-3.2232,-3.2669,-3.3212,0.0,0.0,0.0,0.0,0.0,0.0,0.0,0.0,0.0,0.0,0.0,0.0,0.0,0.0,0.0,0.0,0.0,0.0,0.0,0.0,0.0,0.0,0.0,0.0,0.0,-1.1755,-1.2275,-1.2636,-1.2867,-1.2979,-1.3066,-1.3298,-1.3417,-1.345,-1.368,0.0,0.0,0.0,0.0,0.0,-1.3501,0.0,0.0,0.0,0.0,0.0,-1.373,-1.4221,0.0,-1.4687,-1.4924,-1.5229,0.0,0.0,0.0,0.0,-1.5344,-1.5841,-1.6087,-1.6157,-1.6618,-1.8532,-1.9329,-1.9719,0.0,0.0,0.0,0.0,0.0,0.0,0.0,0.0,0.0,0.0,0.0,0.0,0.0,0.0,0.0,0.0,0.0,0.0,0.0,0.0,0.0,0.0,0.0,-4.3849,-4.3513,-4.3497,-4.3497,-4.3497,-4.3497,-4.3497,-4.3497,-4.3214,-4.3101,-4.3185,-4.0831,-3.9782,-3.9815,-3.7353,-3.603,-3.5666,-3.6165,-3.589,-3.5098,-3.5705,-3.5129,-3.3921,-3.4141,-3.3801,-3.3347,-3.3751,-3.4124,-3.4464,0.0,0.0,0.0,0.0,0.0,0.0,0.0,0.0,0.0,0.0,0.0,0.0,0.0,0.0,0.0,0.0,0.0,0.0,0.0,0.0,0.0,0.0,0.0,0.0,-1.1783,-1.1827,-1.2077,-1.2584,-1.2222,-1.2345,-1.2888,-1.3017,-1.3019,-1.3021,-1.3058,0.0,0.0,0.0,0.0,0.0,-1.2838,0.0,0.0,0.0,0.0,0.0,0.0,0.0,0.0,-1.3751,-1.4345,-1.5304,-1.4169,0.0,0.0,0.0,0.0,0.0,-1.6728,-1.7334,-1.7945,-1.8893,-1.9476,-1.986,0.0,0.0,0.0,0.0,0.0,0.0,0.0,0.0,0.0,0.0,0.0,0.0,0.0,0.0,0.0,0.0,0.0,0.0,0.0,0.0,0.0,0.0,0.0,-4.3943,-4.3597,-4.3513,-4.3497,-4.3497,-4.3497,-4.3497,-4.3497,-4.341,-4.3041,-4.2349,-4.0506,-3.9242,-3.85,-3.6686,-3.5854,-3.5854,0.0,0.0,-3.5739,-3.6224,-3.565,-3.4556,-3.5199,-3.5064,-3.4573,-3.5216,-3.552,-3.5633,0.0,0.0,0.0,0.0,0.0,0.0,0.0,0.0,0.0,0.0,0.0,0.0,0.0,0.0,0.0,0.0,0.0,0.0,0.0,0.0,0.0,0.0,0.0,-1.0163,-1.0978,-1.106,-1.125,-1.1601,-1.2036,-1.232,-1.2404,-1.2755,-1.296,-1.3021,-1.3058,-1.291,-1.2615,-1.2615,-1.233,-1.192,-1.1993,0.0,0.0,0.0,0.0,0.0,0.0,0.0,0.0,-1.3927,-1.4028,-1.4079,-1.387,0.0,0.0,0.0,0.0,0.0,-1.7225,-1.8379,-1.9292,-2.0061,-2.0759,-2.119,0.0,0.0,0.0,0.0,0.0,0.0,0.0,0.0,0.0,0.0,0.0,0.0,0.0,0.0,0.0,0.0,0.0,0.0,0.0,0.0,0.0,0.0,0.0,-4.4337,-4.3924,-4.3646,-4.3497,-4.3497,-4.3497,-4.3497,-4.3497,-4.305,-4.2775,-4.2698,-4.0527,-3.9496,-3.9355,-3.77,-3.6943,-3.6943,0.0,-3.6764,-3.6291,-3.6392,-3.565,-3.4506,-3.4624,-3.459,-3.4506,-3.4624,-3.5064,-3.561,0.0,0.0,0.0,0.0,0.0,0.0,0.0,0.0,0.0,0.0,0.0,0.0,0.0,0.0,0.0,0.0,0.0,0.0,0.0,0.0,0.0,0.0,-0.9647,-1.0161,-1.1297,-1.1586,-1.1782,-1.1899,-1.2404,-1.2641,-1.2634,-1.3131,-1.324,-1.3032,-1.3397,-1.3182,-1.2508,-1.2508,-1.2066,-1.1394,0.0,0.0,0.0,0.0,0.0,0.0,0.0,0.0,0.0,0.0,-1.3489,-1.4154,-1.3062,0.0,0.0,0.0,0.0,0.0,-1.6745,-1.7666,-1.8507,-1.9283,-2.0837,-2.2158,0.0,0.0,0.0,0.0,0.0,0.0,0.0,0.0,0.0,0.0,0.0,0.0,0.0,0.0,0.0,0.0,0.0,0.0,0.0,0.0,0.0,0.0,0.0,0.0,-4.4346,-4.3974,-4.3772,-4.3772,-4.3597,-4.3497,-4.3497,-4.325,-4.2715,-4.1859,-4.0564,-3.95,-3.8664,-3.7667,-3.719,-3.721,0.0,-3.7135,-3.6416,-3.6724,-3.6167,-3.5098,-3.5098,-3.5098,-3.5098,-3.5098,-3.5477,-3.6045,0.0,0.0,0.0,0.0,0.0,0.0,0.0,0.0,0.0,0.0,0.0,0.0,0.0,0.0,0.0,0.0,0.0,0.0,0.0,0.0,-0.8638,-0.9491,-0.9472,-1.0128,-1.1568,-1.1899,-1.2031,-1.1973,-1.2549,-1.2791,-1.2725,-1.3238,-1.3224,-1.2877,-1.3386,-1.3135,-1.2318,-1.221,-1.1653,-1.0867,0.0,0.0,0.0,0.0,0.0,0.0,0.0,0.0,0.0,0.0,0.0,0.0,0.0,0.0,0.0,-1.4109,-1.4633,-1.5689,-1.62,-1.6987,-1.7861,0.0,0.0,0.0,0.0,0.0,0.0,0.0,0.0,0.0,0.0,0.0,0.0,0.0,0.0,0.0,0.0,0.0,0.0,0.0,0.0,0.0,0.0,0.0,0.0,0.0,0.0,0.0,-4.4726,-4.4346,-4.4106,-4.3998,-4.3758,-4.3563,-4.3497,-4.3497,-4.269,-4.1079,-4.0684,-3.9639,-3.8065,-3.7703,-3.756,-3.756,-3.7685,-3.7323,-3.6603,-3.6764,-3.6316,-3.5605,-3.5419,-3.5351,-3.5368,-3.5554,-3.5941,-3.6457,0.0,0.0,0.0,0.0,0.0,0.0,0.0,0.0,0.0,0.0,0.0,0.0,0.0,0.0,0.0,0.0,0.0,0.0,0.0,0.0,-0.8145,-0.8999,-0.9033,-0.9672,-1.1035,-1.1035,-1.101,-1.0989,-1.1851,-1.2246,-1.2266,-1.2358,-1.2424,-1.2469,0.0,-1.2256,-1.1811,-1.1319,-1.0802,-1.039,-1.0867,0.0,0.0,0.0,0.0,0.0,0.0,0.0,0.0,0.0,0.0,0.0,0.0,0.0,-1.3929,-1.384,-1.4318,-1.5086,-1.6126,-1.7436,-1.8569,-1.8824,0.0,0.0,0.0,0.0,0.0,0.0,0.0,0.0,0.0,0.0,0.0,0.0,0.0,0.0,0.0,0.0,0.0,0.0,0.0,0.0,0.0,0.0,0.0,0.0,0.0,0.0,-4.5052,-4.4732,-4.4392,-4.3998,-4.3986,-4.3818,-4.3479,-4.3497,-4.269,-4.1111,-4.1079,-4.0185,-3.8627,-3.8596,-3.8596,-3.8546,-3.7632,-3.7228,-3.7076,-3.6122,-3.565,-3.5554,-3.4844,-3.4573,-3.4658,-3.5368,-3.5941,-3.6457,0.0,0.0,0.0,0.0,0.0,0.0,0.0,0.0,0.0,0.0,0.0,0.0,0.0,0.0,0.0,0.0,0.0,0.0,0.0,0.0,-0.8932,-0.9787,-1.012,-1.0686,-1.1494,-1.1114,-1.0908,-1.0908,-1.1514,-1.1816,-1.1851,-1.223,-1.2277,0.0,0.0,-1.2069,-1.1282,-1.1094,-1.0905,-1.0764,-1.0943,-1.1505,0.0,0.0,0.0,0.0,0.0,0.0,0.0,0.0,-1.2371,-1.2726,0.0,-1.2927,-1.3735,-1.3301,-1.4106,-1.5159,-1.5366,-1.657,-1.7858,-1.8037,0.0,0.0,0.0,0.0,0.0,0.0,0.0,0.0,0.0,0.0,0.0,0.0,0.0,0.0,0.0,0.0,0.0,0.0,0.0,0.0,0.0,0.0,0.0,0.0,0.0,0.0,-4.5096,-4.4966,-4.483,-4.4688,-4.4261,-4.3924,-4.3804,-4.3579,-4.269,-4.1111,-4.1111,-4.0267,-3.8707,-3.8707,-3.8707,-3.8676,-3.8285,-3.7791,-3.7173,-3.6746,-3.6207,-3.5588,-3.5301,-3.5199,-3.5233,-3.552,-3.5941,-3.6457,0.0,0.0,0.0,0.0,0.0,0.0,0.0,0.0,0.0,0.0,0.0,0.0,0.0,0.0,0.0,0.0,0.0,0.0,0.0,0.0,-0.9365,-1.014,-1.0438,-1.0799,-1.1264,-1.0788,-1.0696,-1.1145,-1.1286,-1.1332,-1.1194,-1.1768,0.0,0.0,0.0,0.0,-1.1008,-1.1148,-1.1035,-1.0802,-1.1132,-1.1653,0.0,0.0,0.0,0.0,0.0,0.0,0.0,0.0,0.0,0.0,0.0,0.0,0.0,0.0,-1.4178,-1.5452,-1.4914,-1.6134,-1.7572,0.0,0.0,0.0,0.0,0.0,0.0,0.0,0.0,0.0,0.0,0.0,0.0,0.0,0.0,0.0,0.0,0.0,0.0,0.0,0.0,0.0,0.0,0.0,0.0,0.0,0.0,0.0,0.0,-4.5096,-4.5096,-4.5096,-4.4508,-4.4005,-4.3625,-4.3291,-4.2304,-4.0726,-4.0817,-4.0099,-3.8707,-3.8707,-3.8707,-3.8676,-3.8368,-3.7682,-3.6801,-3.6496,-3.5928,-3.5267,-3.5267,-3.5402,-3.5622,-3.5622,-3.581,-3.6249,0.0,0.0,0.0,0.0,0.0,0.0,0.0,0.0,0.0,0.0,0.0,0.0,0.0,0.0,0.0,0.0,0.0,0.0,0.0,-0.9,-0.9147,-0.988,-0.9681,-0.9743,-1.0199,-0.9828,-1.0301,-1.1701,-1.1145,-1.0693,-1.0322,-1.0802,0.0,0.0,0.0,0.0,-1.1008,-1.1487,-1.1175,-1.04,-1.1404,-1.1811,-1.1945,0.0,0.0,0.0,0.0,0.0,0.0,0.0,-1.1534,0.0,0.0,0.0,0.0,0.0,-1.4569,-1.5911,-1.4969,-1.6373,0.0,0.0,0.0,0.0,0.0,0.0,0.0,0.0,0.0,0.0,0.0,0.0,0.0,0.0,0.0,0.0,0.0,0.0,0.0,0.0,0.0,0.0,0.0,0.0,0.0,0.0,0.0,0.0,0.0,-4.5096,-4.5096,-4.5096,-4.4757,-4.4006,-4.2816,-4.2461,-4.1479,-3.9882,-4.0166,-3.9729,-3.8707,-3.8707,-3.8707,-3.8627,-3.7632,-3.675,-3.5932,-3.4888,-3.4489,-3.4489,-3.4506,-3.4962,-3.5622,-3.5622,-3.5622,-3.5783,0.0,0.0,0.0,0.0,0.0,0.0,0.0,0.0,0.0,0.0,0.0,0.0,0.0,0.0,0.0,0.0,0.0,0.0,0.0,-0.9957,-1.0341,-1.0799,-1.1496,-1.1699,-1.1263,-1.0776,-1.0608,-1.0783,-1.0919,-1.0925,0.0,0.0,0.0,-1.0534,0.0,0.0,-1.0544,-1.1008,-1.1046,-1.0829,-1.1542,-1.1993,-1.2461,0.0,0.0,0.0,0.0,0.0,0.0,0.0,0.0,0.0,0.0,0.0,0.0,-1.2934,-1.4432,-1.605,-1.5206,0.0,0.0,0.0,0.0,0.0,0.0,0.0,0.0,0.0,0.0,0.0,0.0,0.0,0.0,0.0,0.0,0.0,0.0,0.0,0.0,0.0,0.0,0.0,0.0,0.0,0.0,0.0,0.0,0.0,0.0,-4.4507,-4.4988,-4.4776,-4.4071,-4.3386,-4.2816,-4.1907,-4.0928,-3.99,-3.9989,-3.9565,-3.8707,-3.8913,-3.8884,-3.864,-3.7419,-3.6577,-3.5932,-3.4888,-3.4489,-3.4539,-3.5081,-3.5419,-3.5622,-3.5622,-3.5854,-3.6138,0.0,0.0,0.0,0.0,0.0,0.0,0.0,0.0,0.0,0.0,0.0,0.0,0.0,0.0,0.0,0.0,0.0,0.0,0.0,0.0,-1.0829,-1.1375,-1.1928,-1.1954,-1.1435,-1.1479,-1.14,-1.1228,-1.1056,0.0,0.0,0.0,-1.0562,-1.0322,0.0,-1.0902,0.0,-1.1185,-1.1223,-1.0764,-1.1282,-1.1861,-1.2602,0.0,0.0,0.0,0.0,0.0,0.0,0.0,0.0,0.0,0.0,0.0,0.0,-1.3391,-1.4572,-1.5916,-1.637,0.0,0.0,0.0,0.0,0.0,0.0,0.0,0.0,0.0,0.0,0.0,0.0,0.0,0.0,0.0,0.0,0.0,0.0,0.0,0.0,0.0,0.0,0.0,0.0,0.0,0.0,0.0,0.0,0.0,0.0,-4.3984,-4.4487,-4.4115,-4.3457,-4.2687,-4.1847,-4.1021,-4.0065,-3.8946,-3.8885,-3.837,-3.7484,-3.7948,-3.8113,-3.7854,-3.607,-3.512,-3.4721,-3.3624,-3.3355,-3.366,-3.4117,-3.4472,-3.4776,-3.5064,-3.5368,-3.5658,0.0,0.0,0.0,0.0,0.0,0.0,0.0,0.0,0.0,0.0,0.0,0.0,0.0,0.0,0.0,0.0,0.0,0.0,0.0,0.0,-1.0794,-1.168,-1.1428,-1.1242,-1.1245,-1.2015,-1.2516,-1.2729,-1.1657,0.0,0.0,0.0,-1.038,-1.0488,0.0,-1.1132,-1.0527,-1.1766,-1.1498,-1.0361,-1.0867,-1.1619,-1.2519,-1.3498,0.0,0.0,0.0,0.0,0.0,0.0,0.0,0.0,0.0,0.0,-1.3099,-1.4363,-1.503,-1.5825,0.0,0.0,0.0,0.0,0.0,0.0,0.0,0.0,0.0,0.0,0.0,0.0,0.0,0.0,0.0,0.0,0.0,0.0,0.0,0.0,0.0,0.0,0.0,0.0,0.0,0.0,0.0,0.0,0.0,0.0,0.0,-4.3346,-4.3567,-4.3107,-4.2763,-4.1884,-4.0412,-3.9988,-3.9032,-3.7518,-3.74,-3.6717,-3.563,-3.6353,-3.6594,-3.6332,-3.4129,-3.3026,-3.281,-3.1786,-3.176,-3.2371,-3.2398,-3.2797,-3.3491,-3.415,-3.4438,-3.466,0.0,0.0,0.0,0.0,0.0,0.0,0.0,0.0,0.0,0.0,0.0,0.0,0.0,0.0,0.0,0.0,0.0,0.0,0.0,0.0,-1.0856,-1.1904,-1.1733,-1.2138,-1.3246,-1.2637,-1.3051,-1.4541,-1.3251,0.0,0.0,0.0,0.0,-1.1464,0.0,-1.1274,-1.1554,-1.1383,-1.0895,-1.04,-1.1255,-1.1959,-1.2554,-1.3868,-1.4254,0.0,0.0,0.0,0.0,0.0,0.0,0.0,-1.3075,-1.3812,-1.4681,-1.4934,-1.6067,0.0,0.0,0.0,0.0,0.0,0.0,0.0,0.0,0.0,0.0,0.0,0.0,0.0,0.0,0.0,0.0,0.0,0.0,0.0,0.0,0.0,0.0,0.0,0.0,0.0,0.0,0.0,0.0,0.0,0.0,0.0,-4.0554,-4.1542,-4.1954,-4.1582,-4.1155,-4.0728,-4.0347,-3.9416,-3.8564,-3.7801,-3.7579,-3.6784,-3.5612,-3.5679,-3.5052,-3.3898,-3.3688,-3.302,-3.2083,-3.2475,-3.2714,-3.2882,-3.308,-3.3271,-3.3423,-3.3592,-3.3998,-3.438,0.0,0.0,0.0,0.0,0.0,0.0,0.0,0.0,0.0,0.0,0.0,0.0,0.0,0.0,0.0,0.0,0.0,0.0,0.0,0.0,0.0,0.0,-1.2743,-1.3127,-1.3888,-1.373,-1.4125,0.0,0.0,0.0,0.0,0.0,0.0,-1.2098,0.0,-1.1273,-1.1781,-1.146,-1.1229,-1.105,-1.154,-1.2263,-1.3187,-1.4213,-1.4539,-1.4552,-1.54,0.0,0.0,0.0,0.0,0.0,0.0,0.0,-1.5092,-1.5729,-1.6381,-1.7199,0.0,0.0,0.0,0.0,0.0,0.0,0.0,0.0,0.0,0.0,0.0,0.0,0.0,0.0,0.0,0.0,0.0,0.0,0.0,0.0,0.0,0.0,0.0,0.0,0.0,0.0,0.0,0.0,0.0,-4.0677,-3.995,-4.0837,-4.0996,-4.0154,-3.9575,-3.9209,-3.916,-3.7875,-3.7198,-3.7128,-3.6373,-3.5331,-3.4124,-3.444,-3.4077,-3.3137,-3.3119,-3.2871,-3.2502,-3.2687,-3.2613,-3.2446,-3.2595,-3.2508,-3.2391,-3.273,-3.3119,-3.3372,0.0,0.0,0.0,0.0,0.0,0.0,0.0,0.0,0.0,0.0,0.0,0.0,0.0,0.0,0.0,0.0,0.0,0.0,0.0,0.0,0.0,0.0,-1.3839,-1.4052,-1.4187,-1.4769,-1.5165,0.0,0.0,0.0,0.0,0.0,0.0,-1.2712,0.0,-1.1439,-1.1942,-1.1865,-1.1843,-1.1782,-1.1821,-1.2623,-1.3848,-1.4446,-1.4808,-1.5096,-1.6159,-1.5502,-1.4139,-1.4019,0.0,0.0,0.0,0.0,-1.5081,-1.6406,-1.6485,-1.6639,0.0,0.0,0.0,0.0,0.0,0.0,0.0,0.0,0.0,0.0,0.0,0.0,0.0,0.0,0.0,0.0,0.0,0.0,0.0,0.0,0.0,0.0,0.0,0.0,0.0,0.0,0.0,0.0,0.0,-3.9798,-3.9381,-4.0079,-3.9904,-3.8645,-3.8026,-3.7715,-3.7711,-3.6295,-3.5745,-3.6009,-3.4599,-3.3516,-3.2731,-3.3273,-3.3351,-3.3045,-3.2745,-3.2795,-3.3045,-3.2745,-3.2316,-3.1789,-3.1789,-3.1565,-3.1258,-3.1867,-3.2252,-3.2502,0.0,0.0,0.0,0.0,0.0,0.0,0.0,0.0,0.0,0.0,0.0,0.0,0.0,0.0,0.0,0.0,0.0,0.0,-1.2812,0.0,0.0,-1.3677,-1.4139,-1.471,-1.5374,-1.5181,-1.5448,0.0,0.0,0.0,0.0,0.0,0.0,-1.3826,0.0,0.0,-1.2878,-1.2579,-1.2195,-1.1744,-1.2196,-1.2965,-1.3854,-1.4332,-1.4982,-1.5694,-1.5873,-1.5769,-1.5454,-1.4857,-1.4663,0.0,0.0,0.0,-1.5421,-1.6473,-1.6946,0.0,0.0,0.0,0.0,0.0,0.0,0.0,0.0,0.0,0.0,0.0,0.0,0.0,0.0,0.0,0.0,0.0,0.0,0.0,0.0,0.0,0.0,0.0,0.0,0.0,0.0,0.0,0.0,0.0,-3.8228,-3.8158,-3.7195,-3.7671,-3.7558,-3.6692,-3.6593,-3.6628,-3.6864,-3.6024,-3.5381,-3.4982,-3.3057,-3.2654,-3.3606,-3.2948,-3.2657,-3.2616,-3.2952,-3.2921,-3.2616,-3.2983,-3.2598,-3.1789,-3.1789,-3.1565,-3.1207,-3.1309,-3.1991,-3.2821,0.0,0.0,0.0,0.0,0.0,0.0,0.0,0.0,0.0,0.0,0.0,0.0,0.0,0.0,0.0,-1.1989,-1.2046,-1.2569,-1.3767,-1.4241,-1.4516,-1.4479,-1.4903,-1.5182,-1.5316,-1.5608,0.0,0.0,0.0,0.0,0.0,-1.2725,-1.251,0.0,0.0,0.0,0.0,0.0,-1.32,-1.3077,-1.3912,-1.4405,-1.4742,-1.571,-1.6174,-1.6383,-1.6924,-1.6773,-1.6188,-1.5357,-1.5212,-1.5304,-1.4929,0.0,0.0,0.0,-1.6901,0.0,0.0,0.0,0.0,0.0,0.0,0.0,0.0,0.0,0.0,0.0,0.0,0.0,0.0,0.0,0.0,0.0,0.0,0.0,0.0,0.0,0.0,0.0,0.0,0.0,0.0,0.0,0.0,0.0,-3.7718,-3.7508,-3.6752,-3.6904,-3.649,-3.52,-3.523,-3.5283,-3.5355,-3.4362,-3.3741,-3.3514,-3.2406,-3.2317,-3.3039,-3.2007,-3.1816,-3.2294,-3.2925,-3.2701,-3.193,-3.2567,-3.24,-3.1823,-3.231,-3.2217,-3.1799,-3.1799,-3.2325,-3.2882,0.0,0.0,0.0,0.0,0.0,0.0,0.0,0.0,0.0,0.0,0.0,0.0,0.0,0.0,0.0,0.0,-1.2878,-1.3406,-1.4568,-1.4752,-1.4968,-1.5255,-1.5535,-1.5579,-1.5419,0.0,0.0,0.0,0.0,0.0,-1.3547,-1.2061,-1.1608,0.0,-1.1739,0.0,0.0,0.0,0.0,0.0,-1.5258,-1.5561,-1.5616,-1.6515,-1.6799,-1.6833,-1.7775,-1.7562,-1.6758,-1.6049,-1.5887,-1.5807,-1.5242,-1.5561,0.0,0.0,0.0,0.0,0.0,0.0,0.0,0.0,0.0,0.0,0.0,0.0,0.0,0.0,0.0,0.0,0.0,0.0,0.0,0.0,0.0,0.0,0.0,0.0,0.0,0.0,0.0,0.0,0.0,0.0,0.0,0.0,-3.7125,-3.6804,-3.5904,-3.5994,-3.5291,-3.3628,-3.3592,-3.3563,-3.3442,-3.2314,-3.1751,-3.1751,-3.1507,-3.1573,-3.193,-3.1237,-3.1123,-3.1536,-3.2475,-3.2353,-3.1555,-3.2237,-3.2179,-3.1746,-3.2634,-3.2715,-3.2313,-3.2313,-3.2615,-3.2882,0.0,0.0,0.0,0.0,0.0,0.0,0.0,0.0,0.0,0.0,0.0,0.0,-1.2304,-1.2685,-1.3169,-1.3762,-1.416,-1.4585,-1.5043,-1.5477,-1.5741,-1.577,-1.5799,0.0,-1.6231,-1.5536,0.0,0.0,0.0,0.0,-1.3455,-1.1296,-1.0154,-1.0064,-1.1868,-1.2734,-1.2897,0.0,0.0,0.0,0.0,0.0,0.0,0.0,0.0,0.0,0.0,0.0,-1.7264,-1.7301,-1.6837,-1.6219,-1.5868,-1.5769,-1.5885,0.0,0.0,0.0,0.0,0.0,0.0,0.0,0.0,0.0,0.0,0.0,0.0,0.0,0.0,0.0,0.0,0.0,0.0,0.0,0.0,0.0,0.0,0.0,0.0,0.0,0.0,0.0,0.0,0.0,0.0,0.0,-3.6083,-3.5552,-3.3657,-3.4042,-3.3481,-3.1623,-3.1543,-3.1389,-3.1083,-3.0184,-2.9744,-2.9744,-2.9676,-2.9907,-3.045,-3.1026,-3.0715,-2.9826,-3.1362,-3.1937,-3.1827,-3.2298,-3.1986,-3.1336,-3.2538,-3.2715,-3.2313,-3.2313,-3.2615,-3.2882,0.0,0.0,0.0,0.0,0.0,0.0,0.0,0.0,0.0,0.0,0.0,0.0,0.0,-1.3927,-1.407,-1.4396,-1.4713,-1.4947,-1.51,-1.5536,-1.5799,-1.5799,-1.5739,-1.5477,-1.5093,-1.4762,0.0,0.0,0.0,-1.299,-1.3104,-1.1826,-1.0939,-1.0466,-1.1208,-1.1938,-1.276,-1.5065,0.0,0.0,0.0,0.0,0.0,0.0,0.0,0.0,0.0,0.0,0.0,-1.8067,-1.7508,-1.6936,-1.6502,-1.6099,-1.5885,-1.6191,-1.6474,0.0,0.0,0.0,0.0,0.0,0.0,0.0,0.0,0.0,0.0,0.0,0.0,0.0,0.0,0.0,0.0,0.0,0.0,0.0,0.0,0.0,0.0,0.0,0.0,0.0,0.0,0.0,0.0,0.0,0.0,-3.3697,-3.2745,-3.2825,-3.2091,-3.0301,-3.0784,-3.0764,-3.0074,-3.0043,-2.9772,-2.9211,-2.9234,-2.9315,-2.9472,-2.972,-2.9857,-2.9962,-3.0749,-3.0959,-3.0745,-3.1394,-3.1487,-3.1297,-3.2207,-3.2457,-3.2313,-3.2313,-3.2615,-3.2882,0.0,0.0,0.0,0.0,0.0,0.0,0.0,0.0,0.0,0.0,0.0,0.0,0.0,0.0,-1.457,-1.4816,-1.5142,-1.5327,-1.5327,-1.5681,-1.5786,-1.5551,-1.5371,-1.493,-1.4215,-1.384,0.0,0.0,0.0,0.0,0.0,-1.2445,-1.1886,-1.1463,-1.167,-1.2076,0.0,0.0,0.0,-1.6213,0.0,0.0,-1.6505,0.0,0.0,0.0,0.0,0.0,0.0,0.0,0.0,-1.7542,-1.6909,-1.6413,-1.6158,-1.6359,-1.653,0.0,0.0,0.0,0.0,0.0,0.0,0.0,0.0,0.0,0.0,0.0,0.0,0.0,0.0,0.0,0.0,0.0,0.0,0.0,0.0,0.0,0.0,0.0,0.0,0.0,0.0,0.0,0.0,0.0,0.0,0.0,-3.1891,-3.1824,-3.0872,-2.8895,-2.953,-2.9307,-2.8112,-2.8512,-2.8447,-2.7876,-2.8053,-2.8178,-2.8249,-2.8876,-2.9382,-2.9753,-3.0292,-3.0493,-3.0492,-3.1043,-3.1096,-3.0979,-3.1951,-3.2186,-3.2034,-3.2232,-3.2497,-3.2634,0.0,0.0,0.0,0.0,0.0,0.0,0.0,0.0,0.0,-1.2953,0.0,0.0,0.0,0.0,0.0,-1.5059,-1.5536,-1.5786,-1.5801,-1.5923,-1.575,-1.5129,-1.4789,-1.4327,-1.3795,-1.2869,0.0,0.0,0.0,0.0,0.0,0.0,-1.2821,0.0,-1.3429,-1.3423,-1.3004,0.0,-1.5548,-1.5632,0.0,-1.704,-1.7038,0.0,0.0,0.0,-1.9578,-1.9594,0.0,0.0,0.0,0.0,0.0,0.0,0.0,0.0,0.0,0.0,0.0,0.0,0.0,0.0,0.0,0.0,0.0,0.0,0.0,0.0,0.0,0.0,0.0,0.0,0.0,0.0,0.0,0.0,0.0,0.0,0.0,0.0,0.0,0.0,0.0,0.0,0.0,0.0,-3.2703,-3.2269,-3.1031,-3.094,-2.979,-2.7345,-2.7629,-2.6951,-2.5108,-2.5439,-2.5609,-2.5609,-2.6,-2.6396,-2.6775,-2.8647,-2.9299,-2.9059,-2.9928,-3.0658,-3.1162,-3.1239,-3.0849,-3.0399,-3.1813,-3.1912,-3.1461,-3.2059,-3.2297,-3.2154,0.0,0.0,0.0,0.0,0.0,0.0,0.0,0.0,0.0,0.0,0.0,0.0,-1.3941,-1.4021,-1.4365,-1.511,-1.5272,-1.5531,-1.5991,-1.6063,-1.5788,-1.5207,-1.4797,-1.4161,-1.3174,-1.26,-1.2654,0.0,0.0,0.0,0.0,0.0,0.0,0.0,-1.4563,-1.4914,-1.4812,-1.5736,0.0,0.0,-1.7114,-1.7193,0.0,0.0,0.0,0.0,0.0,-1.9051,0.0,0.0,-1.8481,-1.8356,0.0,0.0,0.0,0.0,0.0,0.0,-1.6866,0.0,0.0,0.0,0.0,0.0,0.0,0.0,0.0,0.0,0.0,0.0,0.0,0.0,0.0,0.0,0.0,0.0,0.0,0.0,0.0,0.0,0.0,0.0,0.0,0.0,0.0,0.0,-3.07,-3.0459,-3.0152,-2.9499,-2.8263,-2.6417,-2.6541,-2.6138,-2.5051,-2.5408,-2.5609,-2.5609,-2.6264,-2.6621,-2.6742,-2.8388,-2.9102,-2.9059,-3.0376,-3.0797,-3.0535,-3.0103,-2.9806,-2.9722,-3.0566,-3.0771,-3.0674,-3.1261,-3.1495,-3.1461,0.0,0.0,0.0,0.0,0.0,0.0,0.0,0.0,0.0,0.0,0.0,0.0,-1.3864,-1.391,-1.4147,-1.4674,-1.4966,-1.5309,-1.5663,-1.5535,-1.5184,-1.4585,-1.4201,-1.3572,-1.2677,-1.2457,-1.2614,0.0,0.0,0.0,0.0,0.0,0.0,0.0,0.0,0.0,0.0,0.0,0.0,0.0,-1.6925,0.0,0.0,-1.7598,-1.7846,0.0,0.0,0.0,-1.8478,-1.821,-1.8172,0.0,0.0,0.0,0.0,0.0,0.0,0.0,0.0,0.0,0.0,0.0,0.0,0.0,-1.6728,-1.7259,0.0,0.0,0.0,0.0,0.0,0.0,0.0,0.0,0.0,0.0,0.0,0.0,0.0,0.0,0.0,0.0,0.0,-2.8764,-2.8621,-2.8817,-2.8752,-2.8664,-2.8596,-2.7974,-2.7006,-2.5582,-2.593,-2.5462,-2.4036,-2.4602,-2.4985,-2.5152,-2.5575,-2.6099,-2.6725,-2.7943,-2.8501,-2.8586,-2.9811,-3.0152,-2.9823,-2.95,-2.9271,-2.912,-2.9996,-3.0152,-3.0038,-3.0878,-3.119,-3.119,0.0,0.0,0.0,0.0,0.0,0.0,0.0,0.0,0.0,0.0,-1.4325,-1.4001,-1.3593,-1.3712,-1.3869,-1.3988,-1.4593,-1.4975,-1.5042,-1.4727,-1.4283,-1.3737,-1.339,-1.2916,-1.2379,-1.2551,-1.2838,0.0,0.0,0.0,0.0,0.0,0.0,0.0,0.0,0.0,0.0,0.0,0.0,-1.6561,-1.6502,-1.6799,0.0,0.0,-1.7585,0.0,-1.7933,-1.7933,-1.7947,-1.8066,-1.8016,0.0,0.0,0.0,0.0,0.0,-1.8659,0.0,0.0,0.0,0.0,0.0,0.0,0.0,-1.6952,-1.6721,-1.6784,0.0,0.0,0.0,0.0,0.0,0.0,0.0,0.0,0.0,0.0,0.0,0.0,0.0,0.0,0.0,-2.6551,-2.6705,-2.6842,-2.6898,-2.7109,-2.7104,-2.6749,-2.6646,-2.6066,-2.486,-2.5469,-2.4842,-2.2789,-2.3569,-2.4139,-2.4506,-2.4675,-2.5423,-2.6725,-2.7469,-2.7807,-2.7927,-2.8915,-2.9334,-2.9279,-2.948,-2.9164,-2.8716,-2.9909,-3.0041,-2.9701,-3.0845,-3.1291,-3.1346,-1.1058,0.0,0.0,0.0,0.0,0.0,0.0,0.0,0.0,-1.3809,-1.327,-1.2658,-1.2507,-1.2534,-1.2873,-1.3763,-1.3971,-1.4264,-1.4767,-1.4721,-1.4402,-1.3817,-1.3719,-1.3377,-1.2807,-1.3284,-1.3594,0.0,0.0,0.0,0.0,0.0,0.0,0.0,0.0,0.0,0.0,0.0,0.0,-1.8285,-1.7021,0.0,-1.7286,-1.7312,-1.7353,-1.7381,-1.6899,-1.6756,-1.6951,0.0,-1.8101,-1.8236,0.0,0.0,0.0,0.0,0.0,0.0,0.0,0.0,0.0,0.0,0.0,0.0,-1.6359,-1.6617,-1.7038,0.0,0.0,0.0,0.0,0.0,0.0,0.0,0.0,0.0,0.0,0.0,0.0,0.0,0.0,0.0,-2.6191,-2.6241,-2.6442,-2.6879,-2.6952,-2.66,-2.5741,-2.6287,-2.5913,-2.4368,-2.4572,-2.4193,-2.3093,-2.3949,-2.4414,-2.4523,-2.5693,-2.642,-2.6725,-2.7469,-2.7981,-2.837,-2.9781,-3.0111,-2.966,-3.0319,-3.0035,-2.9287,-3.0054,-3.0443,-3.0767,-3.1439,-3.1897,-3.2266,-1.1519,0.0,0.0,0.0,0.0,0.0,0.0,0.0,0.0,-1.3645,-1.3403,-1.2909,-1.2577,-1.2547,-1.275,-1.331,-1.3354,-1.3658,-1.4367,-1.4291,-1.4236,-1.4236,-1.4236,-1.4107,-1.38,-1.4365,-1.4675,0.0,0.0,0.0,0.0,0.0,0.0,0.0,0.0,0.0,0.0,0.0,-1.8027,-1.838,-1.7034,0.0,-1.7271,-1.6993,-1.6727,-1.6446,-1.6471,-1.6642,-1.7034,-1.7827,-1.8302,0.0,0.0,-1.9464,-1.9522,0.0,-1.8076,-1.7343,0.0,0.0,0.0,-1.5096,0.0,0.0,0.0,-1.7293,-1.7684,-1.8687,0.0,0.0,0.0,0.0,0.0,0.0,0.0,0.0,0.0,0.0,0.0,0.0,0.0,0.0,-2.4687,-2.4896,-2.5132,-2.5293,-2.5466,-2.5337,-2.4833,-2.5181,-2.5034,-2.4226,-2.4275,-2.3957,-2.3206,-2.3632,-2.4076,-2.4523,-2.5268,-2.5981,-2.6708,-2.708,-2.7469,-2.7895,-2.907,-2.9487,-2.9437,-3.0612,-3.0677,-3.0026,-3.0212,-3.0575,-3.1009,-3.1608,-3.2109,-3.2504,-1.2222,0.0,0.0,0.0,0.0,0.0,0.0,0.0,0.0,-1.3449,-1.3637,-1.342,-1.2978,0.0,0.0,0.0,-1.2969,-1.329,0.0,0.0,-1.405,-1.4652,-1.4698,-1.4698,-1.4698,-1.5276,-1.5588,0.0,0.0,0.0,0.0,0.0,0.0,0.0,0.0,0.0,0.0,0.0,0.0,-1.7867,0.0,-1.6752,-1.7118,-1.668,-1.6194,-1.582,-1.6337,-1.6612,-1.6912,-1.7814,0.0,-1.8779,-1.9006,-1.9236,0.0,0.0,0.0,0.0,0.0,0.0,0.0,0.0,0.0,-1.6114,0.0,0.0,0.0,-1.9339,0.0,0.0,0.0,0.0,0.0,0.0,0.0,0.0,0.0,0.0,0.0,0.0,0.0,0.0,-2.3473,-2.3891,-2.4044,-2.3804,-2.4022,-2.4192,-2.4282,-2.4169,-2.4094,-2.4094,-2.4036,-2.3804,-2.3323,-2.3267,-2.3727,-2.4726,-2.4726,-2.5389,-2.6691,-2.6691,-2.6971,-2.7478,-2.8383,-2.8987,-2.9473,-3.0858,-3.1192,-3.08,-3.0622,-3.0864,-3.1244,-3.1754,-3.2298,-3.2763,-1.4268,-1.3492,0.0,0.0,0.0,0.0,0.0,0.0,0.0,-1.29,-1.3017,0.0,0.0,0.0,0.0,0.0,0.0,0.0,-1.4883,0.0,0.0,-1.4652,-1.4698,-1.4698,-1.4698,-1.5276,-1.5588,-1.5588,0.0,0.0,0.0,0.0,0.0,0.0,-1.7312,0.0,0.0,0.0,-1.7353,0.0,-1.6752,-1.6552,0.0,-1.6522,-1.6479,-1.6423,-1.6479,-1.5832,-1.5309,0.0,-1.8145,-1.838,0.0,-1.9317,-1.8841,0.0,0.0,0.0,0.0,0.0,0.0,0.0,-1.625,0.0,0.0,0.0,-1.8844,-1.8954,0.0,0.0,0.0,0.0,0.0,0.0,0.0,0.0,0.0,0.0,0.0,0.0,0.0,0.0,-2.4351,-2.4582,-2.4529,-2.4093,-2.4023,-2.4185,-2.4541,-2.4046,-2.3774,-2.3774,-2.3459,-2.347,-2.384,-2.3528,-2.4092,-2.549,-2.549,-2.5913,-2.6691,-2.6691,-2.7115,-2.7929,-2.9437,-3.0273,-3.0653,-3.1564,-3.182,-3.1668,-3.1627,-3.1898,-3.2315,-3.2417,-3.2934,-3.367,-1.4606,-1.3721,0.0,0.0,0.0,0.0,0.0,0.0,0.0,-1.291,-1.3096,0.0,0.0,0.0,0.0,0.0,0.0,-1.4198,0.0,0.0,0.0,0.0,0.0,0.0,-1.5744,-1.6008,-1.6139,-1.6139,-1.638,0.0,0.0,0.0,0.0,0.0,-1.6837,0.0,-1.7585,0.0,0.0,0.0,0.0,0.0,0.0,-1.6522,-1.6522,-1.6466,-1.6095,-1.6275,-1.6789,0.0,-1.8263,0.0,0.0,0.0,0.0,0.0,0.0,0.0,0.0,0.0,0.0,0.0,0.0,0.0,-1.8288,0.0,-1.9427,0.0,0.0,0.0,0.0,0.0,0.0,0.0,-2.3916,0.0,0.0,0.0,0.0,0.0,0.0,0.0,-2.4566,-2.4426,-2.4303,-2.4219,-2.4304,-2.4408,-2.4542,-2.4151,-2.3869,-2.3692,-2.3369,-2.3203,-2.3197,-2.3055,-2.3426,-2.4323,-2.4746,-2.5338,-2.6082,-2.6488,-2.7147,-2.7933,-2.8617,-2.951,-3.0516,-3.1318,-3.1326,-3.0968,-3.1863,-3.2035,-3.1848,-3.2325,-3.2739,-3.3266,-1.5062,0.0,0.0,0.0,0.0,0.0,0.0,0.0,0.0,0.0,0.0,0.0,-1.4048,-1.4165,0.0,0.0,0.0,-1.5135,0.0,0.0,-1.5799,0.0,0.0,0.0,0.0,-1.6374,-1.6459,-1.6638,-1.6345,0.0,0.0,0.0,0.0,0.0,0.0,-1.671,-1.7076,0.0,0.0,-1.7034,-1.668,-1.6522,-1.6522,-1.6522,-1.638,-1.6238,-1.5952,-1.6519,-1.7436,-1.7504,-1.8302,0.0,-1.8688,0.0,0.0,0.0,0.0,0.0,-1.6646,0.0,0.0,0.0,0.0,0.0,0.0,0.0,0.0,0.0,0.0,0.0,0.0,0.0,0.0,0.0,0.0,-2.4757,0.0,0.0,0.0,0.0,0.0,0.0,0.0,-2.4054,-2.4001,-2.4098,-2.4062,-2.419,-2.4596,-2.4038,-2.3728,-2.3797,-2.3405,-2.3175,-2.3136,-2.2764,-2.3007,-2.3828,-2.4079,-2.4678,-2.5625,-2.615,-2.6894,-2.7754,-2.8081,-2.8927,-3.0106,-3.0885,-3.0956,-3.0592,-3.1593,-3.1614,-3.1225,-3.2168,-3.2606,-3.2994,-1.6151,-1.5466,0.0,0.0,0.0,0.0,0.0,0.0,0.0,0.0,0.0,0.0,0.0,0.0,0.0,0.0,0.0,-1.6157,-1.6352,0.0,-1.5035,0.0,0.0,-1.6132,0.0,0.0,-1.6359,-1.7061,-1.5918,-1.5344,0.0,0.0,0.0,0.0,0.0,-1.6522,-1.6522,-1.6522,-1.6522,-1.6522,-1.6522,-1.6522,-1.6522,0.0,-1.6139,-1.572,-1.6281,0.0,0.0,-1.7518,-1.8106,0.0,0.0,0.0,0.0,0.0,0.0,0.0,0.0,0.0,0.0,-1.7907,0.0,0.0,0.0,0.0,-2.028,0.0,0.0,0.0,0.0,0.0,-2.2634,-2.2716,-2.3729,0.0,0.0,0.0,0.0,0.0,0.0,0.0,0.0,-2.3603,-2.3838,-2.3638,-2.2964,-2.3247,-2.4804,-2.3535,-2.3155,-2.4064,-2.3506,-2.3536,-2.4247,-2.2959,-2.3204,-2.4942,-2.3925,-2.4205,-2.5609,-2.5625,-2.6256,-2.74,-2.8541,-2.9255,-2.9674,-3.0495,-3.1011,-3.12,-3.082,-3.0664,-3.0751,-3.2051,-3.2809,-3.3364,0.0,0.0,0.0,0.0,0.0,0.0,0.0,-1.3652,0.0,0.0,0.0,0.0,0.0,0.0,-1.7112,0.0,0.0,-1.7005,-1.7739,-1.6721,0.0,0.0,0.0,-1.6037,0.0,0.0,0.0,-1.6355,-1.5936,-1.5592,0.0,0.0,0.0,0.0,0.0,-1.6522,0.0,0.0,0.0,0.0,0.0,-1.6748,-1.7049,0.0,-1.638,-1.6238,-1.6423,-1.6625,0.0,-1.7381,-1.8027,-1.8688,-1.9043,-1.9281,-1.9369,-1.9006,-1.838,-1.7747,0.0,0.0,-1.7422,-1.7987,0.0,0.0,0.0,0.0,0.0,0.0,0.0,0.0,0.0,0.0,-2.2906,-2.3008,-2.3613,-2.3729,0.0,0.0,0.0,0.0,0.0,0.0,0.0,0.0,0.0,-2.3724,-2.3611,-2.3847,-2.4467,-2.407,-2.3885,-2.4033,-2.3401,-2.3218,-2.3572,-2.2735,-2.2819,-2.3804,-2.3511,-2.4049,-2.5214,-2.5467,-2.6207,-2.7303,-2.7749,-2.8435,-2.928,-2.9565,-2.9849,-3.0223,-3.0543,-3.0543,-3.0482,-3.1631,-3.2298,-3.3084,-1.3286,0.0,0.0,0.0,0.0,0.0,0.0,0.0,0.0,0.0,-1.6123,0.0,-1.8397,0.0,-1.8332,0.0,-1.8607,-1.8071,-1.8119,-1.7334,0.0,-1.6765,-1.6274,0.0,0.0,0.0,0.0,0.0,-1.5539,-1.515,0.0,0.0,0.0,0.0,0.0,0.0,0.0,0.0,-1.6522,0.0,0.0,-1.6735,0.0,0.0,-1.6647,-1.6798,0.0,-1.671,-1.7076,-1.7463,-1.8027,-1.8688,-1.9043,-1.9406,-1.9639,-1.9281,-1.865,-1.8027,-1.7666,-1.7585,-1.7666,-1.8027,-1.8849,0.0,-2.0212,0.0,0.0,0.0,0.0,0.0,0.0,0.0,-2.2957,-2.3165,-2.3316,-2.3097,0.0,-2.1553,0.0,0.0,0.0,0.0,0.0,0.0,-2.2923,-2.3187,-2.3095,-2.3345,0.0,-2.3788,-2.3828,-2.4271,-2.3504,-2.3229,-2.3544,-2.2933,-2.2875,-2.3369,-2.3337,-2.3781,-2.4642,-2.5154,-2.5877,-2.6705,-2.712,-2.7749,-2.8481,-2.9044,-2.9365,-2.9659,-3.0523,-3.074,-3.0672,-3.1528,-3.2446,-3.374,0.0,0.0,0.0,0.0,-1.4505,0.0,0.0,0.0,-1.6145,0.0,-1.7266,-1.8076,-1.8164,-1.9188,-1.9571,-1.8903,-1.9481,0.0,-1.7652,-1.7527,0.0,0.0,-1.5898,-1.6038,-1.592,0.0,0.0,0.0,0.0,0.0,0.0,0.0,0.0,0.0,-1.5932,0.0,-1.6522,-1.6522,-1.6522,-1.6522,-1.6522,-1.6534,-1.6559,-1.6522,-1.6873,-1.73,-1.6722,-1.6522,-1.671,-1.7747,-1.8145,-1.8341,-1.9369,-1.969,-1.9639,-1.9639,-1.8893,-1.8066,-1.8027,-1.8027,-1.8066,-1.8106,-1.8893,0.0,0.0,0.0,-2.1118,0.0,0.0,0.0,0.0,0.0,0.0,-2.3052,-2.276,-2.2241,0.0,0.0,0.0,0.0,0.0,0.0,0.0,-2.1582,-2.1744,-2.204,-2.1479,0.0,0.0,-2.2785,-2.305,-2.4752,-2.3805,-2.3588,-2.4209,-2.3566,-2.3392,-2.3735,-2.3405,-2.3513,-2.4021,-2.4757,-2.5283,-2.5725,-2.6805,-2.7289,-2.7428,-2.8848,-2.9454,-2.9644,-3.07,-3.1232,-3.1413,-3.1842,-3.3223,-3.5226,-1.4152,-1.3969,-1.3655,0.0,-1.3861,-1.4716,0.0,0.0,0.0,0.0,-1.8164,-1.935,-2.0442,-2.0161,-2.0368,-2.156,-2.0278,0.0,0.0,0.0,0.0,-1.7373,-1.6846,-1.6422,-1.6088,-1.5635,0.0,-1.5521,0.0,0.0,-1.4131,0.0,0.0,0.0,0.0,0.0,-1.6522,-1.6522,-1.6522,-1.6522,-1.6522,-1.6773,-1.7112,0.0,-1.6873,-1.73,-1.6722,-1.6752,-1.7188,-1.7867,-1.838,-1.8817,-1.9479,-1.9442,-1.9043,-1.8612,-1.8027,-1.7435,-1.7034,-1.7188,-1.7585,-1.7987,-1.8849,-1.9743,-2.0212,-2.0649,0.0,0.0,0.0,0.0,0.0,0.0,0.0,0.0,-2.136,0.0,0.0,0.0,0.0,-2.1093,0.0,0.0,-2.115,-2.143,-2.1642,-2.1715,-2.1508,0.0,0.0,0.0,-2.3763,-2.4765,-2.4536,-2.4458,-2.4644,-2.3894,-2.3756,-2.4302,-2.4145,-2.458,-2.5479,-2.5747,-2.6238,-2.6871,-2.6853,-2.7164,-2.7709,-2.8066,-2.8898,-2.9986,-3.0264,-3.1098,-3.2208,-3.2838,-3.403,-3.5574,-1.4593,0.0,0.0,-1.2582,0.0,0.0,-1.5179,0.0,0.0,-1.8076,-1.8838,0.0,-2.0663,-2.0446,-2.0631,-2.166,-2.0636,0.0,0.0,0.0,0.0,-1.7773,-1.6747,-1.5947,-1.5518,-1.4907,0.0,-1.4853,0.0,0.0,-1.4871,0.0,0.0,0.0,0.0,-1.6429,0.0,-1.6522,-1.6522,-1.6522,-1.6522,-1.671,0.0,-1.688,-1.7085,-1.7329,-1.7235,-1.7229,-1.7435,-1.8185,-1.865,-1.8968,-1.9244,-1.9132,-1.8779,-1.8263,-1.7706,-1.7229,-1.6909,-1.7229,-1.7706,-1.8027,-1.8864,-1.9773,-2.0212,-2.0516,-2.0813,-2.1179,-2.1118,-2.1086,0.0,0.0,0.0,0.0,0.0,0.0,0.0,0.0,0.0,0.0,-2.1185,0.0,-2.0747,-2.1228,-2.146,-2.107,-2.1195,0.0,0.0,0.0,-2.3665,-2.4771,-2.5283,-2.5286,-2.4723,-2.4834,-2.4913,-2.4894,-2.4863,-2.5257,-2.6051,-2.6463,-2.669,-2.6818,-2.7103,-2.7276,-2.7385,-2.8047,-2.8836,-2.9681,-3.0375,-3.1347,-3.2475,-3.3228,-3.4383,-3.5803,0.0,0.0,0.0,0.0,0.0,0.0,0.0,-1.6921,0.0,-1.9238,0.0,-1.9658,-1.9971,-2.0342,-2.0547,-2.0478,0.0,-2.0137,-1.9336,-1.9287,-1.875,-1.7519,-1.6365,-1.5504,-1.498,-1.4147,0.0,0.0,0.0,0.0,0.0,0.0,0.0,0.0,0.0,0.0,0.0,-1.6595,-1.6637,-1.671,-1.671,-1.671,-1.6752,-1.7229,-1.7394,-1.7463,-1.8027,-1.7907,-1.7666,-1.8574,-1.8893,-1.8893,-1.8893,-1.8817,-1.8612,-1.8145,-1.7666,-1.7312,-1.7312,-1.7706,-1.8145,-1.8185,-1.8893,-1.9696,-2.0124,-2.0212,-2.0364,-2.0764,-2.0862,-2.0894,-2.0894,0.0,0.0,0.0,0.0,0.0,0.0,0.0,0.0,0.0,0.0,0.0,-2.0722,-2.1263,-2.1294,-2.0382,0.0,0.0,0.0,0.0,-2.3291,-2.4726,-2.5888,-2.6054,-2.5115,-2.6135,-2.6413,-2.5902,-2.577,-2.5938,-2.6349,-2.7037,-2.7041,-2.6528,-2.7483,-2.7569,-2.7111,-2.8553,-2.9301,-2.9578,-3.0931,-3.1955,-3.2785,-3.3379,-3.4636,-3.6222,0.0,0.0,0.0,0.0,0.0,-1.3948,-1.6275,-1.8592,-1.9961,-1.9824,-2.0439,-2.0781,-2.0488,-2.0518,-2.042,-2.0059,-2.0029,0.0,0.0,0.0,0.0,-1.7939,-1.7358,-1.6689,-1.5919,-1.5022,-1.5081,0.0,0.0,0.0,0.0,0.0,0.0,0.0,0.0,0.0,-1.7146,-1.7146,0.0,-1.7827,-1.7827,-1.7827,-1.7827,-1.7907,-1.7947,-1.8027,-1.8574,-1.8688,-1.865,-1.8855,-1.8893,-1.8893,-1.8893,-1.8302,-1.7544,-1.7463,-1.7394,-1.7312,-1.7312,-1.7706,-1.8224,-1.865,-1.8893,-1.9169,-1.9696,-1.9818,-1.9854,-1.9925,-2.0193,-2.0416,-2.0416,-2.0797,0.0,0.0,0.0,0.0,0.0,0.0,0.0,0.0,0.0,-2.1786,0.0,-2.2135,0.0,0.0,0.0,0.0,0.0,0.0,-2.3672,0.0,-2.584,-2.693,0.0,-2.7216,-2.7485,-2.8621,-2.7785,-2.7416,-2.7519,-2.7985,-2.8126,-2.7995,-2.7939,-2.8164,-2.8679,-2.9607,-3.0741,-3.193,-3.2127,-3.3123,-3.4379,-3.416,-3.5762,-3.806,0.0,0.0,0.0,0.0,0.0,0.0,0.0,-1.9503,0.0,-2.1611,-2.0791,-2.0312,-2.0537,-2.0566,-2.0391,-1.9951,-1.9912,-1.9639,-1.8994,-1.8955,-1.8574,-1.7725,-1.6854,0.0,-1.5742,-1.4478,-1.4574,-1.6171,0.0,0.0,-1.7514,0.0,0.0,0.0,0.0,-1.7565,0.0,0.0,0.0,-1.7706,-1.7987,-1.8106,-1.8145,-1.8419,-1.8496,-1.8574,-1.9132,-1.9132,-1.893,-1.9207,-1.9132,-1.8803,-1.8207,-1.7679,-1.7188,-1.6574,-1.6841,-1.7312,-1.7312,-1.7907,-1.8574,-1.8855,-1.9132,-1.9369,-1.9639,-1.969,-1.9747,-1.9965,-2.0158,-2.0485,-2.1132,-2.136,-2.148,0.0,0.0,0.0,0.0,0.0,0.0,0.0,0.0,0.0,0.0,0.0,0.0,0.0,0.0,0.0,0.0,0.0,-2.3765,0.0,0.0,0.0,-2.7403,0.0,-2.8421,-2.8665,-2.8083,-2.8026,-2.8448,-2.8633,-2.8608,-2.8438,-2.8897,-2.8847,-2.8534,-2.972,-3.1013,-3.2309,-3.2867,-3.3792,-3.4836,-3.5053,-3.6624,-3.8474,0.0,-1.4133,0.0,0.0,-1.2719,0.0,-1.5545,-1.9031,-2.1728,-2.2339,-2.0941,-2.0041,-2.0322,-2.0537,-2.0391,-1.9951,-1.9834,-1.9453,-1.8621,-1.8555,-1.8164,-1.7422,-1.6439,-1.5792,-1.5566,-1.4166,-1.4318,0.0,0.0,0.0,-1.8614,0.0,0.0,0.0,0.0,0.0,0.0,0.0,-1.7626,-1.7706,-1.8224,-1.8458,-1.8496,-1.8893,-1.908,-1.9132,-1.9566,-1.9369,-1.8968,-1.9406,-1.9006,-1.8221,-1.7301,-1.7011,-1.6744,-1.584,-1.6476,-1.7463,-1.7463,-1.8263,-1.908,-1.908,-1.9406,-1.969,-1.969,-1.9782,-1.9909,-2.0212,-2.0485,-2.1038,-2.2118,-2.2241,-2.218,0.0,0.0,0.0,0.0,0.0,0.0,0.0,0.0,0.0,-2.0844,0.0,0.0,0.0,0.0,0.0,-2.2548,0.0,0.0,0.0,0.0,-2.8307,-2.7637,0.0,-2.9612,-2.9375,-2.8842,-2.8888,-2.9512,-2.9512,-2.9332,-2.9091,-3.0033,-2.9864,-2.8969,-3.004,-3.1218,-3.2477,-3.3364,-3.4291,-3.5204,-3.6096,-3.7482,-3.8807,0.0,0.0,0.0,0.0,0.0,0.0,-1.5798,-1.6197,-1.7427,-1.9861,-2.1278,-2.1355,-1.9707,-2.014,-2.0391,-1.9951,-1.957,-1.9141,-1.8592,-1.8281,-1.7861,-1.7402,-1.7278,-1.684,-1.6016,-1.5469,-1.5664,0.0,0.0,-1.7338,0.0,0.0,0.0,0.0,0.0,-1.8412,-1.7461,-1.8355,-1.8727,-1.8817,-1.9332,-1.9566,-1.9566,-1.9603,-1.9639,-1.9639,-1.969,-1.9369,-1.8893,-1.8968,-1.7946,-1.6634,-1.6506,-1.6133,-1.5764,-1.5632,-1.676,-1.8027,-1.8027,-1.8817,-1.9639,-1.9639,-1.9639,-1.969,-1.969,-1.9965,-2.0246,-2.028,-2.1163,-2.2163,-2.2937,-2.31,-2.2968,-2.2617,0.0,0.0,0.0,0.0,0.0,0.0,0.0,0.0,0.0,-2.2101,0.0,0.0,-2.1823,0.0,0.0,0.0,0.0,-2.5581,-2.6987,-2.8991,-3.1637,-3.0874,-3.1545,-3.3622,-3.1887,-3.1091,-3.1182,-3.1182,-3.1164,-3.1139,-3.1237,-3.1634,-3.2107,-3.1521,-3.2206,-3.3643,-3.3762,-3.4759,-3.6285,-3.7362,-3.8726,-4.0088,0.0,0.0,0.0,0.0,0.0,0.0,0.0,-1.5832,-1.623,-1.7331,-1.8588,-1.9488,-1.9764,-1.987,-1.986,-1.9895,-1.9697,-1.9297,-1.8601,-1.8242,-1.7939,-1.7764,-1.7519,-1.7217,-1.6865,-1.6317,-1.6581,0.0,0.0,0.0,0.0,0.0,-1.9592,-1.9208,-1.948,-1.9127,-1.8399,-1.8766,-1.8717,-1.8496,-1.9369,-1.969,-1.969,-1.969,-1.969,-1.9639,-1.9332,-1.8893,-1.838,-1.8066,-1.7272,-1.6378,-1.6378,-1.6046,-1.5588,-1.5588,-1.6802,-1.8106,-1.8106,-1.8893,-1.969,-1.969,-1.9874,-2.0054,-2.0054,-2.0382,-2.083,-2.1287,-2.2679,-2.3879,-2.4175,-2.4771,-2.5122,-2.4748,0.0,0.0,0.0,0.0,0.0,0.0,0.0,0.0,0.0,0.0,0.0,0.0,0.0,0.0,0.0,0.0,0.0,-2.5542,0.0,-2.882,-3.0867,-3.1012,-3.1655,-3.2743,-3.2001,-3.1565,-3.1384,-3.1384,-3.1659,-3.21,-3.1604,-3.2394,-3.3963,-3.3164,-3.3807,-3.5349,-3.5826,-3.6725,-3.7833,-3.8757,-3.989,-4.0923,-1.5832,0.0,-1.5832,0.0,-1.5832,-1.5832,-1.5832,-1.5832,-1.5832,-1.5832,-1.6494,-1.7535,-1.9066,-1.9656,-2.0071,-2.0323,-2.001,-1.957,-1.9053,-1.8496,-1.8135,-1.8018,-1.7725,0.0,-1.7755,-1.7358,-1.7561,-1.8441,-1.8908,0.0,0.0,-1.9877,-1.9807,-1.9656,-2.0001,-1.9576,-1.8654,-1.9197,-1.9044,-1.8502,-1.978,-2.0168,-2.0004,-2.0198,-2.0034,-1.9669,-1.9478,-1.886,-1.8027,-1.7666,-1.6899,-1.6176,-1.6176,-1.5915,-1.5632,-1.5796,-1.6928,-1.8145,-1.8302,-1.9103,-1.9874,-1.9874,-2.0193,-2.0516,-2.0516,-2.0927,-2.1612,-2.2708,-2.4169,-2.529,-2.5375,-2.6063,-2.653,-2.6277,-2.5674,0.0,0.0,-2.4164,0.0,0.0,-2.2569,-2.2475,-2.23,-2.2199,0.0,0.0,0.0,0.0,0.0,0.0,0.0,-2.599,-2.7535,-2.9156,-3.0835,-3.168,-3.2313,-3.278,-3.2574,-3.2414,-3.2213,-3.2132,-3.2412,-3.2944,-3.2596,-3.344,-3.4972,-3.4669,-3.5367,-3.6725,-3.7533,-3.834,-3.9184,-4.0212,-4.1058,-4.1724,-1.5832,-1.5832,-1.5832,-1.5832,-1.5832,-1.5832,-1.5832,-1.5832,-1.5832,-1.5832,-1.5825,-1.622,-1.7318,-1.9689,-2.1199,-2.1387,-2.0488,-1.9902,-1.9893,-1.9102,-1.8447,0.0,0.0,-1.8185,-1.8553,-1.8585,-1.8611,-1.8727,0.0,0.0,-1.8242,-1.9465,-1.9616,-1.9057,-2.0254,-1.9506,-1.7536,-1.9738,-2.0047,-1.9251,-2.0969,-2.1276,-2.0782,-2.1425,-2.0842,-1.9779,-2.0453,-1.9571,-1.8106,-1.8106,-1.697,-1.5632,-1.5632,-1.5588,-1.5708,-1.6207,-1.7218,-1.8224,-1.8727,-1.9564,-2.028,-2.028,-2.0649,-2.0991,-2.0991,-2.1562,-2.263,-2.4485,-2.552,-2.6172,-2.6512,-2.6594,-2.6612,-2.6573,-2.6236,0.0,0.0,-2.5229,0.0,-2.4021,-2.4527,-2.4677,-2.3932,-2.3813,0.0,0.0,0.0,0.0,0.0,0.0,-2.4949,-2.7219,-2.852,-3.0362,-3.2833,-3.3463,-3.4208,-3.5049,-3.4473,-3.4181,-3.4157,-3.3891,-3.377,-3.3825,-3.4633,-3.4954,-3.5064,-3.5917,-3.6743,-3.7551,-3.8377,-3.9184,-4.0065,-4.168,-4.2286,-4.2415,-1.5832,-1.5832,-1.5832,-1.5832,-1.5832,-1.5832,-1.5832,-1.5832,-1.5832,-1.5832,-1.5832,-1.5967,-1.6292,-1.8249,-1.9946,0.0,-2.0898,-2.0644,0.0,-1.9219,-1.8701,-1.8447,-1.8748,-1.8982,-1.9078,-1.982,-2.0271,-2.0262,0.0,-2.0337,-1.9296,-2.006,-2.0144,-1.9651,-1.9987,-2.0007,-1.9836,-2.0478,-2.0598,-2.0396,-2.1351,-2.1575,-2.1365,-2.1111,-2.0752,-2.0311,-1.9692,-1.9118,-1.8535,-1.7787,-1.7216,-1.6714,-1.6312,-1.5908,-1.5796,-1.6744,-1.7531,-1.8224,-1.8727,-1.9995,-2.1128,-2.1128,-2.2061,-2.3046,-2.3279,-2.4095,-2.5009,-2.56,-2.6554,-2.7295,-2.7398,-2.7879,-2.8062,-2.7512,-2.6969,-2.6289,-2.5372,0.0,-2.4342,-2.4021,-2.3732,-2.3637,-2.3811,-2.3611,0.0,0.0,0.0,0.0,0.0,0.0,-2.5733,-2.7784,-2.9306,-3.1183,-3.3483,-3.3882,-3.4331,-3.4832,-3.4832,-3.4896,-3.5088,-3.5385,-3.5495,-3.5514,-3.5789,-3.6193,-3.6725,-3.7,-3.7918,-3.9148,-3.9423,-4.009,-4.1034,-4.1983,-4.2428,-4.265,-1.5832,-1.5832,-1.5832,-1.5832,-1.5832,-1.5832,-1.5832,-1.5832,-1.5832,-1.5832,-1.5832,-1.5832,-1.5832,-1.7751,0.0,-2.1428,-2.1416,-2.1103,-2.0518,-1.9727,-1.9308,-1.9403,-1.9468,-1.9884,-2.0544,-2.107,-2.1392,-2.1498,-2.1095,-2.0602,-2.0125,-2.0054,-1.996,-1.9874,-1.9794,-1.9925,-2.024,-2.0877,-2.1052,-2.0955,-2.1754,-2.1919,-2.161,-2.102,-2.0599,-2.0229,-1.931,-1.8811,-1.8496,-1.7827,-1.7463,-1.731,-1.7437,-1.7235,-1.6987,-1.7475,-1.8152,-1.8903,-1.942,-2.0831,-2.2094,-2.2094,-2.3108,-2.4255,-2.4712,-2.5711,-2.6579,-2.6713,-2.7547,-2.8268,-2.8381,-2.8805,-2.8904,-2.8157,-2.7457,-2.6655,-2.5652,0.0,-2.4098,0.0,0.0,-2.4306,-2.4394,-2.4833,-2.5262,0.0,0.0,0.0,0.0,-2.5832,-2.7073,-2.8364,-3.0431,-3.2297,-3.3934,-3.4433,-3.4783,-3.4999,-3.5267,-3.543,-3.5516,-3.6067,-3.6303,-3.6321,-3.6615,-3.7037,-3.7562,-3.8138,-3.9166,-4.0345,-4.0419,-4.1052,-4.1937,-4.2305,-4.2559,-4.2788,-1.5832,-1.5832,-1.5832,-1.5832,-1.5832,-1.5832,-1.5832,-1.5832,-1.5832,-1.5832,-1.5832,-1.5832,-1.5832,-1.794,-2.0404,-2.2862,0.0,0.0,-2.1406,-2.0508,-2.0229,-2.0902,-2.0424,-2.0962,-2.2662,-2.2249,-2.2153,-2.2309,-2.0752,-2.0213,-2.0693,-1.9623,-1.9371,-1.985,-1.9798,-1.9585,-1.9342,-2.1002,-2.1458,-2.1125,-2.226,-2.2278,-2.164,-2.1067,-2.0426,-1.9715,-1.9336,-1.8779,-1.8238,-1.8282,-1.7922,-1.7677,-1.8797,-1.9183,-1.9127,-1.8476,-1.9101,-2.0078,-2.0614,-2.1957,-2.3183,-2.3183,-2.3968,-2.4898,-2.5508,-2.6588,-2.7513,-2.7838,-2.8507,-2.9112,-2.9353,-2.9414,-2.9194,-2.8437,-2.7695,-2.6857,-2.5779,-2.4764,-2.4375,-2.5087,-2.6031,-2.6392,-2.5743,-2.7195,-2.7568,0.0,0.0,0.0,0.0,-2.8365,-2.903,-2.9084,-3.1801,-3.3588,-3.4276,-3.5161,-3.5622,-3.5685,-3.5894,-3.5882,-3.5714,-3.6215,-3.6468,-3.6505,-3.7257,-3.7599,-3.7679,-3.9258,-4.0377,-4.1119,-4.1379,-4.1991,-4.2693,-4.275,-4.2732,-4.2788,-1.5832,0.0,-1.5832,-1.5832,-1.5832,-1.5832,-1.5832,-1.5832,-1.5832,-1.5832,-1.5832,-1.5832,-1.5832,-1.749,-1.9778,-2.2872,-2.2568,-2.1982,-2.1445,-2.0781,-2.0923,-2.2049,-2.2517,-2.2703,-2.2674,-2.3203,-2.3119,-2.2309,-2.1907,-2.1355,-2.0706,-2.0401,-2.0411,-2.0547,-2.0055,-2.0555,-2.1825,-2.1749,-2.1931,-2.2302,-2.2584,-2.2278,-2.1635,-2.0971,-2.0623,-2.0445,-2.0365,-1.9891,-1.9405,-2.003,-1.9788,-1.9343,-1.9754,-2.0161,-2.0425,-2.0282,-2.0436,-2.077,-2.1337,-2.2692,-2.3923,-2.3923,-2.5528,-2.7151,-2.7303,-2.7998,-2.8663,-2.895,-2.918,-2.9373,-2.9589,-2.9644,-2.9172,-2.7716,-2.746,-2.6805,-2.503,-2.5115,-2.5501,0.0,-2.7134,-2.8142,-2.8428,-2.8657,-2.8793,-2.882,0.0,-2.9453,-2.9262,-3.1594,-3.2331,-3.0927,-3.2943,-3.4408,-3.518,-3.6007,-3.6757,-3.7411,-3.7014,-3.7096,-3.7652,-3.797,-3.8138,-3.8138,-3.8322,-3.8414,-3.8487,-3.9478,-4.0377,-4.117,-4.1821,-4.2341,-4.275,-4.3178,-4.305,-4.2808,-1.6627,-1.6199,-1.5999,-1.654,-1.6186,-1.5832,-1.5832,-1.5832,-1.5832,-1.5832,-1.5832,-1.5832,-1.5832,-1.7576,-1.9588,-2.1311,-2.2292,-2.2627,-2.2227,-2.1172,-2.1308,-2.2861,-2.3598,-2.3902,-2.3652,-2.3853,-2.3565,-2.2686,-2.2435,-2.1882,-2.1041,-2.0832,-2.0562,-2.0346,-2.0308,-2.0832,-2.1846,-2.2067,-2.2388,-2.2715,-2.2703,-2.2458,-2.2069,-2.1159,-2.0946,-2.1078,-2.06,-2.0327,-2.0333,-2.0756,-2.0647,-2.0474,-2.1095,-2.1465,-2.1804,-2.2069,-2.1951,-2.1813,-2.2324,-2.3514,-2.483,-2.5476,-2.6768,-2.7954,-2.8102,-2.8943,-2.9765,-2.9913,-3.0055,-3.0189,-3.04,-2.9807,-2.8909,-2.7703,-2.7508,-2.6968,-2.5402,-2.5925,-2.6669,-2.718,-2.8502,-2.9536,-2.9954,-3.0474,-3.0741,-3.0589,-3.1428,-3.1902,-3.1819,-3.4152,-3.4498,-3.2352,-3.4375,-3.5671,-3.6045,-3.6711,-3.7247,-3.7583,-3.7521,-3.7703,-3.8134,-3.8533,-3.8909,-3.9239,-3.9239,-3.946,-3.9863,-4.0671,-4.1258,-4.1702,-4.2265,-4.2668,-4.296,-4.3281,-4.3261,-4.3256,-1.7582,-1.678,-1.6406,-1.7408,-1.6754,-1.6092,-1.6092,-1.5945,-1.5832,-1.5832,-1.5832,-1.5832,-1.5832,-1.7662,-1.8948,-1.8948,-2.0854,-2.2315,-2.3047,-2.1602,-2.1543,-2.3452,-2.4108,-2.4575,-2.4781,-2.4192,-2.3627,-2.3078,-2.2661,-2.2159,-2.1606,-2.1129,-2.0709,-2.0244,-2.0716,-2.1027,-2.1309,-2.2263,-2.2696,-2.2701,-2.2708,-2.2664,-2.2416,-2.1427,-2.1304,-2.1575,-2.0797,-2.0726,-2.1058,-2.1247,-2.1262,-2.1374,-2.2468,-2.2885,-2.3073,-2.3558,-2.3492,-2.3295,-2.3489,-2.4474,-2.5766,-2.7201,-2.7883,-2.8289,-2.8727,-2.9863,-3.0798,-3.0879,-3.1092,-3.1288,-3.1344,-3.0109,-2.8887,-2.8349,-2.7847,-2.7257,-2.6514,-2.7172,-2.8058,-2.8947,-3.0349,-3.1347,-3.167,-3.282,-3.3252,-3.2542,-3.3769,-3.4577,-3.4679,-3.6216,-3.6143,-3.403,-3.5965,-3.7055,-3.7006,-3.7313,-3.7469,-3.7476,-3.7748,-3.8021,-3.8282,-3.8674,-3.9313,-4.0084,-4.0084,-4.0469,-4.1185,-4.2022,-4.2368,-4.239,-4.2667,-4.2975,-4.3229,-4.31,-4.3323,-4.3762,-1.7582,-1.7435,-1.7368,-1.7549,-1.7435,-1.7315,-1.7315,-1.6466,-1.5832,-1.5832,-1.5832,-1.5832,-1.5832,-1.6103,-1.6379,-1.6379,-1.6749,-1.8664,-2.2862,-2.1973,-2.1982,-2.339,-2.4108,-2.4575,-2.4781,-2.3803,-2.3165,-2.3078,-2.299,-2.2723,-2.2184,-2.2096,-2.2069,-2.2128,-2.1694,-2.2115,-2.3222,-2.2879,-2.2717,-2.2676,-2.2712,-2.2338,-2.1829,-2.1645,-2.1655,-2.1769,-2.2144,-2.1995,-2.1724,-2.281,-2.2852,-2.2539,-2.3251,-2.377,-2.4143,-2.4251,-2.4977,-2.5512,-2.4511,-2.5271,-2.6691,-2.8403,-2.9066,-2.961,-3.0631,-3.1242,-3.1742,-3.2193,-3.2371,-3.2283,-3.1738,-3.0879,-3.0179,-3.0044,-2.8594,-2.7712,-2.8284,-2.9155,-3.0095,-3.1025,-3.3454,-3.5366,-3.6205,-3.6424,-3.6656,-3.6964,-3.6726,-3.6802,-3.7368,-3.7791,-3.7859,-3.7521,-3.7709,-3.8031,-3.8478,-3.7599,-3.7845,-3.918,-3.8315,-3.8625,-3.9928,-3.9773,-4.0157,-4.0928,-4.0928,-4.0983,-4.1199,-4.2279,-4.2728,-4.2746,-4.31,-4.3278,-4.3301,-4.26,-4.2894,-4.3657,-2.1963,-2.122,-2.0575,-2.0575,-1.837,-1.6633,-1.6633,-1.6179,-1.5832,-1.5832,-1.5832,-1.5832,-1.5832,-1.5832,-1.6835,-1.9488,-1.9761,-2.0666,-2.296,-2.2637,-2.2207,-2.1959,-2.322,-2.4131,-2.4451,-2.3636,-2.3354,-2.3602,-2.3602,-2.315,-2.2309,-2.2309,-2.2179,-2.205,-2.2471,-2.2816,-2.3124,-2.3528,-2.3496,-2.3176,-2.3176,-2.2996,-2.2712,-2.2712,-2.2712,-2.2757,-2.3056,-2.2981,-2.2817,-2.34,-2.3415,-2.3305,-2.3857,-2.4184,-2.4471,-2.4752,-2.5718,-2.6645,-2.6222,-2.6818,-2.7814,-2.9052,-2.9636,-3.0174,-3.1293,-3.2304,-3.3053,-3.3301,-3.3509,-3.3574,-3.3258,-3.1727,-3.0645,-3.1076,-2.9487,-2.866,-2.9952,-3.1016,-3.2153,-3.3484,-3.5434,-3.7004,-3.791,-3.7969,-3.8027,-3.8203,-3.7998,-3.8155,-3.8829,-3.892,-3.9151,-3.9585,-3.8843,-3.8595,-3.8968,-3.8877,-3.9149,-3.9751,-3.9663,-4.0018,-4.072,-4.0588,-4.1001,-4.1754,-4.1754,-4.2087,-4.2662,-4.2772,-4.2947,-4.3079,-4.2819,-4.3171,-4.3721,-4.3365,-4.3904,-4.4867,-2.5137,-2.4053,-2.3135,-2.3135,-2.0034,-1.7475,-1.7475,-1.7475,-1.7475,-1.7475,-1.7475,-1.7475,-1.7475,-1.7475,-1.9031,-2.2775,-2.3135,-2.3135,-2.3135,-2.3135,-2.2549,-2.1221,-2.2497,-2.3435,-2.3804,-2.3162,-2.3168,-2.3839,-2.3604,-2.3231,-2.2698,-2.2573,-2.2387,-2.2196,-2.3285,-2.352,-2.31,-2.4165,-2.4224,-2.3585,-2.3568,-2.3595,-2.3595,-2.3595,-2.3699,-2.3819,-2.3655,-2.3699,-2.3819,-2.3655,-2.3786,-2.4076,-2.4313,-2.4811,-2.5338,-2.5691,-2.6879,-2.8058,-2.7743,-2.8357,-2.9243,-2.9934,-3.0496,-3.1206,-3.255,-3.3601,-3.4346,-3.4623,-3.4745,-3.4815,-3.4804,-3.2978,-3.1797,-3.2817,-3.1316,-3.0619,-3.2354,-3.328,-3.4448,-3.6214,-3.7298,-3.832,-3.9375,-3.9283,-3.9201,-3.9291,-3.9367,-3.9649,-4.016,-4.0162,-4.0242,-4.0435,-3.949,-3.9101,-3.9378,-3.9918,-4.0207,-4.0194,-4.0818,-4.1203,-4.1387,-4.1387,-4.1827,-4.258,-4.2643,-4.3208,-4.3986,-4.3359,-4.3269,-4.3483,-4.2756,-4.3114,-4.3969,-4.3981,-4.4705,-4.5696,-2.333,-2.3223,-2.3135,-2.3135,-2.2775,-2.2589,-2.2589,-2.2589,-2.2589,-2.2589,-2.2589,-2.2589,-2.2589,-2.2589,-2.2687,-2.3047,-2.3135,-2.3135,-2.3135,-2.3135,-2.3076,-2.2959,-2.2735,-2.2633,-2.2797,-2.1845,-2.2033,-2.3364,-2.2476,-2.2663,-2.3866,-2.3326,-2.3395,-2.4076,-2.4273,-2.4309,-2.4304,-2.4484,-2.4158,-2.3515,-2.357,-2.3595,-2.3595,-2.3595,-2.3999,-2.4418,-2.3819,-2.4014,-2.4403,-2.3819,-2.4374,-2.5226,-2.4591,-2.6023,-2.7883,-2.758,-2.9194,-3.06,-2.8464,-2.9431,-3.1176,-3.1537,-3.24,-3.3658,-3.5531,-3.5511,-3.5412,-3.6458,-3.6205,-3.5784,-3.5725,-3.4924,-3.4788,-3.6288,-3.4899,-3.4282,-3.6213,-3.6444,-3.7171,-3.9231,-3.9609,-4.0332,-4.1953,-4.1332,-4.1161,-4.195,-4.1912,-4.1852,-4.1914,-4.1848,-4.1165,-3.9728,-3.9588,-3.9758,-4.0207,-4.0007,-4.0299,-4.102,-4.1075,-4.1497,-4.2213,-4.2213,-4.2653,-4.3422,-4.3743,-4.4003,-4.4162,-4.3984,-4.3956,-4.3994,-4.3501,-4.344,-4.3633,-4.3654,-4.4229,-4.5077,-2.6707,-2.4967,-2.3135,-2.3135,-2.3135,-2.3135,-2.3135,-2.3135,-2.3135,-2.3135,-2.3135,-2.3135,-2.3135,-2.3135,-2.3135,-2.3135,-2.3135,-2.3135,-2.3135,-2.3135,-2.3135,-2.3135,-2.2299,-2.168,-2.1432,-2.1861,-2.2418,-2.2925,-2.2843,-2.2898,-2.3035,-2.3083,-2.3245,-2.359,-2.4099,-2.4123,-2.3813,-2.4324,-2.4151,-2.3585,-2.3612,-2.3849,-2.4238,-2.4238,-2.4657,-2.5151,-2.4477,-2.4358,-2.4567,-2.4192,-2.4729,-2.5576,-2.5958,-2.7262,-2.8702,-2.9173,-3.0513,-3.1552,-3.0323,-3.0984,-3.2053,-3.2437,-3.3108,-3.4124,-3.6004,-3.6375,-3.66,-3.7618,-3.7686,-3.7576,-3.7536,-3.6812,-3.6579,-3.7639,-3.6755,-3.6535,-3.832,-3.9028,-3.986,-4.119,-4.1852,-4.2449,-4.307,-4.2748,-4.2621,-4.297,-4.293,-4.2864,-4.2789,-4.2477,-4.1949,-4.1189,-4.094,-4.0598,-4.0074,-4.0919,-4.1534,-4.1864,-4.2359,-4.2745,-4.3039,-4.3039,-4.3336,-4.3804,-4.4036,-4.4414,-4.4831,-4.4331,-4.4287,-4.4459,-4.3786,-4.3908,-4.4468,-4.4462,-4.5031,-4.5801,-2.7128,-2.5221,-2.3135,-2.3135,-2.3135,-2.3135,-2.3135,-2.3135,-2.3135,-2.3135,-2.3135,-2.3135,-2.3135,-2.3135,-2.3135,-2.3135,-2.4382,-2.4638,-2.3222,-2.3135,-2.3135,-2.3135,-2.2207,-2.1416,-2.084,-2.1625,-2.2206,-2.2506,-2.2777,-2.2916,-2.306,-2.3466,-2.3516,-2.3401,-2.4216,-2.423,-2.3742,-2.4487,-2.4573,-2.4176,-2.4209,-2.4507,-2.4881,-2.4881,-2.5345,-2.5824,-2.5379,-2.5304,-2.5515,-2.5383,-2.5936,-2.6805,-2.7465,-2.8694,-3.0121,-3.1262,-3.2259,-3.3012,-3.3006,-3.3432,-3.3849,-3.3695,-3.4395,-3.5522,-3.7058,-3.7397,-3.7662,-3.8618,-3.8903,-3.9082,-3.9375,-3.9101,-3.9101,-3.9902,-3.9535,-3.9536,-4.0675,-4.1421,-4.2139,-4.2973,-4.3391,-4.3688,-4.3918,-4.3568,-4.3447,-4.3717,-4.3705,-4.3593,-4.3405,-4.2629,-4.2143,-4.1957,-4.1855,-4.1453,-4.0653,-4.1754,-4.2433,-4.2671,-4.3222,-4.3548,-4.3646,-4.3646,-4.386,-4.4226,-4.4463,-4.4878,-4.5323,-4.4671,-4.4577,-4.4812,-4.4264,-4.4436,-4.5039,-4.5312,-4.5781,-4.6308,-2.3135,-2.3135,-2.3135,-2.3135,-2.3135,-2.3135,-2.3135,-2.3135,-2.3135,-2.3135,-2.3135,-2.3135,-2.3135,-2.3135,-2.3135,-2.3135,-2.7209,-2.7867,-2.3387,-2.3135,-2.3135,-2.3135,-2.2598,-2.2021,-2.1426,-2.0869,-2.1088,-2.1952,-2.1953,-2.2719,-2.422,-2.4587,-2.4531,-2.4004,-2.4741,-2.4774,-2.4368,-2.5149,-2.5517,-2.551,-2.5553,-2.5615,-2.563,-2.5615,-2.6019,-2.6609,-2.6518,-2.6929,-2.747,-2.7418,-2.8258,-2.9234,-2.9006,-3.039,-3.2412,-3.3954,-3.4695,-3.5266,-3.6396,-3.6906,-3.6797,-3.5451,-3.6581,-3.8238,-3.9176,-3.8838,-3.8574,-3.9523,-3.9824,-4.0195,-4.1055,-4.1875,-4.2676,-4.3476,-4.3613,-4.3603,-4.3606,-4.3601,-4.3902,-4.4703,-4.4109,-4.3899,-4.4645,-4.3799,-4.3568,-4.4435,-4.4376,-4.4172,-4.3819,-4.2427,-4.1622,-4.1622,-4.2092,-4.2304,-4.2304,-4.2304,-4.2708,-4.3479,-4.3479,-4.3679,-4.3998,-4.4016,-4.4255,-4.474,-4.5136,-4.5415,-4.5549,-4.5036,-4.4879,-4.5019,-4.5019,-4.5019,-4.5117,-4.5976,-4.6308,-4.6308,-2.3135,-2.3135,-2.3135,-2.3135,-2.3135,-2.3135,-2.3135,-2.3135,-2.3135,-2.3135,-2.3135,-2.3135,-2.3135,-2.3135,-2.3135,-2.3135,-2.4307,-2.4553,-2.3222,-2.4155,-2.4231,-2.3135,-2.2978,-2.2422,-2.1435,-2.1465,-2.1341,-2.1011,-2.1292,-2.1632,-2.2121,-2.2814,-2.332,-2.3501,-2.3641,-2.4145,-2.4939,-2.4761,-2.5055,-2.5568,-2.558,-2.6153,-2.698,-2.6947,-2.7624,-2.8581,-2.8036,-2.7942,-2.812,-2.8013,-2.8782,-3.0051,-3.1487,-3.2724,-3.387,-3.4597,-3.5478,-3.6303,-3.6831,-3.765,-3.8118,-3.7106,-3.7428,-3.8272,-3.9287,-3.9372,-3.9676,-4.1267,-4.1629,-4.1914,-4.2793,-4.3144,-4.3398,-4.3633,-4.4104,-4.4428,-4.4437,-4.4883,-4.5297,-4.555,-4.5105,-4.4975,-4.5433,-4.4683,-4.4376,-4.4878,-4.4668,-4.4469,-4.4372,-4.3681,-4.329,-4.329,-4.3199,-4.3262,-4.3497,-4.3262,-4.3391,-4.3849,-4.3849,-4.4046,-4.4419,-4.4458,-4.4711,-4.5149,-4.5394,-4.5669,-4.5963,-4.5881,-4.5877,-4.5918,-4.5918,-4.5918,-4.5937,-4.6191,-4.6308,-4.6308,-2.3135,-2.3135,-2.3135,-2.3135,-2.3135,-2.3135,-2.3135,-2.3135,-2.3135,-2.3135,-2.3135,-2.3135,-2.3135,-2.3135,-2.3135,-2.3135,-2.3135,-2.3135,-2.3135,-2.5652,-2.636,-2.4535,-2.4251,-2.3335,-2.1777,-2.1846,-2.1543,-2.083,-2.1267,-2.1544,-2.1533,-2.2879,-2.357,-2.3641,-2.3946,-2.4801,-2.5947,-2.5645,-2.6016,-2.6797,-2.6797,-2.7275,-2.8021,-2.8242,-2.8993,-2.9946,-2.9993,-2.9848,-2.9652,-2.9961,-3.0825,-3.2003,-3.3629,-3.4673,-3.5402,-3.5993,-3.6719,-3.7512,-3.8123,-3.8822,-3.9375,-3.9273,-3.9161,-3.935,-4.0361,-4.0636,-4.1096,-4.2593,-4.3183,-4.3569,-4.4052,-4.4416,-4.4637,-4.4575,-4.4929,-4.524,-4.5238,-4.5617,-4.5841,-4.5689,-4.5419,-4.5278,-4.5316,-4.4887,-4.4682,-4.4896,-4.458,-4.4346,-4.4346,-4.4004,-4.3849,-4.4016,-4.3804,-4.3892,-4.4274,-4.4066,-4.4066,-4.4274,-4.4274,-4.4515,-4.4926,-4.4963,-4.5199,-4.5621,-4.5741,-4.5927,-4.6202,-4.627,-4.6308,-4.6308,-4.6308,-4.6308,-4.6308,-4.6308,-4.6308,-4.6308,-2.3135,-2.3135,-2.3135,-2.3135,-2.3135,-2.3135,-2.3135,-2.3135,-2.3135,-2.3135,-2.3135,-2.3135,-2.3135,-2.3135,-2.3135,-2.3135,-2.3474,-2.3724,-2.3724,-2.7545,-2.8913,-2.6882,-2.6176,-2.4762,-2.2615,-2.2192,-2.1765,-2.1242,-2.1655,-2.1886,-2.1886,-2.3845,-2.4566,-2.4153,-2.5093,-2.6141,-2.7157,-2.7161,-2.7698,-2.8562,-2.8569,-2.8667,-2.8847,-2.9465,-3.0152,-3.0942,-3.2131,-3.2155,-3.1748,-3.2805,-3.3723,-3.4578,-3.5395,-3.6203,-3.6963,-3.7709,-3.8201,-3.8785,-3.9908,-4.0234,-4.052,-4.1651,-4.1412,-4.1174,-4.2024,-4.2318,-4.2686,-4.3622,-4.4432,-4.4968,-4.4909,-4.5547,-4.6044,-4.5929,-4.5891,-4.5894,-4.5885,-4.5855,-4.5688,-4.5335,-4.5166,-4.4952,-4.4624,-4.4553,-4.4565,-4.4613,-4.4202,-4.3992,-4.4067,-4.3716,-4.3646,-4.3986,-4.4023,-4.4244,-4.4749,-4.4759,-4.4759,-4.4777,-4.4759,-4.5006,-4.545,-4.5458,-4.5703,-4.6102,-4.6111,-4.6183,-4.6308,-4.6308,-4.6308,-4.6308,-4.6308,-4.6308,-4.6308,-4.6308,-4.6308,-4.6308,-2.3135,-2.3135,-2.3135,-2.3135,-2.3135,-2.3135,-2.3135,-2.3135,-2.3135,-2.3135,-2.3135,-2.3135,-2.3135,-2.3135,-2.3135,-2.3135,-2.6295,-2.8371,-2.8371,-2.9287,-2.9561,-2.9142,-2.8098,-2.6649,-2.4812,-2.3296,-2.2278,-2.1814,-2.1205,-2.0934,-2.0924,-2.2469,-2.3387,-2.3697,-2.4603,-2.564,-2.6804,-2.7086,-2.7651,-2.8376,-2.8521,-2.9205,-3.0078,-3.0221,-3.1038,-3.2205,-3.2951,-3.3102,-3.3119,-3.4082,-3.4553,-3.4865,-3.586,-3.6814,-3.7671,-3.7858,-3.878,-3.9927,-4.0806,-4.1226,-4.1654,-4.2588,-4.2816,-4.2873,-4.3072,-4.3228,-4.3589,-4.4521,-4.4779,-4.5042,-4.5714,-4.5892,-4.5926,-4.5893,-4.5851,-4.5819,-4.5832,-4.5496,-4.5237,-4.5151,-4.4617,-4.4355,-4.458,-4.4318,-4.4296,-4.465,-4.4014,-4.3873,-4.4518,-4.3897,-4.3646,-4.3986,-4.4105,-4.4482,-4.5166,-4.5237,-4.5246,-4.5259,-4.5249,-4.543,-4.5803,-4.5909,-4.5994,-4.6116,-4.6212,-4.6276,-4.6308,-4.6308,-4.6308,-4.6308,-4.6308,-4.6308,-4.6308,-4.6308,-4.6308,-4.6308,-2.3135,-2.3135,-2.3135,-2.3135,-2.3135,-2.3135,-2.3135,-2.3135,-2.3135,-2.3135,-2.3135,-2.3135,-2.3135,-2.3135,-2.3135,-2.3135,-2.5221,-2.7545,-2.9624,-2.9289,-2.875,-2.8222,-2.7896,-2.7195,-2.5925,-2.4556,-2.3296,-2.2363,-2.163,-2.1011,-2.0634,-2.1796,-2.2758,-2.3565,-2.4503,-2.5766,-2.7248,-2.7816,-2.832,-2.88,-2.9296,-3.0126,-3.106,-3.1383,-3.2353,-3.36,-3.4203,-3.4523,-3.4688,-3.5222,-3.5684,-3.6345,-3.7798,-3.8484,-3.882,-3.9364,-4.0171,-4.1013,-4.1434,-4.1982,-4.2643,-4.3544,-4.3891,-4.4017,-4.4015,-4.4145,-4.4514,-4.5345,-4.5473,-4.5528,-4.5892,-4.5911,-4.5834,-4.5776,-4.5591,-4.5477,-4.5477,-4.5113,-4.4781,-4.4612,-4.4013,-4.3527,-4.3306,-4.3395,-4.3595,-4.3815,-4.4064,-4.4398,-4.4816,-4.4888,-4.4896,-4.488,-4.5132,-4.5395,-4.5574,-4.5695,-4.5764,-4.5824,-4.5764,-4.5848,-4.6084,-4.6154,-4.6201,-4.6191,-4.6273,-4.6308,-4.6308,-4.6308,-4.6308,-4.6308,-4.6308,-4.6308,-4.6308,-4.6308,-4.6308,-4.6308,-2.3135,-2.3135,-2.3135,-2.3135,-2.3135,-2.3135,-2.3135,-2.3135,-2.3135,-2.3135,-2.3135,-2.3135,-2.3135,-2.3135,-2.3135,-2.3135,-2.38,-2.5797,-2.9546,-2.8561,-2.7419,-2.6571,-2.6904,-2.6929,-2.6533,-2.5664,-2.4545,-2.3067,-2.2519,-2.1886,-2.1088,-2.1886,-2.2776,-2.3818,-2.4636,-2.5906,-2.7537,-2.8556,-2.9086,-2.9344,-3.0297,-3.1104,-3.184,-3.249,-3.3519,-3.4688,-3.5362,-3.5862,-3.6227,-3.6535,-3.7214,-3.8285,-4.003,-4.0352,-4.0216,-4.1241,-4.176,-4.2047,-4.22,-4.2777,-4.3547,-4.4487,-4.4831,-4.4928,-4.4937,-4.5089,-4.5386,-4.5974,-4.6084,-4.6007,-4.5834,-4.5741,-4.5628,-4.5532,-4.5243,-4.5011,-4.5011,-4.4821,-4.4599,-4.4233,-4.3793,-4.3176,-4.2268,-4.2723,-4.3191,-4.3464,-4.4408,-4.5134,-4.5359,-4.6078,-4.6356,-4.6024,-4.6354,-4.6398,-4.6113,-4.6119,-4.6188,-4.6308,-4.6192,-4.6183,-4.6308,-4.6308,-4.6308,-4.6308,-4.6308,-4.6308,-4.6308,-4.6308,-4.6308,-4.6308,-4.6308,-4.6308,-4.6308,-4.6308,-4.6308,-4.6308,-2.3135,-2.3135,-2.3135,-2.3135,-2.3135,-2.3135,-2.3135,-2.3135,-2.3135,-2.3135,-2.3135,-2.3135,-2.3135,-2.3135,-2.3135,-2.3135,-2.6625,-2.9131,-2.9792,-2.7833,-2.6615,-2.6533,-2.6596,-2.6596,-2.6533,-2.6383,-2.577,-2.4669,-2.3779,-2.322,-2.3073,-2.322,-2.3818,-2.4791,-2.4933,-2.5652,-2.6782,-2.8298,-2.9024,-2.9198,-3.0769,-3.1882,-3.2547,-3.321,-3.395,-3.4688,-3.5362,-3.6353,-3.7568,-3.8664,-3.9439,-4.0106,-4.1111,-4.159,-4.186,-4.2288,-4.266,-4.3085,-4.3778,-4.4141,-4.4526,-4.5411,-4.5776,-4.5909,-4.5918,-4.6018,-4.6128,-4.6109,-4.6007,-4.5911,-4.5815,-4.5477,-4.5199,-4.518,-4.4896,-4.4657,-4.4657,-4.4937,-4.5102,-4.5041,-4.4858,-4.4497,-4.3748,-4.3792,-4.437,-4.5666,-4.5263,-4.5548,-4.6742,-4.662,-4.6588,-4.6816,-4.6724,-4.6779,-4.7017,-4.652,-4.6273,-4.6295,-4.6276,-4.6284,-4.6308,-4.6308,-4.6308,-4.6308,-4.6308,-4.6308,-4.6308,-4.6308,-4.6308,-4.6308,-4.6308,-4.6308,-4.6308,-4.6308,-4.6308,-4.6308,-2.3135,-2.3135,-2.3135,-2.3135,-2.3135,-2.3135,-2.3135,-2.3135,-2.3135,-2.3135,-2.3135,-2.3135,-2.3135,-2.3135,-2.4135,-2.6625,-2.8633,-2.9264,-2.8009,-2.7582,-2.7105,-2.6559,-2.6533,-2.6533,-2.6533,-2.6533,-2.6314,-2.5804,-2.485,-2.4036,-2.3514,-2.3514,-2.4036,-2.5004,-2.5004,-2.5752,-2.7031,-2.8446,-2.9196,-2.9572,-3.0982,-3.2199,-3.3251,-3.3933,-3.4889,-3.5988,-3.6956,-3.7654,-3.8267,-3.9501,-4.0436,-4.1206,-4.223,-4.2454,-4.2531,-4.3312,-4.3651,-4.3855,-4.4201,-4.4757,-4.5343,-4.5744,-4.5974,-4.6123,-4.618,-4.6206,-4.6143,-4.6034,-4.5901,-4.5969,-4.6336,-4.6069,-4.5913,-4.637,-4.5595,-4.5076,-4.5544,-4.5226,-4.4851,-4.4592,-4.451,-4.4112,-4.3158,-4.3406,-4.4086,-4.5123,-4.5551,-4.6209,-4.7211,-4.785,-4.8044,-4.7792,-4.7726,-4.7588,-4.7307,-4.6649,-4.6309,-4.6308,-4.6308,-4.6308,-4.6308,-4.6308,-4.6308,-4.6308,-4.6308,-4.6308,-4.6308,-4.6308,-4.6308,-4.6308,-4.6308,-4.6308,-4.6308,-4.6308,-4.6308,-4.6287]}]]